Time,TemperatureF,DewpointF,PressureIn,WindDirection,WindDirectionDegrees,WindSpeedMPH,WindSpeedGustMPH,Humidity,HourlyPrecipIn,Conditions,Clouds,dailyrainin,SoftwareType,DateUTC
2013-05-18 00:00:00,61.5,52.4,29.85,East,99,60.0,60.0,72,0.00,,---,0.00,VWS V14.01,2013-05-18 05:00:00,
2013-05-18 00:01:00,61.5,52.4,29.85,East,99,60.0,60.0,72,0.00,,---,0.00,VWS V14.01,2013-05-18 05:01:00,
2013-05-18 00:02:00,61.5,52.4,29.85,East,93,60.0,60.0,72,0.00,,---,0.00,VWS V14.01,2013-05-18 05:02:00,
2013-05-18 00:03:00,61.5,52.4,29.85,East,92,60.0,60.0,72,0.00,,---,0.00,VWS V14.01,2013-05-18 05:03:00,
2013-05-18 00:04:00,61.5,52.4,29.85,East,92,60.0,60.0,72,0.00,,---,0.00,VWS V14.01,2013-05-18 05:04:00,
2013-05-18 00:05:00,61.5,52.4,29.85,East,92,60.0,60.0,72,0.00,,---,0.00,VWS V14.01,2013-05-18 05:05:00,
2013-05-18 00:06:00,61.5,52.4,29.85,East,92,60.0,60.0,72,0.00,,---,0.00,VWS V14.01,2013-05-18 05:06:00,
2013-05-18 00:07:00,61.5,52.4,29.85,East,85,60.0,60.0,72,0.00,,---,0.00,VWS V14.01,2013-05-18 05:07:00,
2013-05-18 00:08:00,61.3,52.2,29.85,East,88,60.0,60.0,72,0.00,,---,0.00,VWS V14.01,2013-05-18 05:08:00,
2013-05-18 00:09:00,61.5,52.4,29.85,East,89,60.0,60.0,72,0.00,,---,0.00,VWS V14.01,2013-05-18 05:09:00,
2013-05-18 00:10:00,61.5,52.4,29.85,East,89,60.0,60.0,72,0.00,,---,0.00,VWS V14.01,2013-05-18 05:10:00,
2013-05-18 00:11:00,61.5,52.4,29.85,East,86,60.0,60.0,72,0.00,,---,0.00,VWS V14.01,2013-05-18 05:11:00,
2013-05-18 00:12:00,61.5,52.4,29.85,East,93,60.0,60.0,72,0.00,,---,0.00,VWS V14.01,2013-05-18 05:12:00,
2013-05-18 00:13:00,61.3,52.2,29.85,East,93,60.0,60.0,72,0.00,,---,0.00,VWS V14.01,2013-05-18 05:13:00,
2013-05-18 00:14:00,61.5,52.4,29.85,East,93,60.0,60.0,72,0.00,,---,0.00,VWS V14.01,2013-05-18 05:14:00,
2013-05-18 00:15:00,61.5,52.4,29.85,East,89,60.0,60.0,72,0.00,,---,0.00,VWS V14.01,2013-05-18 05:15:00,
2013-05-18 00:16:00,61.3,52.2,29.85,East,88,60.0,60.0,72,0.00,,---,0.00,VWS V14.01,2013-05-18 05:16:00,
2013-05-18 00:17:00,61.5,52.8,29.85,East,88,60.0,60.0,73,0.00,,---,0.00,VWS V14.01,2013-05-18 05:17:00,
2013-05-18 00:18:00,61.5,52.4,29.85,East,88,60.0,60.0,72,0.00,,---,0.00,VWS V14.01,2013-05-18 05:18:00,
2013-05-18 00:19:00,61.5,52.8,29.85,East,89,60.0,60.0,73,0.00,,---,0.00,VWS V14.01,2013-05-18 05:19:00,
2013-05-18 00:20:00,61.5,52.4,29.85,East,90,60.0,60.0,72,0.00,,---,0.00,VWS V14.01,2013-05-18 05:20:00,
2013-05-18 00:21:00,61.5,52.4,29.85,East,92,60.0,60.0,72,0.00,,---,0.00,VWS V14.01,2013-05-18 05:21:00,
2013-05-18 00:22:00,61.3,52.2,29.85,East,100,60.0,60.0,72,0.00,,---,0.00,VWS V14.01,2013-05-18 05:22:00,
2013-05-18 00:23:00,61.3,52.2,29.85,East,88,60.0,60.0,72,0.00,,---,0.00,VWS V14.01,2013-05-18 05:23:00,
2013-05-18 00:24:00,61.3,52.6,29.85,East,93,60.0,60.0,73,0.00,,---,0.00,VWS V14.01,2013-05-18 05:24:00,
2013-05-18 00:25:00,61.3,52.6,29.85,East,92,60.0,60.0,73,0.00,,---,0.00,VWS V14.01,2013-05-18 05:25:00,
2013-05-18 00:26:00,61.3,52.6,29.85,East,92,60.0,60.0,73,0.00,,---,0.00,VWS V14.01,2013-05-18 05:26:00,
2013-05-18 00:27:00,61.3,52.6,29.85,East,95,60.0,60.0,73,0.00,,---,0.00,VWS V14.01,2013-05-18 05:27:00,
2013-05-18 00:28:00,61.3,52.6,29.85,East,92,60.0,60.0,73,0.00,,---,0.00,VWS V14.01,2013-05-18 05:28:00,
2013-05-18 00:29:00,61.3,52.6,29.85,East,92,60.0,60.0,73,0.00,,---,0.00,VWS V14.01,2013-05-18 05:29:00,
2013-05-18 00:30:00,61.3,52.6,29.85,East,92,60.0,60.0,73,0.00,,---,0.00,VWS V14.01,2013-05-18 05:30:00,
2013-05-18 00:31:00,61.3,52.6,29.85,East,90,60.0,60.0,73,0.00,,---,0.00,VWS V14.01,2013-05-18 05:31:00,
2013-05-18 00:32:00,61.3,52.6,29.85,East,93,60.0,60.0,73,0.00,,---,0.00,VWS V14.01,2013-05-18 05:32:00,
2013-05-18 00:33:00,61.3,52.6,29.85,ESE,104,60.0,60.0,73,0.00,,---,0.00,VWS V14.01,2013-05-18 05:33:00,
2013-05-18 00:34:00,61.3,52.6,29.85,ESE,102,60.0,60.0,73,0.00,,---,0.00,VWS V14.01,2013-05-18 05:34:00,
2013-05-18 00:35:00,61.3,52.6,29.85,East,100,60.0,60.0,73,0.00,,---,0.00,VWS V14.01,2013-05-18 05:35:00,
2013-05-18 00:36:00,61.3,52.6,29.85,East,95,60.0,60.0,73,0.00,,---,0.00,VWS V14.01,2013-05-18 05:36:00,
2013-05-18 00:37:00,61.3,52.6,29.85,East,90,60.0,60.0,73,0.00,,---,0.00,VWS V14.01,2013-05-18 05:37:00,
2013-05-18 00:38:00,61.3,52.6,29.85,East,97,60.0,60.0,73,0.00,,---,0.00,VWS V14.01,2013-05-18 05:38:00,
2013-05-18 00:39:00,61.3,52.6,29.85,East,92,60.0,60.0,73,0.00,,---,0.00,VWS V14.01,2013-05-18 05:39:00,
2013-05-18 00:40:00,61.3,52.6,29.85,East,93,60.0,60.0,73,0.00,,---,0.00,VWS V14.01,2013-05-18 05:40:00,
2013-05-18 00:41:00,61.3,52.6,29.85,East,85,60.0,60.0,73,0.00,,---,0.00,VWS V14.01,2013-05-18 05:41:00,
2013-05-18 00:42:00,61.3,52.6,29.85,East,97,60.0,60.0,73,0.00,,---,0.00,VWS V14.01,2013-05-18 05:42:00,
2013-05-18 00:43:00,61.3,52.6,29.85,East,93,60.0,60.0,73,0.00,,---,0.00,VWS V14.01,2013-05-18 05:43:00,
2013-05-18 00:44:00,61.3,52.6,29.86,East,85,60.0,60.0,73,0.00,,---,0.00,VWS V14.01,2013-05-18 05:44:00,
2013-05-18 00:45:00,61.3,52.6,29.86,East,85,60.0,60.0,73,0.00,,---,0.00,VWS V14.01,2013-05-18 05:45:00,
2013-05-18 00:46:00,61.3,53.0,29.86,East,93,60.0,60.0,74,0.00,,---,0.00,VWS V14.01,2013-05-18 05:46:00,
2013-05-18 00:47:00,61.3,52.6,29.86,East,92,60.0,60.0,73,0.00,,---,0.00,VWS V14.01,2013-05-18 05:47:00,
2013-05-18 00:48:00,61.3,53.0,29.86,East,93,60.0,60.0,74,0.00,,---,0.00,VWS V14.01,2013-05-18 05:48:00,
2013-05-18 00:49:00,61.3,53.0,29.86,East,92,60.0,60.0,74,0.00,,---,0.00,VWS V14.01,2013-05-18 05:49:00,
2013-05-18 00:50:00,61.3,53.0,29.86,East,96,60.0,60.0,74,0.00,,---,0.00,VWS V14.01,2013-05-18 05:50:00,
2013-05-18 00:51:00,61.3,53.0,29.86,East,95,60.0,60.0,74,0.00,,---,0.00,VWS V14.01,2013-05-18 05:51:00,
2013-05-18 00:52:00,61.2,52.9,29.86,East,92,60.0,60.0,74,0.00,,---,0.00,VWS V14.01,2013-05-18 05:52:00,
2013-05-18 00:53:00,61.3,53.0,29.86,East,88,60.0,60.0,74,0.00,,---,0.00,VWS V14.01,2013-05-18 05:53:00,
2013-05-18 00:54:00,61.3,53.0,29.86,East,89,60.0,60.0,74,0.00,,---,0.00,VWS V14.01,2013-05-18 05:54:00,
2013-05-18 00:55:00,61.3,53.0,29.86,East,85,60.0,60.0,74,0.00,,---,0.00,VWS V14.01,2013-05-18 05:55:00,
2013-05-18 00:56:00,61.2,52.9,29.86,East,86,60.0,60.0,74,0.00,,---,0.00,VWS V14.01,2013-05-18 05:56:00,
2013-05-18 00:57:00,61.2,52.9,29.86,East,89,60.0,60.0,74,0.00,,---,0.00,VWS V14.01,2013-05-18 05:57:00,
2013-05-18 00:58:00,61.2,52.9,29.86,East,100,60.0,60.0,74,0.00,,---,0.00,VWS V14.01,2013-05-18 05:58:00,
2013-05-18 00:59:00,61.2,52.9,29.86,East,88,60.0,60.0,74,0.00,,---,0.00,VWS V14.01,2013-05-18 05:59:00,
2013-05-18 01:00:00,61.2,52.9,29.86,SE,137,60.0,60.0,74,0.00,,---,0.00,VWS V14.01,2013-05-18 06:00:00,
2013-05-18 01:05:00,61.2,52.9,29.86,East,90,60.0,60.0,74,0.00,,---,0.00,VWS V14.01,2013-05-18 06:05:00,
2013-05-18 01:06:00,61.2,52.9,29.86,East,83,60.0,60.0,74,0.00,,---,0.00,VWS V14.01,2013-05-18 06:06:00,
2013-05-18 01:07:00,61.2,52.9,29.86,East,88,60.0,60.0,74,0.00,,---,0.00,VWS V14.01,2013-05-18 06:07:00,
2013-05-18 01:08:00,61.2,52.9,29.86,East,88,60.0,60.0,74,0.00,,---,0.00,VWS V14.01,2013-05-18 06:08:00,
2013-05-18 01:09:00,61.2,52.9,29.86,East,88,60.0,60.0,74,0.00,,---,0.00,VWS V14.01,2013-05-18 06:09:00,
2013-05-18 01:10:00,61.2,52.9,29.86,East,86,60.0,60.0,74,0.00,,---,0.00,VWS V14.01,2013-05-18 06:10:00,
2013-05-18 01:11:00,61.2,52.9,29.86,East,89,60.0,60.0,74,0.00,,---,0.00,VWS V14.01,2013-05-18 06:11:00,
2013-05-18 01:12:00,61.2,52.9,29.86,East,93,60.0,60.0,74,0.00,,---,0.00,VWS V14.01,2013-05-18 06:12:00,
2013-05-18 01:13:00,61.2,52.9,29.86,East,92,60.0,60.0,74,0.00,,---,0.00,VWS V14.01,2013-05-18 06:13:00,
2013-05-18 01:14:00,61.2,52.9,29.86,East,93,60.0,60.0,74,0.00,,---,0.00,VWS V14.01,2013-05-18 06:14:00,
2013-05-18 01:15:00,61.2,52.9,29.86,East,89,60.0,60.0,74,0.00,,---,0.00,VWS V14.01,2013-05-18 06:15:00,
2013-05-18 01:16:00,61.2,52.9,29.86,East,89,60.0,60.0,74,0.00,,---,0.00,VWS V14.01,2013-05-18 06:16:00,
2013-05-18 01:17:00,61.2,52.9,29.86,East,90,60.0,60.0,74,0.00,,---,0.00,VWS V14.01,2013-05-18 06:17:00,
2013-05-18 01:18:00,61.0,52.7,29.86,East,93,60.0,60.0,74,0.00,,---,0.00,VWS V14.01,2013-05-18 06:18:00,
2013-05-18 01:19:00,61.0,52.7,29.86,East,92,60.0,60.0,74,0.00,,---,0.00,VWS V14.01,2013-05-18 06:19:00,
2013-05-18 01:20:00,61.0,52.7,29.86,East,92,60.0,60.0,74,0.00,,---,0.00,VWS V14.01,2013-05-18 06:20:00,
2013-05-18 01:21:00,61.0,52.7,29.86,East,90,60.0,60.0,74,0.00,,---,0.00,VWS V14.01,2013-05-18 06:21:00,
2013-05-18 01:22:00,61.0,52.7,29.86,East,90,60.0,60.0,74,0.00,,---,0.00,VWS V14.01,2013-05-18 06:22:00,
2013-05-18 01:23:00,61.0,52.7,29.86,East,92,60.0,60.0,74,0.00,,---,0.00,VWS V14.01,2013-05-18 06:23:00,
2013-05-18 01:24:00,61.0,52.7,29.86,East,92,60.0,60.0,74,0.00,,---,0.00,VWS V14.01,2013-05-18 06:24:00,
2013-05-18 01:25:00,61.0,52.7,29.86,East,92,60.0,60.0,74,0.00,,---,0.00,VWS V14.01,2013-05-18 06:25:00,
2013-05-18 01:26:00,61.0,52.7,29.86,East,92,60.0,60.0,74,0.00,,---,0.00,VWS V14.01,2013-05-18 06:26:00,
2013-05-18 01:27:00,60.9,52.6,29.86,East,89,60.0,60.0,74,0.00,,---,0.00,VWS V14.01,2013-05-18 06:27:00,
2013-05-18 01:28:00,60.9,52.6,29.86,East,89,60.0,60.0,74,0.00,,---,0.00,VWS V14.01,2013-05-18 06:28:00,
2013-05-18 01:29:00,60.9,52.6,29.86,East,93,60.0,60.0,74,0.00,,---,0.00,VWS V14.01,2013-05-18 06:29:00,
2013-05-18 01:30:00,60.9,52.2,29.85,East,92,60.0,60.0,73,0.00,,---,0.00,VWS V14.01,2013-05-18 06:30:00,
2013-05-18 01:31:00,60.9,52.2,29.85,East,90,60.0,60.0,73,0.00,,---,0.00,VWS V14.01,2013-05-18 06:31:00,
2013-05-18 01:32:00,60.9,52.6,29.85,East,88,60.0,60.0,74,0.00,,---,0.00,VWS V14.01,2013-05-18 06:32:00,
2013-05-18 01:33:00,60.7,52.4,29.85,East,89,60.0,60.0,74,0.00,,---,0.00,VWS V14.01,2013-05-18 06:33:00,
2013-05-18 01:34:00,60.7,52.4,29.85,ESE,106,60.0,60.0,74,0.00,,---,0.00,VWS V14.01,2013-05-18 06:34:00,
2013-05-18 01:35:00,60.7,52.4,29.85,ESE,104,60.0,60.0,74,0.00,,---,0.00,VWS V14.01,2013-05-18 06:35:00,
2013-05-18 01:36:00,60.7,52.4,29.85,East,96,60.0,60.0,74,0.00,,---,0.00,VWS V14.01,2013-05-18 06:36:00,
2013-05-18 01:37:00,60.7,52.7,29.85,East,96,60.0,60.0,75,0.00,,---,0.00,VWS V14.01,2013-05-18 06:37:00,
2013-05-18 01:38:00,60.7,52.7,29.85,East,88,60.0,60.0,75,0.00,,---,0.00,VWS V14.01,2013-05-18 06:38:00,
2013-05-18 01:39:00,60.7,52.7,29.85,East,88,60.0,60.0,75,0.00,,---,0.00,VWS V14.01,2013-05-18 06:39:00,
2013-05-18 01:40:00,60.7,52.7,29.85,East,82,60.0,60.0,75,0.00,,---,0.00,VWS V14.01,2013-05-18 06:40:00,
2013-05-18 01:41:00,60.7,52.7,29.85,East,93,60.0,60.0,75,0.00,,---,0.00,VWS V14.01,2013-05-18 06:41:00,
2013-05-18 01:42:00,60.5,52.5,29.85,East,85,60.0,60.0,75,0.00,,---,0.00,VWS V14.01,2013-05-18 06:42:00,
2013-05-18 01:43:00,60.5,52.5,29.85,East,85,60.0,60.0,75,0.00,,---,0.00,VWS V14.01,2013-05-18 06:43:00,
2013-05-18 01:44:00,60.5,52.5,29.85,East,86,60.0,60.0,75,0.00,,---,0.00,VWS V14.01,2013-05-18 06:44:00,
2013-05-18 01:45:00,60.5,52.5,29.83,East,93,60.0,60.0,75,0.00,,---,0.00,VWS V14.01,2013-05-18 06:45:00,
2013-05-18 01:46:00,60.5,52.5,29.83,East,93,60.0,60.0,75,0.00,,---,0.00,VWS V14.01,2013-05-18 06:46:00,
2013-05-18 01:47:00,60.5,52.5,29.83,East,93,60.0,60.0,75,0.00,,---,0.00,VWS V14.01,2013-05-18 06:47:00,
2013-05-18 01:48:00,60.5,52.5,29.83,East,89,60.0,60.0,75,0.00,,---,0.00,VWS V14.01,2013-05-18 06:48:00,
2013-05-18 01:49:00,60.5,52.5,29.83,East,92,60.0,60.0,75,0.00,,---,0.00,VWS V14.01,2013-05-18 06:49:00,
2013-05-18 01:50:00,60.5,52.5,29.83,East,88,60.0,60.0,75,0.00,,---,0.00,VWS V14.01,2013-05-18 06:50:00,
2013-05-18 01:51:00,60.5,52.5,29.83,East,80,60.0,60.0,75,0.00,,---,0.00,VWS V14.01,2013-05-18 06:51:00,
2013-05-18 01:52:00,60.5,52.5,29.83,East,80,60.0,60.0,75,0.00,,---,0.00,VWS V14.01,2013-05-18 06:52:00,
2013-05-18 01:53:00,60.5,52.5,29.83,East,80,60.0,60.0,75,0.00,,---,0.00,VWS V14.01,2013-05-18 06:53:00,
2013-05-18 01:54:00,60.5,52.5,29.83,East,80,60.0,60.0,75,0.00,,---,0.00,VWS V14.01,2013-05-18 06:54:00,
2013-05-18 01:55:00,60.5,52.5,29.83,East,80,60.0,60.0,75,0.00,,---,0.00,VWS V14.01,2013-05-18 06:55:00,
2013-05-18 01:56:00,60.5,52.5,29.83,East,90,60.0,60.0,75,0.00,,---,0.00,VWS V14.01,2013-05-18 06:56:00,
2013-05-18 01:57:00,60.5,52.5,29.83,East,88,60.0,60.0,75,0.00,,---,0.00,VWS V14.01,2013-05-18 06:57:00,
2013-05-18 01:58:00,60.5,52.5,29.83,East,88,60.0,60.0,75,0.00,,---,0.00,VWS V14.01,2013-05-18 06:58:00,
2013-05-18 01:59:00,60.5,52.5,29.84,East,88,60.0,60.0,75,0.00,,---,0.00,VWS V14.01,2013-05-18 06:59:00,
2013-05-18 02:00:00,60.4,52.5,29.84,East,88,60.0,60.0,75,0.00,,---,0.00,VWS V14.01,2013-05-18 07:00:00,
2013-05-18 02:01:00,60.4,52.5,29.84,East,83,60.0,60.0,75,0.00,,---,0.00,VWS V14.01,2013-05-18 07:01:00,
2013-05-18 02:02:00,60.4,52.5,29.84,East,83,60.0,60.0,75,0.00,,---,0.00,VWS V14.01,2013-05-18 07:02:00,
2013-05-18 02:03:00,60.5,52.9,29.84,East,88,60.0,60.0,76,0.00,,---,0.00,VWS V14.01,2013-05-18 07:03:00,
2013-05-18 02:04:00,60.5,52.9,29.84,East,88,60.0,60.0,76,0.00,,---,0.00,VWS V14.01,2013-05-18 07:04:00,
2013-05-18 02:05:00,60.5,52.5,29.84,East,88,60.0,60.0,75,0.00,,---,0.00,VWS V14.01,2013-05-18 07:05:00,
2013-05-18 02:06:00,60.5,52.5,29.84,East,88,60.0,60.0,75,0.00,,---,0.00,VWS V14.01,2013-05-18 07:06:00,
2013-05-18 02:07:00,60.5,52.5,29.84,East,95,60.0,60.0,75,0.00,,---,0.00,VWS V14.01,2013-05-18 07:07:00,
2013-05-18 02:08:00,60.5,52.9,29.84,East,95,60.0,60.0,76,0.00,,---,0.00,VWS V14.01,2013-05-18 07:08:00,
2013-05-18 02:09:00,60.5,52.5,29.84,East,89,60.0,60.0,75,0.00,,---,0.00,VWS V14.01,2013-05-18 07:09:00,
2013-05-18 02:10:00,60.4,52.5,29.84,East,89,60.0,60.0,75,0.00,,---,0.00,VWS V14.01,2013-05-18 07:10:00,
2013-05-18 02:11:00,60.4,52.8,29.84,East,89,60.0,60.0,76,0.00,,---,0.00,VWS V14.01,2013-05-18 07:11:00,
2013-05-18 02:12:00,60.4,52.8,29.84,East,88,60.0,60.0,76,0.00,,---,0.00,VWS V14.01,2013-05-18 07:12:00,
2013-05-18 02:13:00,60.4,52.8,29.84,East,88,60.0,60.0,76,0.00,,---,0.00,VWS V14.01,2013-05-18 07:13:00,
2013-05-18 02:14:00,60.5,52.9,29.84,East,93,60.0,60.0,76,0.00,,---,0.00,VWS V14.01,2013-05-18 07:14:00,
2013-05-18 02:15:00,60.5,52.9,29.84,East,92,60.0,60.0,76,0.00,,---,0.00,VWS V14.01,2013-05-18 07:15:00,
2013-05-18 02:16:00,60.4,52.8,29.84,East,97,60.0,60.0,76,0.00,,---,0.00,VWS V14.01,2013-05-18 07:16:00,
2013-05-18 02:17:00,60.4,52.5,29.84,East,93,60.0,60.0,75,0.00,,---,0.00,VWS V14.01,2013-05-18 07:17:00,
2013-05-18 02:18:00,60.4,52.5,29.84,East,90,60.0,60.0,75,0.00,,---,0.00,VWS V14.01,2013-05-18 07:18:00,
2013-05-18 02:19:00,60.4,52.5,29.84,East,88,60.0,60.0,75,0.00,,---,0.00,VWS V14.01,2013-05-18 07:19:00,
2013-05-18 02:20:00,60.4,52.5,29.84,East,89,60.0,60.0,75,0.00,,---,0.00,VWS V14.01,2013-05-18 07:20:00,
2013-05-18 02:21:00,60.4,52.5,29.84,East,89,60.0,60.0,75,0.00,,---,0.00,VWS V14.01,2013-05-18 07:21:00,
2013-05-18 02:22:00,60.4,52.8,29.84,East,95,60.0,60.0,76,0.00,,---,0.00,VWS V14.01,2013-05-18 07:22:00,
2013-05-18 02:23:00,60.4,52.8,29.84,East,95,60.0,60.0,76,0.00,,---,0.00,VWS V14.01,2013-05-18 07:23:00,
2013-05-18 02:24:00,60.4,52.5,29.84,East,97,60.0,60.0,75,0.00,,---,0.00,VWS V14.01,2013-05-18 07:24:00,
2013-05-18 02:25:00,60.4,52.8,29.84,East,97,60.0,60.0,76,0.00,,---,0.00,VWS V14.01,2013-05-18 07:25:00,
2013-05-18 02:26:00,60.4,52.8,29.84,East,97,60.0,60.0,76,0.00,,---,0.00,VWS V14.01,2013-05-18 07:26:00,
2013-05-18 02:27:00,60.4,52.8,29.84,East,97,60.0,60.0,76,0.00,,---,0.00,VWS V14.01,2013-05-18 07:27:00,
2013-05-18 02:28:00,60.4,52.8,29.84,East,97,60.0,60.0,76,0.00,,---,0.00,VWS V14.01,2013-05-18 07:28:00,
2013-05-18 02:29:00,60.4,52.8,29.85,South,185,60.0,60.0,76,0.00,,---,0.00,VWS V14.01,2013-05-18 07:29:00,
2013-05-18 02:30:00,60.4,52.8,29.85,SSE,168,60.0,60.0,76,0.00,,---,0.00,VWS V14.01,2013-05-18 07:30:00,
2013-05-18 02:31:00,60.4,52.8,29.85,SSE,168,60.0,60.0,76,0.00,,---,0.00,VWS V14.01,2013-05-18 07:31:00,
2013-05-18 02:32:00,60.4,52.8,29.85,SSE,168,60.0,60.0,76,0.00,,---,0.00,VWS V14.01,2013-05-18 07:32:00,
2013-05-18 02:33:00,60.4,52.8,29.85,East,96,60.0,60.0,76,0.00,,---,0.00,VWS V14.01,2013-05-18 07:33:00,
2013-05-18 02:34:00,60.4,52.8,29.85,East,93,60.0,60.0,76,0.00,,---,0.00,VWS V14.01,2013-05-18 07:34:00,
2013-05-18 02:37:00,60.4,52.8,29.85,SSE,165,60.0,60.0,76,0.00,,---,0.00,VWS V14.01,2013-05-18 07:37:00,
2013-05-18 02:38:00,60.4,52.8,29.85,SSE,164,60.0,60.0,76,0.00,,---,0.00,VWS V14.01,2013-05-18 07:38:00,
2013-05-18 02:39:00,60.4,52.8,29.85,ESE,116,60.0,60.0,76,0.00,,---,0.00,VWS V14.01,2013-05-18 07:39:00,
2013-05-18 02:40:00,60.4,52.8,29.85,East,99,60.0,60.0,76,0.00,,---,0.00,VWS V14.01,2013-05-18 07:40:00,
2013-05-18 02:41:00,60.4,52.8,29.85,East,99,60.0,60.0,76,0.00,,---,0.00,VWS V14.01,2013-05-18 07:41:00,
2013-05-18 02:42:00,60.4,52.8,29.85,East,99,60.0,60.0,76,0.00,,---,0.00,VWS V14.01,2013-05-18 07:42:00,
2013-05-18 02:43:00,60.4,52.8,29.85,East,99,60.0,60.0,76,0.00,,---,0.00,VWS V14.01,2013-05-18 07:43:00,
2013-05-18 02:44:00,60.4,52.8,29.85,East,99,60.0,60.0,76,0.00,,---,0.00,VWS V14.01,2013-05-18 07:44:00,
2013-05-18 02:45:00,60.4,52.8,29.85,East,99,60.0,60.0,76,0.00,,---,0.00,VWS V14.01,2013-05-18 07:45:00,
2013-05-18 02:46:00,60.4,52.8,29.85,East,99,60.0,60.0,76,0.00,,---,0.00,VWS V14.01,2013-05-18 07:46:00,
2013-05-18 02:47:00,60.4,52.8,29.85,East,99,60.0,60.0,76,0.00,,---,0.00,VWS V14.01,2013-05-18 07:47:00,
2013-05-18 02:48:00,60.4,52.8,29.85,East,99,60.0,60.0,76,0.00,,---,0.00,VWS V14.01,2013-05-18 07:48:00,
2013-05-18 02:49:00,60.2,52.6,29.85,East,99,60.0,60.0,76,0.00,,---,0.00,VWS V14.01,2013-05-18 07:49:00,
2013-05-18 02:50:00,60.2,52.6,29.85,East,99,60.0,60.0,76,0.00,,---,0.00,VWS V14.01,2013-05-18 07:50:00,
2013-05-18 02:51:00,60.2,53.0,29.85,East,99,60.0,60.0,77,0.00,,---,0.00,VWS V14.01,2013-05-18 07:51:00,
2013-05-18 02:52:00,60.2,53.0,29.85,East,99,60.0,60.0,77,0.01,,---,0.01,VWS V14.01,2013-05-18 07:52:00,
2013-05-18 02:53:00,60.2,53.0,29.85,SE,137,60.0,60.0,77,0.01,,---,0.01,VWS V14.01,2013-05-18 07:53:00,
2013-05-18 02:54:00,60.1,52.9,29.85,SSE,162,60.0,60.0,77,0.01,,---,0.01,VWS V14.01,2013-05-18 07:54:00,
2013-05-18 02:55:00,60.1,53.2,29.85,SSE,160,60.0,60.0,78,0.01,,---,0.01,VWS V14.01,2013-05-18 07:55:00,
2013-05-18 02:56:00,59.9,53.0,29.85,SSE,160,60.0,60.0,78,0.01,,---,0.01,VWS V14.01,2013-05-18 07:56:00,
2013-05-18 02:57:00,59.9,53.0,29.85,SSE,160,60.0,60.0,78,0.01,,---,0.01,VWS V14.01,2013-05-18 07:57:00,
2013-05-18 02:58:00,59.9,53.0,29.85,SSE,160,60.0,60.0,78,0.01,,---,0.01,VWS V14.01,2013-05-18 07:58:00,
2013-05-18 02:59:00,59.8,53.3,29.85,SSE,160,60.0,60.0,79,0.01,,---,0.01,VWS V14.01,2013-05-18 07:59:00,
2013-05-18 03:00:00,59.8,53.3,29.85,SSE,160,60.0,60.0,79,0.01,,---,0.01,VWS V14.01,2013-05-18 08:00:00,
2013-05-18 03:01:00,59.8,53.3,29.85,SSE,160,60.0,60.0,79,0.01,,---,0.01,VWS V14.01,2013-05-18 08:01:00,
2013-05-18 03:02:00,59.8,53.6,29.85,SSE,160,60.0,60.0,80,0.01,,---,0.01,VWS V14.01,2013-05-18 08:02:00,
2013-05-18 03:03:00,59.6,53.4,29.85,SSE,160,60.0,60.0,80,0.01,,---,0.01,VWS V14.01,2013-05-18 08:03:00,
2013-05-18 03:04:00,59.6,53.4,29.85,SSE,160,60.0,60.0,80,0.01,,---,0.01,VWS V14.01,2013-05-18 08:04:00,
2013-05-18 03:05:00,59.6,53.4,29.85,SSE,160,60.0,60.0,80,0.01,,---,0.01,VWS V14.01,2013-05-18 08:05:00,
2013-05-18 03:06:00,59.6,53.4,29.85,SSE,155,60.0,60.0,80,0.01,,---,0.01,VWS V14.01,2013-05-18 08:06:00,
2013-05-18 03:07:00,59.6,53.4,29.85,ESE,116,60.0,60.0,80,0.01,,---,0.01,VWS V14.01,2013-05-18 08:07:00,
2013-05-18 03:08:00,59.6,53.4,29.85,ESE,114,60.0,60.0,80,0.01,,---,0.01,VWS V14.01,2013-05-18 08:08:00,
2013-05-18 03:09:00,59.5,53.3,29.85,ESE,114,60.0,60.0,80,0.01,,---,0.01,VWS V14.01,2013-05-18 08:09:00,
2013-05-18 03:10:00,59.5,53.3,29.85,South,175,60.0,60.0,80,0.01,,---,0.01,VWS V14.01,2013-05-18 08:10:00,
2013-05-18 03:11:00,59.5,53.3,29.85,South,175,60.0,60.0,80,0.01,,---,0.01,VWS V14.01,2013-05-18 08:11:00,
2013-05-18 03:12:00,59.5,53.3,29.85,South,179,60.0,60.0,80,0.01,,---,0.01,VWS V14.01,2013-05-18 08:12:00,
2013-05-18 03:13:00,59.5,53.3,29.85,South,182,60.0,60.0,80,0.01,,---,0.01,VWS V14.01,2013-05-18 08:13:00,
2013-05-18 03:14:00,59.5,53.7,29.85,South,172,60.0,60.0,81,0.01,,---,0.01,VWS V14.01,2013-05-18 08:14:00,
2013-05-18 03:15:00,59.6,53.8,29.85,SSW,196,60.0,60.0,81,0.01,,---,0.01,VWS V14.01,2013-05-18 08:15:00,
2013-05-18 03:16:00,59.6,53.8,29.85,South,184,60.0,60.0,81,0.01,,---,0.01,VWS V14.01,2013-05-18 08:16:00,
2013-05-18 03:17:00,59.6,53.8,29.85,South,186,60.0,60.0,81,0.01,,---,0.01,VWS V14.01,2013-05-18 08:17:00,
2013-05-18 03:18:00,59.6,53.8,29.85,South,188,60.0,60.0,81,0.01,,---,0.01,VWS V14.01,2013-05-18 08:18:00,
2013-05-18 03:19:00,59.5,53.7,29.85,SSE,165,60.0,60.0,81,0.02,,---,0.02,VWS V14.01,2013-05-18 08:19:00,
2013-05-18 03:20:00,59.5,53.7,29.85,South,175,60.0,60.0,81,0.02,,---,0.02,VWS V14.01,2013-05-18 08:20:00,
2013-05-18 03:21:00,59.5,54.3,29.85,South,169,60.0,60.0,83,0.02,,---,0.02,VWS V14.01,2013-05-18 08:21:00,
2013-05-18 03:22:00,59.5,54.3,29.85,SSE,165,60.0,60.0,83,0.02,,---,0.02,VWS V14.01,2013-05-18 08:22:00,
2013-05-18 03:23:00,59.5,54.3,29.85,SSE,165,60.0,60.0,83,0.03,,---,0.03,VWS V14.01,2013-05-18 08:23:00,
2013-05-18 03:24:00,59.5,54.3,29.85,South,188,60.0,60.0,83,0.03,,---,0.03,VWS V14.01,2013-05-18 08:24:00,
2013-05-18 03:25:00,59.3,54.2,29.85,SSE,165,60.0,60.0,83,0.03,,---,0.03,VWS V14.01,2013-05-18 08:25:00,
2013-05-18 03:26:00,59.3,54.2,29.85,SSE,164,60.0,60.0,83,0.03,,---,0.03,VWS V14.01,2013-05-18 08:26:00,
2013-05-18 03:27:00,59.3,54.2,29.85,SSE,161,60.0,60.0,83,0.03,,---,0.03,VWS V14.01,2013-05-18 08:27:00,
2013-05-18 03:28:00,59.3,54.2,29.85,SSE,158,60.0,60.0,83,0.03,,---,0.03,VWS V14.01,2013-05-18 08:28:00,
2013-05-18 03:29:00,59.3,54.2,29.85,SSE,161,60.0,60.0,83,0.03,,---,0.03,VWS V14.01,2013-05-18 08:29:00,
2013-05-18 03:30:00,59.3,54.2,29.85,SSE,167,60.0,60.0,83,0.03,,---,0.03,VWS V14.01,2013-05-18 08:30:00,
2013-05-18 03:31:00,59.3,53.1,29.85,SSE,158,60.0,60.0,80,0.03,,---,0.03,VWS V14.01,2013-05-18 08:31:00,
2013-05-18 03:32:00,59.3,53.1,29.85,SSE,160,60.0,60.0,80,0.03,,---,0.03,VWS V14.01,2013-05-18 08:32:00,
2013-05-18 03:33:00,59.3,53.1,29.85,SSE,165,60.0,60.0,80,0.03,,---,0.03,VWS V14.01,2013-05-18 08:33:00,
2013-05-18 03:34:00,59.3,53.1,29.85,South,175,60.0,60.0,80,0.03,,---,0.03,VWS V14.01,2013-05-18 08:34:00,
2013-05-18 03:35:00,59.2,53.0,29.85,South,179,60.0,60.0,80,0.06,,---,0.06,VWS V14.01,2013-05-18 08:35:00,
2013-05-18 03:36:00,59.2,53.0,29.85,South,169,60.0,60.0,80,0.06,,---,0.06,VWS V14.01,2013-05-18 08:36:00,
2013-05-18 03:37:00,59.2,53.0,29.85,South,181,60.0,60.0,80,0.07,,---,0.07,VWS V14.01,2013-05-18 08:37:00,
2013-05-18 03:38:00,59.2,55.3,29.85,South,175,60.0,60.0,87,0.07,,---,0.07,VWS V14.01,2013-05-18 08:38:00,
2013-05-18 03:39:00,59.2,55.3,29.85,SSE,164,60.0,60.0,87,0.08,,---,0.08,VWS V14.01,2013-05-18 08:39:00,
2013-05-18 03:40:00,59.2,55.3,29.85,SSE,157,60.0,60.0,87,0.09,,---,0.09,VWS V14.01,2013-05-18 08:40:00,
2013-05-18 03:41:00,59.2,55.3,29.85,SSE,160,60.0,60.0,87,0.09,,---,0.09,VWS V14.01,2013-05-18 08:41:00,
2013-05-18 03:42:00,59.2,55.3,29.85,SSE,162,60.0,60.0,87,0.10,,---,0.10,VWS V14.01,2013-05-18 08:42:00,
2013-05-18 03:43:00,59.2,55.3,29.85,SSE,167,60.0,60.0,87,0.11,,---,0.11,VWS V14.01,2013-05-18 08:43:00,
2013-05-18 03:44:00,59.2,55.7,29.86,SSE,158,60.0,60.0,88,0.12,,---,0.12,VWS V14.01,2013-05-18 08:44:00,
2013-05-18 03:45:00,59.2,55.7,29.86,South,171,60.0,60.0,88,0.12,,---,0.12,VWS V14.01,2013-05-18 08:45:00,
2013-05-18 03:46:00,59.2,55.7,29.86,South,169,60.0,60.0,88,0.13,,---,0.13,VWS V14.01,2013-05-18 08:46:00,
2013-05-18 03:47:00,59.2,55.7,29.86,South,172,60.0,60.0,88,0.14,,---,0.14,VWS V14.01,2013-05-18 08:47:00,
2013-05-18 03:48:00,59.2,55.7,29.86,South,176,60.0,60.0,88,0.14,,---,0.14,VWS V14.01,2013-05-18 08:48:00,
2013-05-18 03:49:00,59.2,55.7,29.86,South,174,60.0,60.0,88,0.14,,---,0.14,VWS V14.01,2013-05-18 08:49:00,
2013-05-18 03:50:00,59.0,55.8,29.86,SSE,160,60.0,60.0,89,0.14,,---,0.14,VWS V14.01,2013-05-18 08:50:00,
2013-05-18 03:51:00,59.0,55.8,29.86,SSW,192,60.0,60.0,89,0.15,,---,0.15,VWS V14.01,2013-05-18 08:51:00,
2013-05-18 03:52:00,59.0,55.8,29.86,South,174,60.0,60.0,89,0.15,,---,0.15,VWS V14.01,2013-05-18 08:52:00,
2013-05-18 03:53:00,59.0,55.8,29.86,SSE,164,60.0,60.0,89,0.15,,---,0.15,VWS V14.01,2013-05-18 08:53:00,
2013-05-18 03:54:00,59.0,55.8,29.86,SSE,165,60.0,60.0,89,0.16,,---,0.16,VWS V14.01,2013-05-18 08:54:00,
2013-05-18 03:55:00,59.0,55.8,29.86,SSE,157,60.0,60.0,89,0.16,,---,0.16,VWS V14.01,2013-05-18 08:55:00,
2013-05-18 03:56:00,59.0,55.8,29.86,SSE,162,60.0,60.0,89,0.16,,---,0.16,VWS V14.01,2013-05-18 08:56:00,
2013-05-18 03:57:00,59.0,55.8,29.86,SSE,167,60.0,60.0,89,0.16,,---,0.16,VWS V14.01,2013-05-18 08:57:00,
2013-05-18 03:58:00,59.0,55.8,29.86,SSE,168,60.0,60.0,89,0.17,,---,0.17,VWS V14.01,2013-05-18 08:58:00,
2013-05-18 03:59:00,58.9,56.6,29.84,SSE,162,60.0,60.0,92,0.17,,---,0.17,VWS V14.01,2013-05-18 08:59:00,
2013-05-18 04:00:00,58.9,55.7,29.84,SSE,168,60.0,60.0,89,0.17,,---,0.17,VWS V14.01,2013-05-18 09:00:00,
2013-05-18 04:01:00,59.0,55.8,29.84,South,171,60.0,60.0,89,0.16,,---,0.17,VWS V14.01,2013-05-18 09:01:00,
2013-05-18 04:02:00,59.0,55.8,29.84,South,169,60.0,60.0,89,0.16,,---,0.17,VWS V14.01,2013-05-18 09:02:00,
2013-05-18 04:03:00,59.0,56.7,29.84,SSE,155,60.0,60.0,92,0.16,,---,0.17,VWS V14.01,2013-05-18 09:03:00,
2013-05-18 04:04:00,58.9,55.7,29.84,SSE,154,60.0,60.0,89,0.16,,---,0.17,VWS V14.01,2013-05-18 09:04:00,
2013-05-18 04:05:00,58.9,55.7,29.84,SSE,150,60.0,60.0,89,0.17,,---,0.18,VWS V14.01,2013-05-18 09:05:00,
2013-05-18 04:06:00,58.9,55.7,29.84,SSE,151,60.0,60.0,89,0.17,,---,0.18,VWS V14.01,2013-05-18 09:06:00,
2013-05-18 04:07:00,58.9,55.7,29.84,SE,141,60.0,60.0,89,0.17,,---,0.18,VWS V14.01,2013-05-18 09:07:00,
2013-05-18 04:08:00,58.9,55.7,29.84,SSE,147,60.0,60.0,89,0.17,,---,0.18,VWS V14.01,2013-05-18 09:08:00,
2013-05-18 04:09:00,58.9,55.4,29.84,East,90,60.0,60.0,88,0.18,,---,0.19,VWS V14.01,2013-05-18 09:09:00,
2013-05-18 04:10:00,58.9,55.7,29.84,East,96,60.0,60.0,89,0.18,,---,0.19,VWS V14.01,2013-05-18 09:10:00,
2013-05-18 04:11:00,58.9,55.7,29.84,East,89,60.0,60.0,89,0.18,,---,0.19,VWS V14.01,2013-05-18 09:11:00,
2013-05-18 04:12:00,58.9,55.7,29.84,East,99,60.0,60.0,89,0.19,,---,0.20,VWS V14.01,2013-05-18 09:12:00,
2013-05-18 04:13:00,58.9,55.7,29.84,East,99,60.0,60.0,89,0.19,,---,0.20,VWS V14.01,2013-05-18 09:13:00,
2013-05-18 04:14:00,58.9,56.9,29.84,East,99,60.0,60.0,93,0.19,,---,0.20,VWS V14.01,2013-05-18 09:14:00,
2013-05-18 04:15:00,58.9,56.0,29.84,East,90,60.0,60.0,90,0.20,,---,0.21,VWS V14.01,2013-05-18 09:15:00,
2013-05-18 04:16:00,58.7,55.5,29.84,East,90,60.0,60.0,89,0.20,,---,0.21,VWS V14.01,2013-05-18 09:16:00,
2013-05-18 04:17:00,58.7,55.8,29.84,East,90,60.0,60.0,90,0.20,,---,0.21,VWS V14.01,2013-05-18 09:17:00,
2013-05-18 04:18:00,58.7,55.8,29.84,East,92,60.0,60.0,90,0.20,,---,0.21,VWS V14.01,2013-05-18 09:18:00,
2013-05-18 04:19:00,58.9,56.0,29.84,East,99,60.0,60.0,90,0.20,,---,0.21,VWS V14.01,2013-05-18 09:19:00,
2013-05-18 04:20:00,58.7,57.0,29.84,East,90,60.0,60.0,94,0.20,,---,0.21,VWS V14.01,2013-05-18 09:20:00,
2013-05-18 04:21:00,58.9,56.0,29.84,East,99,60.0,60.0,90,0.20,,---,0.21,VWS V14.01,2013-05-18 09:21:00,
2013-05-18 04:22:00,58.9,56.0,29.84,East,99,60.0,60.0,90,0.20,,---,0.21,VWS V14.01,2013-05-18 09:22:00,
2013-05-18 04:23:00,58.9,56.0,29.84,East,99,60.0,60.0,90,0.20,,---,0.21,VWS V14.01,2013-05-18 09:23:00,
2013-05-18 04:24:00,58.9,56.0,29.84,East,89,60.0,60.0,90,0.20,,---,0.21,VWS V14.01,2013-05-18 09:24:00,
2013-05-18 04:25:00,58.9,56.0,29.84,East,93,60.0,60.0,90,0.21,,---,0.22,VWS V14.01,2013-05-18 09:25:00,
2013-05-18 04:26:00,58.9,56.0,29.84,East,88,60.0,60.0,90,0.21,,---,0.22,VWS V14.01,2013-05-18 09:26:00,
2013-05-18 04:27:00,58.9,56.0,29.84,East,95,60.0,60.0,90,0.21,,---,0.22,VWS V14.01,2013-05-18 09:27:00,
2013-05-18 04:28:00,58.9,56.0,29.84,East,90,60.0,60.0,90,0.21,,---,0.22,VWS V14.01,2013-05-18 09:28:00,
2013-05-18 04:29:00,58.9,56.0,29.84,East,90,60.0,60.0,90,0.21,,---,0.22,VWS V14.01,2013-05-18 09:29:00,
2013-05-18 04:30:00,58.9,56.0,29.83,East,99,60.0,60.0,90,0.21,,---,0.22,VWS V14.01,2013-05-18 09:30:00,
2013-05-18 04:31:00,58.9,56.0,29.83,East,100,60.0,60.0,90,0.19,,---,0.22,VWS V14.01,2013-05-18 09:31:00,
2013-05-18 04:32:00,58.9,56.0,29.83,East,99,60.0,60.0,90,0.19,,---,0.22,VWS V14.01,2013-05-18 09:32:00,
2013-05-18 04:33:00,58.7,55.8,29.83,East,89,60.0,60.0,90,0.19,,---,0.22,VWS V14.01,2013-05-18 09:33:00,
2013-05-18 04:34:00,58.7,55.8,29.83,East,88,60.0,60.0,90,0.19,,---,0.22,VWS V14.01,2013-05-18 09:34:00,
2013-05-18 04:35:00,58.7,55.8,29.83,East,90,60.0,60.0,90,0.19,,---,0.22,VWS V14.01,2013-05-18 09:35:00,
2013-05-18 04:36:00,58.7,55.8,29.83,East,90,60.0,60.0,90,0.19,,---,0.22,VWS V14.01,2013-05-18 09:36:00,
2013-05-18 04:37:00,58.7,55.8,29.83,East,83,60.0,60.0,90,0.19,,---,0.22,VWS V14.01,2013-05-18 09:37:00,
2013-05-18 04:38:00,58.7,55.8,29.83,East,88,60.0,60.0,90,0.19,,---,0.22,VWS V14.01,2013-05-18 09:38:00,
2013-05-18 04:39:00,58.7,57.0,29.83,East,79,60.0,60.0,94,0.19,,---,0.22,VWS V14.01,2013-05-18 09:39:00,
2013-05-18 04:40:00,58.7,55.8,29.83,East,89,60.0,60.0,90,0.19,,---,0.22,VWS V14.01,2013-05-18 09:40:00,
2013-05-18 04:41:00,58.7,55.8,29.83,East,89,60.0,60.0,90,0.19,,---,0.22,VWS V14.01,2013-05-18 09:41:00,
2013-05-18 04:42:00,58.7,55.8,29.83,East,79,60.0,60.0,90,0.19,,---,0.22,VWS V14.01,2013-05-18 09:42:00,
2013-05-18 04:43:00,58.6,55.7,29.83,East,79,60.0,60.0,90,0.19,,---,0.22,VWS V14.01,2013-05-18 09:43:00,
2013-05-18 04:44:00,58.7,55.8,29.83,East,86,60.0,60.0,90,0.19,,---,0.22,VWS V14.01,2013-05-18 09:44:00,
2013-05-18 04:45:00,58.6,55.7,29.83,East,85,60.0,60.0,90,0.19,,---,0.22,VWS V14.01,2013-05-18 09:45:00,
2013-05-18 04:46:00,58.6,55.7,29.83,East,90,60.0,60.0,90,0.19,,---,0.22,VWS V14.01,2013-05-18 09:46:00,
2013-05-18 04:47:00,58.6,56.0,29.83,East,86,60.0,60.0,91,0.19,,---,0.22,VWS V14.01,2013-05-18 09:47:00,
2013-05-18 04:48:00,58.6,55.7,29.83,East,89,60.0,60.0,90,0.19,,---,0.22,VWS V14.01,2013-05-18 09:48:00,
2013-05-18 04:49:00,58.6,55.7,29.83,East,85,60.0,60.0,90,0.19,,---,0.22,VWS V14.01,2013-05-18 09:49:00,
2013-05-18 04:50:00,58.6,55.7,29.83,East,83,60.0,60.0,90,0.19,,---,0.22,VWS V14.01,2013-05-18 09:50:00,
2013-05-18 04:51:00,58.6,55.7,29.83,East,92,60.0,60.0,90,0.19,,---,0.22,VWS V14.01,2013-05-18 09:51:00,
2013-05-18 04:52:00,58.6,56.6,29.83,East,85,60.0,60.0,93,0.19,,---,0.22,VWS V14.01,2013-05-18 09:52:00,
2013-05-18 04:53:00,58.6,55.4,29.83,East,92,60.0,60.0,89,0.19,,---,0.22,VWS V14.01,2013-05-18 09:53:00,
2013-05-18 04:54:00,58.6,56.6,29.83,East,97,60.0,60.0,93,0.19,,---,0.22,VWS V14.01,2013-05-18 09:54:00,
2013-05-18 04:55:00,58.6,55.7,29.83,East,96,60.0,60.0,90,0.19,,---,0.22,VWS V14.01,2013-05-18 09:55:00,
2013-05-18 04:56:00,58.4,55.5,29.83,East,95,60.0,60.0,90,0.19,,---,0.22,VWS V14.01,2013-05-18 09:56:00,
2013-05-18 04:57:00,58.4,55.5,29.83,East,88,60.0,60.0,90,0.19,,---,0.22,VWS V14.01,2013-05-18 09:57:00,
2013-05-18 04:58:00,58.6,55.7,29.83,East,96,60.0,60.0,90,0.19,,---,0.22,VWS V14.01,2013-05-18 09:58:00,
2013-05-18 04:59:00,58.6,55.7,29.82,East,95,60.0,60.0,90,0.19,,---,0.22,VWS V14.01,2013-05-18 09:59:00,
2013-05-18 05:00:00,58.6,54.8,29.82,East,92,60.0,60.0,87,0.19,,---,0.22,VWS V14.01,2013-05-18 10:00:00,
2013-05-18 05:01:00,58.6,55.1,29.82,East,82,60.0,60.0,88,0.05,,---,0.22,VWS V14.01,2013-05-18 10:01:00,
2013-05-18 05:02:00,58.4,55.5,29.82,East,92,60.0,60.0,90,0.05,,---,0.22,VWS V14.01,2013-05-18 10:02:00,
2013-05-18 05:03:00,58.4,55.5,29.82,East,90,60.0,60.0,90,0.05,,---,0.22,VWS V14.01,2013-05-18 10:03:00,
2013-05-18 05:04:00,58.4,55.5,29.82,East,82,60.0,60.0,90,0.05,,---,0.22,VWS V14.01,2013-05-18 10:04:00,
2013-05-18 05:05:00,58.6,55.7,29.82,East,92,60.0,60.0,90,0.05,,---,0.22,VWS V14.01,2013-05-18 10:05:00,
2013-05-18 05:06:00,58.4,55.5,29.82,East,90,60.0,60.0,90,0.05,,---,0.22,VWS V14.01,2013-05-18 10:06:00,
2013-05-18 05:07:00,58.4,55.5,29.82,East,92,60.0,60.0,90,0.05,,---,0.22,VWS V14.01,2013-05-18 10:07:00,
2013-05-18 05:08:00,58.3,55.4,29.82,East,82,60.0,60.0,90,0.05,,---,0.22,VWS V14.01,2013-05-18 10:08:00,
2013-05-18 05:09:00,58.3,55.4,29.82,East,80,60.0,60.0,90,0.05,,---,0.22,VWS V14.01,2013-05-18 10:09:00,
2013-05-18 05:10:00,58.3,55.4,29.82,East,83,60.0,60.0,90,0.05,,---,0.22,VWS V14.01,2013-05-18 10:10:00,
2013-05-18 05:11:00,58.3,55.4,29.82,ENE,75,60.0,60.0,90,0.05,,---,0.22,VWS V14.01,2013-05-18 10:11:00,
2013-05-18 05:12:00,58.3,55.4,29.82,East,85,60.0,60.0,90,0.05,,---,0.22,VWS V14.01,2013-05-18 10:12:00,
2013-05-18 05:13:00,58.3,55.4,29.82,NE,45,60.0,60.0,90,0.05,,---,0.22,VWS V14.01,2013-05-18 10:13:00,
2013-05-18 05:14:00,58.3,55.4,29.82,NE,40,60.0,60.0,90,0.05,,---,0.22,VWS V14.01,2013-05-18 10:14:00,
2013-05-18 05:15:00,58.3,55.4,29.81,NE,47,60.0,60.0,90,0.05,,---,0.22,VWS V14.01,2013-05-18 10:15:00,
2013-05-18 05:16:00,58.1,55.2,29.81,ENE,75,60.0,60.0,90,0.05,,---,0.22,VWS V14.01,2013-05-18 10:16:00,
2013-05-18 05:18:00,58.1,55.2,29.81,ENE,75,60.0,60.0,90,0.05,,---,0.22,VWS V14.01,2013-05-18 10:18:00,
2013-05-18 05:19:00,58.3,55.4,29.81,East,79,60.0,60.0,90,0.05,,---,0.22,VWS V14.01,2013-05-18 10:19:00,
2013-05-18 05:20:00,58.1,55.2,29.81,ENE,73,60.0,60.0,90,0.05,,---,0.22,VWS V14.01,2013-05-18 10:20:00,
2013-05-18 05:21:00,58.1,55.2,29.81,East,79,60.0,60.0,90,0.05,,---,0.22,VWS V14.01,2013-05-18 10:21:00,
2013-05-18 05:22:00,58.1,55.2,29.81,ENE,71,60.0,60.0,90,0.05,,---,0.22,VWS V14.01,2013-05-18 10:22:00,
2013-05-18 05:23:00,58.1,55.2,29.81,ENE,76,60.0,60.0,90,0.05,,---,0.22,VWS V14.01,2013-05-18 10:23:00,
2013-05-18 05:24:00,58.3,55.4,29.81,East,92,60.0,60.0,90,0.05,,---,0.22,VWS V14.01,2013-05-18 10:24:00,
2013-05-18 05:25:00,58.3,55.4,29.81,East,97,60.0,60.0,90,0.05,,---,0.22,VWS V14.01,2013-05-18 10:25:00,
2013-05-18 05:26:00,58.3,55.4,29.81,ESE,102,60.0,60.0,90,0.05,,---,0.22,VWS V14.01,2013-05-18 10:26:00,
2013-05-18 05:27:00,58.3,55.4,29.81,East,96,60.0,60.0,90,0.05,,---,0.22,VWS V14.01,2013-05-18 10:27:00,
2013-05-18 05:28:00,58.3,55.4,29.81,SSE,148,60.0,60.0,90,0.05,,---,0.22,VWS V14.01,2013-05-18 10:28:00,
2013-05-18 05:29:00,58.3,56.0,29.81,SE,136,60.0,60.0,92,0.05,,---,0.22,VWS V14.01,2013-05-18 10:29:00,
2013-05-18 05:30:00,58.3,55.4,29.84,SE,136,60.0,60.0,90,0.05,,---,0.22,VWS V14.01,2013-05-18 10:30:00,
2013-05-18 05:31:00,58.3,55.4,29.84,SE,144,60.0,60.0,90,0.01,,---,0.23,VWS V14.01,2013-05-18 10:31:00,
2013-05-18 05:32:00,58.3,55.4,29.84,SE,138,60.0,60.0,90,0.04,,---,0.26,VWS V14.01,2013-05-18 10:32:00,
2013-05-18 05:33:00,58.3,55.4,29.84,SE,136,60.0,60.0,90,0.05,,---,0.27,VWS V14.01,2013-05-18 10:33:00,
2013-05-18 05:34:00,58.3,55.4,29.84,SE,145,60.0,60.0,90,0.05,,---,0.27,VWS V14.01,2013-05-18 10:34:00,
2013-05-18 05:35:00,58.3,55.4,29.84,SE,136,60.0,60.0,90,0.05,,---,0.27,VWS V14.01,2013-05-18 10:35:00,
2013-05-18 05:36:00,58.3,55.4,29.84,SSE,148,60.0,60.0,90,0.05,,---,0.27,VWS V14.01,2013-05-18 10:36:00,
2013-05-18 05:37:00,58.3,55.4,29.84,SE,145,60.0,60.0,90,0.05,,---,0.27,VWS V14.01,2013-05-18 10:37:00,
2013-05-18 05:38:00,58.3,55.4,29.84,SSE,148,60.0,60.0,90,0.05,,---,0.27,VWS V14.01,2013-05-18 10:38:00,
2013-05-18 05:39:00,58.3,55.4,29.84,SSE,148,60.0,60.0,90,0.05,,---,0.27,VWS V14.01,2013-05-18 10:39:00,
2013-05-18 05:40:00,58.3,55.4,29.84,SE,140,60.0,60.0,90,0.05,,---,0.27,VWS V14.01,2013-05-18 10:40:00,
2013-05-18 05:41:00,58.3,55.4,29.84,SSE,148,60.0,60.0,90,0.05,,---,0.27,VWS V14.01,2013-05-18 10:41:00,
2013-05-18 05:42:00,58.3,55.7,29.84,SSE,148,60.0,60.0,91,0.09,,---,0.31,VWS V14.01,2013-05-18 10:42:00,
2013-05-18 05:43:00,58.3,55.7,29.84,SE,136,60.0,60.0,91,0.11,,---,0.33,VWS V14.01,2013-05-18 10:43:00,
2013-05-18 05:44:00,58.3,55.7,29.83,SE,145,60.0,60.0,91,0.13,,---,0.35,VWS V14.01,2013-05-18 10:44:00,
2013-05-18 05:45:00,58.3,55.7,29.83,SSE,150,60.0,60.0,91,0.15,,---,0.37,VWS V14.01,2013-05-18 10:45:00,
2013-05-18 05:46:00,58.3,56.0,29.83,SSE,148,60.0,60.0,92,0.17,,---,0.39,VWS V14.01,2013-05-18 10:46:00,
2013-05-18 05:47:00,58.3,55.7,29.83,SE,136,60.0,60.0,91,0.17,,---,0.39,VWS V14.01,2013-05-18 10:47:00,
2013-05-18 05:48:00,58.3,55.4,29.83,SE,136,60.0,60.0,90,0.21,,---,0.43,VWS V14.01,2013-05-18 10:48:00,
2013-05-18 05:49:00,58.3,55.7,29.83,SSE,150,60.0,60.0,91,0.23,,---,0.45,VWS V14.01,2013-05-18 10:49:00,
2013-05-18 05:50:00,58.3,55.7,29.83,SSE,147,60.0,60.0,91,0.25,,---,0.47,VWS V14.01,2013-05-18 10:50:00,
2013-05-18 05:51:00,58.3,55.7,29.83,SE,136,60.0,60.0,91,0.25,,---,0.47,VWS V14.01,2013-05-18 10:51:00,
2013-05-18 05:52:00,58.3,55.7,29.83,SSE,150,60.0,60.0,91,0.25,,---,0.47,VWS V14.01,2013-05-18 10:52:00,
2013-05-18 05:53:00,58.3,55.7,29.83,SE,138,60.0,60.0,91,0.25,,---,0.47,VWS V14.01,2013-05-18 10:53:00,
2013-05-18 05:55:00,58.3,55.7,29.83,ESE,119,60.0,60.0,91,0.27,,---,0.49,VWS V14.01,2013-05-18 10:55:00,
2013-05-18 05:56:00,58.3,55.7,29.83,East,97,60.0,60.0,91,0.27,,---,0.49,VWS V14.01,2013-05-18 10:56:00,
2013-05-18 05:57:00,58.3,55.7,29.83,East,89,60.0,60.0,91,0.27,,---,0.49,VWS V14.01,2013-05-18 10:57:00,
2013-05-18 05:58:00,58.3,55.7,29.83,East,95,60.0,60.0,91,0.27,,---,0.49,VWS V14.01,2013-05-18 10:58:00,
2013-05-18 05:59:00,58.3,55.7,29.83,East,89,60.0,60.0,91,0.27,,---,0.49,VWS V14.01,2013-05-18 10:59:00,
2013-05-18 06:00:00,58.3,55.7,29.83,East,95,60.0,60.0,91,0.27,,---,0.49,VWS V14.01,2013-05-18 11:00:00,
2013-05-18 06:01:00,58.1,55.5,29.83,East,96,60.0,60.0,91,0.27,,---,0.49,VWS V14.01,2013-05-18 11:01:00,
2013-05-18 06:02:00,58.1,55.5,29.83,East,86,60.0,60.0,91,0.27,,---,0.49,VWS V14.01,2013-05-18 11:02:00,
2013-05-18 06:03:00,58.3,55.7,29.83,East,97,60.0,60.0,91,0.28,,---,0.50,VWS V14.01,2013-05-18 11:03:00,
2013-05-18 06:04:00,58.3,55.7,29.83,East,95,60.0,60.0,91,0.28,,---,0.50,VWS V14.01,2013-05-18 11:04:00,
2013-05-18 06:05:00,58.3,55.7,29.83,East,97,60.0,60.0,91,0.28,,---,0.50,VWS V14.01,2013-05-18 11:05:00,
2013-05-18 06:06:00,58.1,55.5,29.83,East,95,60.0,60.0,91,0.28,,---,0.50,VWS V14.01,2013-05-18 11:06:00,
2013-05-18 06:07:00,58.1,55.5,29.83,ESE,104,60.0,60.0,91,0.28,,---,0.50,VWS V14.01,2013-05-18 11:07:00,
2013-05-18 06:08:00,58.1,55.5,29.83,ESE,103,60.0,60.0,91,0.28,,---,0.50,VWS V14.01,2013-05-18 11:08:00,
2013-05-18 06:09:00,58.1,55.8,29.83,ESE,103,60.0,60.0,92,0.28,,---,0.50,VWS V14.01,2013-05-18 11:09:00,
2013-05-18 06:10:00,58.1,55.5,29.83,East,100,60.0,60.0,91,0.28,,---,0.50,VWS V14.01,2013-05-18 11:10:00,
2013-05-18 06:11:00,58.1,55.5,29.83,SSE,167,60.0,60.0,91,0.28,,---,0.50,VWS V14.01,2013-05-18 11:11:00,
2013-05-18 06:12:00,58.1,55.5,29.83,SSE,158,60.0,60.0,91,0.28,,---,0.50,VWS V14.01,2013-05-18 11:12:00,
2013-05-18 06:13:00,58.3,54.5,29.83,SSE,165,60.0,60.0,87,0.28,,---,0.50,VWS V14.01,2013-05-18 11:13:00,
2013-05-18 06:14:00,58.3,55.7,29.85,South,178,60.0,60.0,91,0.28,,---,0.50,VWS V14.01,2013-05-18 11:14:00,
2013-05-18 06:15:00,58.3,55.7,29.85,South,181,60.0,60.0,91,0.29,,---,0.51,VWS V14.01,2013-05-18 11:15:00,
2013-05-18 06:16:00,58.3,55.7,29.85,SSE,168,60.0,60.0,91,0.29,,---,0.51,VWS V14.01,2013-05-18 11:16:00,
2013-05-18 06:17:00,58.3,55.7,29.85,SSE,165,60.0,60.0,91,0.29,,---,0.51,VWS V14.01,2013-05-18 11:17:00,
2013-05-18 06:18:00,58.3,55.7,29.85,SSE,164,60.0,60.0,91,0.29,,---,0.51,VWS V14.01,2013-05-18 11:18:00,
2013-05-18 06:19:00,58.3,55.4,29.85,South,178,60.0,60.0,90,0.29,,---,0.51,VWS V14.01,2013-05-18 11:19:00,
2013-05-18 06:20:00,58.3,55.1,29.85,South,175,60.0,60.0,89,0.29,,---,0.51,VWS V14.01,2013-05-18 11:20:00,
2013-05-18 06:21:00,58.3,55.7,29.85,SSE,158,60.0,60.0,91,0.29,,---,0.51,VWS V14.01,2013-05-18 11:21:00,
2013-05-18 06:22:00,58.3,55.1,29.85,SSE,157,60.0,60.0,89,0.30,,---,0.52,VWS V14.01,2013-05-18 11:22:00,
2013-05-18 06:23:00,58.3,55.7,29.85,SSE,148,60.0,60.0,91,0.30,,---,0.52,VWS V14.01,2013-05-18 11:23:00,
2013-05-18 06:24:00,58.3,56.6,29.85,SSE,148,60.0,60.0,94,0.30,,---,0.52,VWS V14.01,2013-05-18 11:24:00,
2013-05-18 06:25:00,58.3,55.7,29.85,SSE,151,60.0,60.0,91,0.30,,---,0.52,VWS V14.01,2013-05-18 11:25:00,
2013-05-18 06:26:00,58.3,55.7,29.85,SSE,152,60.0,60.0,91,0.30,,---,0.52,VWS V14.01,2013-05-18 11:26:00,
2013-05-18 06:27:00,58.3,55.7,29.85,SSE,161,60.0,60.0,91,0.30,,---,0.52,VWS V14.01,2013-05-18 11:27:00,
2013-05-18 06:28:00,58.3,55.7,29.85,SSE,161,60.0,60.0,91,0.30,,---,0.52,VWS V14.01,2013-05-18 11:28:00,
2013-05-18 06:29:00,58.3,55.7,29.85,SSE,160,60.0,60.0,91,0.30,,---,0.52,VWS V14.01,2013-05-18 11:29:00,
2013-05-18 06:30:00,58.3,55.7,29.84,SSE,157,60.0,60.0,91,0.30,,---,0.52,VWS V14.01,2013-05-18 11:30:00,
2013-05-18 06:31:00,58.1,56.1,29.84,SE,137,60.0,60.0,93,0.30,,---,0.52,VWS V14.01,2013-05-18 11:31:00,
2013-05-18 06:32:00,58.1,55.5,29.84,SSE,158,60.0,60.0,91,0.30,,---,0.52,VWS V14.01,2013-05-18 11:32:00,
2013-05-18 06:33:00,58.3,55.7,29.84,SSE,164,60.0,60.0,91,0.30,,---,0.52,VWS V14.01,2013-05-18 11:33:00,
2013-05-18 06:34:00,58.1,55.5,29.84,SSE,160,60.0,60.0,91,0.30,,---,0.52,VWS V14.01,2013-05-18 11:34:00,
2013-05-18 06:35:00,58.1,55.8,29.84,SSE,165,60.0,60.0,92,0.30,,---,0.52,VWS V14.01,2013-05-18 11:35:00,
2013-05-18 06:36:00,58.1,55.5,29.84,South,171,60.0,60.0,91,0.30,,---,0.52,VWS V14.01,2013-05-18 11:36:00,
2013-05-18 06:37:00,58.1,54.3,29.84,SSE,151,60.0,60.0,87,0.30,,---,0.52,VWS V14.01,2013-05-18 11:37:00,
2013-05-18 06:38:00,58.1,54.3,29.84,SSE,164,60.0,60.0,87,0.30,,---,0.52,VWS V14.01,2013-05-18 11:38:00,
2013-05-18 06:39:00,58.1,55.5,29.84,SSE,152,60.0,60.0,91,0.30,,---,0.52,VWS V14.01,2013-05-18 11:39:00,
2013-05-18 06:40:00,58.1,55.5,29.84,SSE,160,60.0,60.0,91,0.30,,---,0.52,VWS V14.01,2013-05-18 11:40:00,
2013-05-18 06:41:00,58.1,55.5,29.84,SSE,165,60.0,60.0,91,0.30,,---,0.52,VWS V14.01,2013-05-18 11:41:00,
2013-05-18 06:43:00,58.1,55.5,29.84,SSE,152,60.0,60.0,91,0.31,,---,0.53,VWS V14.01,2013-05-18 11:43:00,
2013-05-18 06:44:00,58.1,55.5,29.84,SSW,202,60.0,60.0,91,0.31,,---,0.53,VWS V14.01,2013-05-18 11:44:00,
2013-05-18 06:45:00,58.1,56.7,29.84,SSE,147,60.0,60.0,95,0.31,,---,0.53,VWS V14.01,2013-05-18 11:45:00,
2013-05-18 06:46:00,58.1,55.5,29.84,South,189,60.0,60.0,91,0.33,,---,0.55,VWS V14.01,2013-05-18 11:46:00,
2013-05-18 06:47:00,58.1,54.9,29.84,South,179,60.0,60.0,89,0.33,,---,0.55,VWS V14.01,2013-05-18 11:47:00,
2013-05-18 06:48:00,58.3,55.7,29.84,SSE,158,60.0,60.0,91,0.33,,---,0.55,VWS V14.01,2013-05-18 11:48:00,
2013-05-18 06:49:00,58.1,55.5,29.84,SSE,162,60.0,60.0,91,0.33,,---,0.55,VWS V14.01,2013-05-18 11:49:00,
2013-05-18 06:50:00,58.1,55.5,29.84,ESE,120,60.0,60.0,91,0.33,,---,0.55,VWS V14.01,2013-05-18 11:50:00,
2013-05-18 06:51:00,58.1,55.5,29.84,SE,144,60.0,60.0,91,0.33,,---,0.55,VWS V14.01,2013-05-18 11:51:00,
2013-05-18 06:52:00,58.1,55.5,29.84,SE,144,60.0,60.0,91,0.33,,---,0.55,VWS V14.01,2013-05-18 11:52:00,
2013-05-18 06:53:00,58.1,55.2,29.84,SSE,154,60.0,60.0,90,0.33,,---,0.55,VWS V14.01,2013-05-18 11:53:00,
2013-05-18 06:54:00,58.3,55.7,29.84,SSE,152,60.0,60.0,91,0.33,,---,0.55,VWS V14.01,2013-05-18 11:54:00,
2013-05-18 06:55:00,58.1,55.5,29.84,SSE,162,60.0,60.0,91,0.33,,---,0.55,VWS V14.01,2013-05-18 11:55:00,
2013-05-18 06:56:00,58.3,55.7,29.84,SSE,154,60.0,60.0,91,0.33,,---,0.55,VWS V14.01,2013-05-18 11:56:00,
2013-05-18 06:57:00,58.3,55.7,29.84,ESE,113,60.0,60.0,91,0.33,,---,0.55,VWS V14.01,2013-05-18 11:57:00,
2013-05-18 06:58:00,58.3,55.4,29.84,ESE,116,60.0,60.0,90,0.33,,---,0.55,VWS V14.01,2013-05-18 11:58:00,
2013-05-18 06:59:00,58.3,56.0,29.83,East,79,60.0,60.0,92,0.33,,---,0.55,VWS V14.01,2013-05-18 11:59:00,
2013-05-18 07:00:00,58.3,55.4,29.83,ENE,78,60.0,60.0,90,0.33,,---,0.55,VWS V14.01,2013-05-18 12:00:00,
2013-05-18 07:01:00,58.3,55.4,29.83,ESE,123,60.0,60.0,90,0.06,,---,0.55,VWS V14.01,2013-05-18 12:01:00,
2013-05-18 07:02:00,58.3,55.4,29.83,SSE,162,60.0,60.0,90,0.06,,---,0.55,VWS V14.01,2013-05-18 12:02:00,
2013-05-18 07:03:00,58.3,55.7,29.83,SSE,154,60.0,60.0,91,0.06,,---,0.55,VWS V14.01,2013-05-18 12:03:00,
2013-05-18 07:04:00,58.3,55.4,29.83,SSE,148,60.0,60.0,90,0.06,,---,0.55,VWS V14.01,2013-05-18 12:04:00,
2013-05-18 07:05:00,58.3,55.4,29.83,SSE,152,60.0,60.0,90,0.06,,---,0.55,VWS V14.01,2013-05-18 12:05:00,
2013-05-18 07:06:00,58.3,55.4,29.83,South,169,60.0,60.0,90,0.06,,---,0.55,VWS V14.01,2013-05-18 12:06:00,
2013-05-18 07:07:00,58.3,55.4,29.83,SE,126,60.0,60.0,90,0.06,,---,0.55,VWS V14.01,2013-05-18 12:07:00,
2013-05-18 07:08:00,58.4,55.5,29.83,ESE,121,60.0,60.0,90,0.07,,---,0.56,VWS V14.01,2013-05-18 12:08:00,
2013-05-18 07:09:00,58.3,56.0,29.83,SE,124,60.0,60.0,92,0.07,,---,0.56,VWS V14.01,2013-05-18 12:09:00,
2013-05-18 07:10:00,58.3,55.4,29.83,ESE,120,60.0,60.0,90,0.07,,---,0.56,VWS V14.01,2013-05-18 12:10:00,
2013-05-18 07:11:00,58.4,55.8,29.83,ESE,112,60.0,60.0,91,0.07,,---,0.56,VWS V14.01,2013-05-18 12:11:00,
2013-05-18 07:12:00,58.4,55.8,29.83,ESE,116,60.0,60.0,91,0.07,,---,0.56,VWS V14.01,2013-05-18 12:12:00,
2013-05-18 07:13:00,58.4,55.5,29.83,ESE,112,60.0,60.0,90,0.07,,---,0.56,VWS V14.01,2013-05-18 12:13:00,
2013-05-18 07:14:00,58.4,55.5,29.83,ESE,119,60.0,60.0,90,0.07,,---,0.56,VWS V14.01,2013-05-18 12:14:00,
2013-05-18 07:15:00,58.4,55.5,29.83,ESE,121,60.0,60.0,90,0.07,,---,0.56,VWS V14.01,2013-05-18 12:15:00,
2013-05-18 07:16:00,58.4,55.5,29.83,ESE,114,60.0,60.0,90,0.07,,---,0.56,VWS V14.01,2013-05-18 12:16:00,
2013-05-18 07:17:00,58.4,55.5,29.83,ESE,113,60.0,60.0,90,0.09,,---,0.58,VWS V14.01,2013-05-18 12:17:00,
2013-05-18 07:18:00,58.4,55.5,29.83,ESE,113,60.0,60.0,90,0.09,,---,0.58,VWS V14.01,2013-05-18 12:18:00,
2013-05-18 07:19:00,58.4,55.5,29.83,ESE,106,60.0,60.0,90,0.09,,---,0.58,VWS V14.01,2013-05-18 12:19:00,
2013-05-18 07:20:00,58.4,55.5,29.83,ESE,107,60.0,60.0,90,0.09,,---,0.58,VWS V14.01,2013-05-18 12:20:00,
2013-05-18 07:21:00,58.4,55.8,29.83,ESE,110,60.0,60.0,91,0.10,,---,0.59,VWS V14.01,2013-05-18 12:21:00,
2013-05-18 07:22:00,58.6,56.0,29.83,ESE,110,60.0,60.0,91,0.10,,---,0.59,VWS V14.01,2013-05-18 12:22:00,
2013-05-18 07:23:00,58.6,56.0,29.83,ESE,107,60.0,60.0,91,0.10,,---,0.59,VWS V14.01,2013-05-18 12:23:00,
2013-05-18 07:24:00,58.6,56.0,29.83,ESE,104,60.0,60.0,91,0.10,,---,0.59,VWS V14.01,2013-05-18 12:24:00,
2013-05-18 07:25:00,58.6,55.7,29.83,East,100,60.0,60.0,90,0.10,,---,0.59,VWS V14.01,2013-05-18 12:25:00,
2013-05-18 07:26:00,58.6,56.0,29.83,ESE,107,60.0,60.0,91,0.10,,---,0.59,VWS V14.01,2013-05-18 12:26:00,
2013-05-18 07:27:00,58.6,56.0,29.83,ESE,107,60.0,60.0,91,0.10,,---,0.59,VWS V14.01,2013-05-18 12:27:00,
2013-05-18 07:28:00,58.7,56.1,29.83,ESE,107,60.0,60.0,91,0.10,,---,0.59,VWS V14.01,2013-05-18 12:28:00,
2013-05-18 07:29:00,58.7,56.7,29.83,ESE,107,60.0,60.0,93,0.10,,---,0.59,VWS V14.01,2013-05-18 12:29:00,
2013-05-18 07:30:00,58.7,56.1,29.83,ESE,104,60.0,60.0,91,0.10,,---,0.59,VWS V14.01,2013-05-18 12:30:00,
2013-05-18 07:31:00,58.7,56.4,29.83,ESE,112,60.0,60.0,92,0.09,,---,0.61,VWS V14.01,2013-05-18 12:31:00,
2013-05-18 07:32:00,58.7,55.8,29.83,ESE,110,60.0,60.0,90,0.09,,---,0.61,VWS V14.01,2013-05-18 12:32:00,
2013-05-18 07:33:00,58.7,56.1,29.83,ESE,109,60.0,60.0,91,0.13,,---,0.65,VWS V14.01,2013-05-18 12:33:00,
2013-05-18 07:34:00,58.7,56.1,29.83,ESE,112,60.0,60.0,91,0.15,,---,0.67,VWS V14.01,2013-05-18 12:34:00,
2013-05-18 07:35:00,58.7,56.1,29.83,SSE,148,60.0,60.0,91,0.17,,---,0.69,VWS V14.01,2013-05-18 12:35:00,
2013-05-18 07:36:00,58.7,56.4,29.83,SE,144,60.0,60.0,92,0.17,,---,0.69,VWS V14.01,2013-05-18 12:36:00,
2013-05-18 07:37:00,58.9,56.0,29.83,SE,124,60.0,60.0,90,0.17,,---,0.69,VWS V14.01,2013-05-18 12:37:00,
2013-05-18 07:38:00,58.7,56.1,29.83,ESE,116,60.0,60.0,91,0.17,,---,0.69,VWS V14.01,2013-05-18 12:38:00,
2013-05-18 07:39:00,58.9,56.3,29.83,SE,127,60.0,60.0,91,0.17,,---,0.69,VWS V14.01,2013-05-18 12:39:00,
2013-05-18 07:40:00,58.9,56.0,29.83,East,86,60.0,60.0,90,0.17,,---,0.69,VWS V14.01,2013-05-18 12:40:00,
2013-05-18 07:41:00,58.9,56.0,29.83,East,93,60.0,60.0,90,0.17,,---,0.69,VWS V14.01,2013-05-18 12:41:00,
2013-05-18 07:42:00,58.9,56.0,29.83,East,93,60.0,60.0,90,0.17,,---,0.69,VWS V14.01,2013-05-18 12:42:00,
2013-05-18 07:43:00,58.9,56.0,29.83,East,93,60.0,60.0,90,0.17,,---,0.69,VWS V14.01,2013-05-18 12:43:00,
2013-05-18 07:44:00,58.9,55.0,29.83,East,99,60.0,60.0,87,0.17,,---,0.69,VWS V14.01,2013-05-18 12:44:00,
2013-05-18 07:45:00,58.9,56.3,29.83,East,99,60.0,60.0,91,0.17,,---,0.69,VWS V14.01,2013-05-18 12:45:00,
2013-05-18 07:46:00,58.9,56.3,29.83,East,99,60.0,60.0,91,0.17,,---,0.69,VWS V14.01,2013-05-18 12:46:00,
2013-05-18 07:47:00,58.9,56.0,29.83,East,88,60.0,60.0,90,0.17,,---,0.69,VWS V14.01,2013-05-18 12:47:00,
2013-05-18 07:48:00,58.9,56.3,29.83,SE,137,60.0,60.0,91,0.17,,---,0.69,VWS V14.01,2013-05-18 12:48:00,
2013-05-18 07:49:00,58.9,56.3,29.83,SE,131,60.0,60.0,91,0.17,,---,0.69,VWS V14.01,2013-05-18 12:49:00,
2013-05-18 07:50:00,58.9,56.0,29.83,SE,131,60.0,60.0,90,0.19,,---,0.71,VWS V14.01,2013-05-18 12:50:00,
2013-05-18 07:51:00,58.9,56.0,29.83,SE,124,60.0,60.0,90,0.21,,---,0.73,VWS V14.01,2013-05-18 12:51:00,
2013-05-18 07:52:00,59.0,56.4,29.83,ESE,123,60.0,60.0,91,0.25,,---,0.77,VWS V14.01,2013-05-18 12:52:00,
2013-05-18 07:53:00,59.0,56.4,29.83,SE,133,60.0,60.0,91,0.27,,---,0.79,VWS V14.01,2013-05-18 12:53:00,
2013-05-18 07:54:00,58.9,56.0,29.83,SE,130,60.0,60.0,90,0.27,,---,0.79,VWS V14.01,2013-05-18 12:54:00,
2013-05-18 07:55:00,59.0,56.1,29.83,SE,133,60.0,60.0,90,0.29,,---,0.81,VWS V14.01,2013-05-18 12:55:00,
2013-05-18 07:56:00,58.9,56.0,29.83,SE,127,60.0,60.0,90,0.31,,---,0.83,VWS V14.01,2013-05-18 12:56:00,
2013-05-18 07:57:00,58.9,56.3,29.83,ESE,120,60.0,60.0,91,0.31,,---,0.83,VWS V14.01,2013-05-18 12:57:00,
2013-05-18 07:58:00,59.0,56.1,29.83,SE,128,60.0,60.0,90,0.31,,---,0.83,VWS V14.01,2013-05-18 12:58:00,
2013-05-18 07:59:00,59.0,56.1,29.83,SE,124,60.0,60.0,90,0.31,,---,0.83,VWS V14.01,2013-05-18 12:59:00,
2013-05-18 08:00:00,59.0,56.4,29.83,SE,140,60.0,60.0,91,0.31,,---,0.83,VWS V14.01,2013-05-18 13:00:00,
2013-05-18 08:01:00,58.9,56.3,29.83,SE,133,60.0,60.0,91,0.28,,---,0.83,VWS V14.01,2013-05-18 13:01:00,
2013-05-18 08:02:00,59.0,56.4,29.83,SSE,160,60.0,60.0,91,0.28,,---,0.83,VWS V14.01,2013-05-18 13:02:00,
2013-05-18 08:03:00,58.9,56.3,29.83,SSE,147,60.0,60.0,91,0.28,,---,0.83,VWS V14.01,2013-05-18 13:03:00,
2013-05-18 08:04:00,59.0,55.1,29.83,SSE,162,60.0,60.0,87,0.28,,---,0.83,VWS V14.01,2013-05-18 13:04:00,
2013-05-18 08:05:00,59.0,57.3,29.83,South,172,60.0,60.0,94,0.28,,---,0.83,VWS V14.01,2013-05-18 13:05:00,
2013-05-18 08:06:00,59.0,56.4,29.83,SSE,157,60.0,60.0,91,0.28,,---,0.83,VWS V14.01,2013-05-18 13:06:00,
2013-05-18 08:07:00,59.0,56.4,29.83,SSE,157,60.0,60.0,91,0.28,,---,0.83,VWS V14.01,2013-05-18 13:07:00,
2013-05-18 08:08:00,59.0,56.7,29.83,South,185,60.0,60.0,92,0.28,,---,0.83,VWS V14.01,2013-05-18 13:08:00,
2013-05-18 08:09:00,59.0,56.1,29.83,SSW,192,60.0,60.0,90,0.28,,---,0.83,VWS V14.01,2013-05-18 13:09:00,
2013-05-18 08:10:00,59.0,56.1,29.83,South,186,60.0,60.0,90,0.28,,---,0.83,VWS V14.01,2013-05-18 13:10:00,
2013-05-18 08:11:00,59.0,56.4,29.83,South,172,60.0,60.0,91,0.28,,---,0.83,VWS V14.01,2013-05-18 13:11:00,
2013-05-18 08:12:00,59.2,56.3,29.83,SSE,157,60.0,60.0,90,0.28,,---,0.83,VWS V14.01,2013-05-18 13:12:00,
2013-05-18 08:13:00,59.2,56.3,29.83,SSE,151,60.0,60.0,90,0.28,,---,0.83,VWS V14.01,2013-05-18 13:13:00,
2013-05-18 08:14:00,59.2,56.3,29.83,South,185,60.0,60.0,90,0.28,,---,0.83,VWS V14.01,2013-05-18 13:14:00,
2013-05-18 08:15:00,59.2,56.3,29.83,South,172,60.0,60.0,90,0.28,,---,0.83,VWS V14.01,2013-05-18 13:15:00,
2013-05-18 08:16:00,59.2,56.0,29.83,South,176,60.0,60.0,89,0.28,,---,0.83,VWS V14.01,2013-05-18 13:16:00,
2013-05-18 08:17:00,59.3,56.4,29.83,South,178,60.0,60.0,90,0.28,,---,0.83,VWS V14.01,2013-05-18 13:17:00,
2013-05-18 08:18:00,59.3,56.4,29.83,South,169,60.0,60.0,90,0.28,,---,0.83,VWS V14.01,2013-05-18 13:18:00,
2013-05-18 08:19:00,59.3,56.1,29.83,South,176,60.0,60.0,89,0.28,,---,0.83,VWS V14.01,2013-05-18 13:19:00,
2013-05-18 08:20:00,59.3,56.1,29.83,South,176,60.0,60.0,89,0.28,,---,0.83,VWS V14.01,2013-05-18 13:20:00,
2013-05-18 08:21:00,59.5,56.6,29.83,South,169,60.0,60.0,90,0.28,,---,0.83,VWS V14.01,2013-05-18 13:21:00,
2013-05-18 08:22:00,59.5,56.6,29.83,South,169,60.0,60.0,90,0.29,,---,0.84,VWS V14.01,2013-05-18 13:22:00,
2013-05-18 08:23:00,59.5,56.6,29.83,South,169,60.0,60.0,90,0.29,,---,0.84,VWS V14.01,2013-05-18 13:23:00,
2013-05-18 08:24:00,59.5,56.6,29.83,SSE,158,60.0,60.0,90,0.29,,---,0.84,VWS V14.01,2013-05-18 13:24:00,
2013-05-18 08:25:00,59.6,56.7,29.83,SSE,167,60.0,60.0,90,0.29,,---,0.84,VWS V14.01,2013-05-18 13:25:00,
2013-05-18 08:26:00,59.6,56.7,29.83,SSE,162,60.0,60.0,90,0.29,,---,0.84,VWS V14.01,2013-05-18 13:26:00,
2013-05-18 08:27:00,59.8,56.9,29.83,SSE,162,60.0,60.0,90,0.29,,---,0.84,VWS V14.01,2013-05-18 13:27:00,
2013-05-18 08:28:00,59.8,56.9,29.83,South,171,60.0,60.0,90,0.29,,---,0.84,VWS V14.01,2013-05-18 13:28:00,
2013-05-18 08:29:00,59.8,56.9,29.82,SSE,164,60.0,60.0,90,0.29,,---,0.84,VWS V14.01,2013-05-18 13:29:00,
2013-05-18 08:30:00,59.9,57.0,29.82,SSE,164,60.0,60.0,90,0.29,,---,0.84,VWS V14.01,2013-05-18 13:30:00,
2013-05-18 08:31:00,59.9,55.7,29.82,SSE,158,60.0,60.0,86,0.25,,---,0.84,VWS V14.01,2013-05-18 13:31:00,
2013-05-18 08:32:00,59.9,57.0,29.82,South,171,60.0,60.0,90,0.25,,---,0.84,VWS V14.01,2013-05-18 13:32:00,
2013-05-18 08:33:00,59.9,55.7,29.82,SSE,164,60.0,60.0,86,0.25,,---,0.84,VWS V14.01,2013-05-18 13:33:00,
2013-05-18 08:34:00,60.1,56.5,29.82,South,171,60.0,60.0,88,0.25,,---,0.84,VWS V14.01,2013-05-18 13:34:00,
2013-05-18 08:35:00,60.1,57.2,29.82,South,169,60.0,60.0,90,0.25,,---,0.84,VWS V14.01,2013-05-18 13:35:00,
2013-05-18 08:36:00,60.1,56.5,29.82,South,171,60.0,60.0,88,0.25,,---,0.84,VWS V14.01,2013-05-18 13:36:00,
2013-05-18 08:37:00,60.1,57.2,29.82,SSE,158,60.0,60.0,90,0.25,,---,0.84,VWS V14.01,2013-05-18 13:37:00,
2013-05-18 08:38:00,60.1,57.2,29.82,SSE,164,60.0,60.0,90,0.25,,---,0.84,VWS V14.01,2013-05-18 13:38:00,
2013-05-18 08:39:00,60.2,57.3,29.82,SSE,158,60.0,60.0,90,0.25,,---,0.84,VWS V14.01,2013-05-18 13:39:00,
2013-05-18 08:40:00,60.2,57.3,29.82,SSE,161,60.0,60.0,90,0.25,,---,0.84,VWS V14.01,2013-05-18 13:40:00,
2013-05-18 08:41:00,60.4,57.5,29.82,SSE,164,60.0,60.0,90,0.25,,---,0.84,VWS V14.01,2013-05-18 13:41:00,
2013-05-18 08:42:00,60.4,57.5,29.82,South,175,60.0,60.0,90,0.25,,---,0.84,VWS V14.01,2013-05-18 13:42:00,
2013-05-18 08:43:00,60.5,57.6,29.82,South,172,60.0,60.0,90,0.25,,---,0.84,VWS V14.01,2013-05-18 13:43:00,
2013-05-18 08:44:00,60.5,56.9,29.82,SSE,160,60.0,60.0,88,0.25,,---,0.84,VWS V14.01,2013-05-18 13:44:00,
2013-05-18 08:45:00,60.5,57.6,29.82,SSE,167,60.0,60.0,90,0.25,,---,0.84,VWS V14.01,2013-05-18 13:45:00,
2013-05-18 08:46:00,60.5,57.6,29.82,SSE,167,60.0,60.0,90,0.25,,---,0.84,VWS V14.01,2013-05-18 13:46:00,
2013-05-18 08:47:00,60.5,57.6,29.82,SSE,155,60.0,60.0,90,0.25,,---,0.84,VWS V14.01,2013-05-18 13:47:00,
2013-05-18 08:48:00,60.5,57.9,29.82,South,186,60.0,60.0,91,0.25,,---,0.84,VWS V14.01,2013-05-18 13:48:00,
2013-05-18 08:49:00,60.7,57.4,29.82,South,169,60.0,60.0,89,0.25,,---,0.84,VWS V14.01,2013-05-18 13:49:00,
2013-05-18 08:50:00,60.7,57.4,29.82,South,174,60.0,60.0,89,0.25,,---,0.84,VWS V14.01,2013-05-18 13:50:00,
2013-05-18 08:51:00,60.7,57.4,29.82,South,172,60.0,60.0,89,0.25,,---,0.84,VWS V14.01,2013-05-18 13:51:00,
2013-05-18 08:52:00,60.9,57.6,29.82,South,169,60.0,60.0,89,0.25,,---,0.84,VWS V14.01,2013-05-18 13:52:00,
2013-05-18 08:53:00,60.9,57.6,29.82,South,182,60.0,60.0,89,0.25,,---,0.84,VWS V14.01,2013-05-18 13:53:00,
2013-05-18 08:54:00,61.0,57.7,29.82,South,174,60.0,60.0,89,0.25,,---,0.84,VWS V14.01,2013-05-18 13:54:00,
2013-05-18 08:55:00,61.0,57.7,29.82,South,176,60.0,60.0,89,0.25,,---,0.84,VWS V14.01,2013-05-18 13:55:00,
2013-05-18 08:56:00,61.0,57.7,29.82,South,179,60.0,60.0,89,0.25,,---,0.84,VWS V14.01,2013-05-18 13:56:00,
2013-05-18 08:57:00,61.0,57.7,29.82,South,191,60.0,60.0,89,0.25,,---,0.84,VWS V14.01,2013-05-18 13:57:00,
2013-05-18 08:58:00,61.0,57.7,29.82,South,169,60.0,60.0,89,0.25,,---,0.84,VWS V14.01,2013-05-18 13:58:00,
2013-05-18 08:59:00,61.0,57.7,29.82,South,176,60.0,60.0,89,0.25,,---,0.84,VWS V14.01,2013-05-18 13:59:00,
2013-05-18 09:00:00,61.0,57.1,29.83,South,176,60.0,60.0,87,0.25,,---,0.84,VWS V14.01,2013-05-18 14:00:00,
2013-05-18 09:01:00,61.0,57.7,29.83,SSW,208,60.0,60.0,89,0.01,,---,0.84,VWS V14.01,2013-05-18 14:01:00,
2013-05-18 09:02:00,61.2,57.6,29.83,SSE,167,60.0,60.0,88,0.01,,---,0.84,VWS V14.01,2013-05-18 14:02:00,
2013-05-18 09:03:00,61.2,57.6,29.83,SSE,168,60.0,60.0,88,0.01,,---,0.84,VWS V14.01,2013-05-18 14:03:00,
2013-05-18 09:04:00,61.2,57.6,29.83,SSE,168,60.0,60.0,88,0.01,,---,0.84,VWS V14.01,2013-05-18 14:04:00,
2013-05-18 09:05:00,61.2,57.6,29.83,SSE,165,60.0,60.0,88,0.01,,---,0.84,VWS V14.01,2013-05-18 14:05:00,
2013-05-18 09:06:00,61.2,57.6,29.83,SSE,162,60.0,60.0,88,0.01,,---,0.84,VWS V14.01,2013-05-18 14:06:00,
2013-05-18 09:07:00,61.2,57.6,29.83,SSE,168,60.0,60.0,88,0.01,,---,0.84,VWS V14.01,2013-05-18 14:07:00,
2013-05-18 09:08:00,61.3,57.7,29.83,South,184,60.0,60.0,88,0.01,,---,0.84,VWS V14.01,2013-05-18 14:08:00,
2013-05-18 09:09:00,61.3,57.7,29.83,South,174,60.0,60.0,88,0.01,,---,0.84,VWS V14.01,2013-05-18 14:09:00,
2013-05-18 09:10:00,61.3,57.7,29.83,SSE,164,60.0,60.0,88,0.01,,---,0.84,VWS V14.01,2013-05-18 14:10:00,
2013-05-18 09:11:00,61.3,57.7,29.83,SSE,164,60.0,60.0,88,0.01,,---,0.84,VWS V14.01,2013-05-18 14:11:00,
2013-05-18 09:12:00,61.5,57.6,29.83,SSE,164,60.0,60.0,87,0.01,,---,0.84,VWS V14.01,2013-05-18 14:12:00,
2013-05-18 09:13:00,61.5,57.9,29.83,SSE,164,60.0,60.0,88,0.01,,---,0.84,VWS V14.01,2013-05-18 14:13:00,
2013-05-18 09:14:00,61.6,58.0,29.83,SSE,157,60.0,60.0,88,0.01,,---,0.84,VWS V14.01,2013-05-18 14:14:00,
2013-05-18 09:15:00,61.6,58.0,29.83,SSE,165,60.0,60.0,88,0.01,,---,0.84,VWS V14.01,2013-05-18 14:15:00,
2013-05-18 09:16:00,61.6,58.0,29.83,South,191,60.0,60.0,88,0.01,,---,0.84,VWS V14.01,2013-05-18 14:16:00,
2013-05-18 09:17:00,61.6,57.7,29.83,SSW,193,60.0,60.0,87,0.01,,---,0.84,VWS V14.01,2013-05-18 14:17:00,
2013-05-18 09:18:00,61.6,57.7,29.83,South,186,60.0,60.0,87,0.01,,---,0.84,VWS V14.01,2013-05-18 14:18:00,
2013-05-18 09:19:00,61.8,57.9,29.83,SSE,155,60.0,60.0,87,0.01,,---,0.84,VWS V14.01,2013-05-18 14:19:00,
2013-05-18 09:20:00,61.8,57.9,29.83,South,184,60.0,60.0,87,0.01,,---,0.84,VWS V14.01,2013-05-18 14:20:00,
2013-05-18 09:21:00,61.8,57.9,29.83,SSE,161,60.0,60.0,87,0.01,,---,0.84,VWS V14.01,2013-05-18 14:21:00,
2013-05-18 09:22:00,61.8,57.9,29.83,SSE,164,60.0,60.0,87,0.01,,---,0.84,VWS V14.01,2013-05-18 14:22:00,
2013-05-18 09:23:00,61.8,57.9,29.83,SSE,165,60.0,60.0,87,0.01,,---,0.84,VWS V14.01,2013-05-18 14:23:00,
2013-05-18 09:24:00,62.0,57.8,29.83,SSE,167,60.0,60.0,86,0.01,,---,0.84,VWS V14.01,2013-05-18 14:24:00,
2013-05-18 09:25:00,62.0,58.1,29.83,South,174,60.0,60.0,87,0.01,,---,0.84,VWS V14.01,2013-05-18 14:25:00,
2013-05-18 09:26:00,62.1,57.9,29.83,South,189,60.0,60.0,86,0.01,,---,0.84,VWS V14.01,2013-05-18 14:26:00,
2013-05-18 09:27:00,62.1,57.9,29.83,South,179,60.0,60.0,86,0.01,,---,0.84,VWS V14.01,2013-05-18 14:27:00,
2013-05-18 09:28:00,62.1,57.9,29.83,South,185,60.0,60.0,86,0.01,,---,0.84,VWS V14.01,2013-05-18 14:28:00,
2013-05-18 09:29:00,62.1,57.9,29.84,South,178,60.0,60.0,86,0.01,,---,0.84,VWS V14.01,2013-05-18 14:29:00,
2013-05-18 09:30:00,62.1,57.9,29.84,South,181,60.0,60.0,86,0.01,,---,0.84,VWS V14.01,2013-05-18 14:30:00,
2013-05-18 09:31:00,62.1,57.9,29.84,South,176,60.0,60.0,86,0.00,,---,0.84,VWS V14.01,2013-05-18 14:31:00,
2013-05-18 09:32:00,62.1,57.9,29.84,South,176,60.0,60.0,86,0.00,,---,0.84,VWS V14.01,2013-05-18 14:32:00,
2013-05-18 09:33:00,62.3,58.1,29.84,South,189,60.0,60.0,86,0.00,,---,0.84,VWS V14.01,2013-05-18 14:33:00,
2013-05-18 09:34:00,62.3,57.4,29.84,SSW,193,60.0,60.0,84,0.00,,---,0.84,VWS V14.01,2013-05-18 14:34:00,
2013-05-18 09:35:00,62.4,58.2,29.84,SSW,195,60.0,60.0,86,0.00,,---,0.84,VWS V14.01,2013-05-18 14:35:00,
2013-05-18 09:36:00,62.4,56.8,29.84,SSW,195,60.0,60.0,82,0.00,,---,0.84,VWS V14.01,2013-05-18 14:36:00,
2013-05-18 09:37:00,62.6,57.0,29.84,SSE,167,60.0,60.0,82,0.00,,---,0.84,VWS V14.01,2013-05-18 14:37:00,
2013-05-18 09:38:00,62.6,58.4,29.84,SSW,200,60.0,60.0,86,0.00,,---,0.84,VWS V14.01,2013-05-18 14:38:00,
2013-05-18 09:39:00,62.7,58.5,29.84,South,172,60.0,60.0,86,0.00,,---,0.84,VWS V14.01,2013-05-18 14:39:00,
2013-05-18 09:40:00,62.7,58.5,29.84,South,186,60.0,60.0,86,0.00,,---,0.84,VWS V14.01,2013-05-18 14:40:00,
2013-05-18 09:41:00,62.9,58.7,29.84,SSE,165,60.0,60.0,86,0.00,,---,0.84,VWS V14.01,2013-05-18 14:41:00,
2013-05-18 09:42:00,62.9,58.3,29.84,SSE,164,60.0,60.0,85,0.00,,---,0.84,VWS V14.01,2013-05-18 14:42:00,
2013-05-18 09:43:00,62.9,58.3,29.84,South,176,60.0,60.0,85,0.00,,---,0.84,VWS V14.01,2013-05-18 14:43:00,
2013-05-18 09:44:00,62.9,58.3,29.84,South,179,60.0,60.0,85,0.00,,---,0.84,VWS V14.01,2013-05-18 14:44:00,
2013-05-18 09:45:00,63.1,58.5,29.83,South,175,60.0,60.0,85,0.00,,---,0.84,VWS V14.01,2013-05-18 14:45:00,
2013-05-18 09:46:00,63.1,58.8,29.83,SSE,161,60.0,60.0,86,0.00,,---,0.84,VWS V14.01,2013-05-18 14:46:00,
2013-05-18 09:47:00,63.2,58.6,29.83,South,169,60.0,60.0,85,0.00,,---,0.84,VWS V14.01,2013-05-18 14:47:00,
2013-05-18 09:48:00,63.4,58.8,29.83,South,174,60.0,60.0,85,0.00,,---,0.84,VWS V14.01,2013-05-18 14:48:00,
2013-05-18 09:49:00,63.4,58.8,29.83,SSE,161,60.0,60.0,85,0.00,,---,0.84,VWS V14.01,2013-05-18 14:49:00,
2013-05-18 09:50:00,63.4,58.5,29.83,South,189,60.0,60.0,84,0.00,,---,0.84,VWS V14.01,2013-05-18 14:50:00,
2013-05-18 09:51:00,63.5,58.6,29.83,South,184,60.0,60.0,84,0.00,,---,0.84,VWS V14.01,2013-05-18 14:51:00,
2013-05-18 09:52:00,63.5,58.6,29.83,SSW,195,60.0,60.0,84,0.00,,---,0.84,VWS V14.01,2013-05-18 14:52:00,
2013-05-18 09:53:00,63.7,58.8,29.83,South,188,60.0,60.0,84,0.00,,---,0.84,VWS V14.01,2013-05-18 14:53:00,
2013-05-18 09:54:00,63.7,58.5,29.83,SSW,193,60.0,60.0,83,0.00,,---,0.84,VWS V14.01,2013-05-18 14:54:00,
2013-05-18 09:55:00,63.7,58.5,29.83,SSW,192,60.0,60.0,83,0.00,,---,0.84,VWS V14.01,2013-05-18 14:55:00,
2013-05-18 09:56:00,63.9,58.6,29.83,SSW,192,60.0,60.0,83,0.00,,---,0.84,VWS V14.01,2013-05-18 14:56:00,
2013-05-18 09:57:00,64.0,59.1,29.83,South,191,60.0,60.0,84,0.00,,---,0.84,VWS V14.01,2013-05-18 14:57:00,
2013-05-18 09:58:00,64.2,58.9,29.83,SSW,193,60.0,60.0,83,0.00,,---,0.84,VWS V14.01,2013-05-18 14:58:00,
2013-05-18 09:59:00,64.3,59.0,29.83,SSW,193,60.0,60.0,83,0.00,,---,0.84,VWS V14.01,2013-05-18 14:59:00,
2013-05-18 10:00:00,64.5,59.6,29.83,SSW,192,60.0,60.0,84,0.00,,---,0.84,VWS V14.01,2013-05-18 15:00:00,
2013-05-18 10:01:00,64.8,59.5,29.83,SSW,198,60.0,60.0,83,0.00,,---,0.84,VWS V14.01,2013-05-18 15:01:00,
2013-05-18 10:02:00,64.8,59.2,29.83,South,178,60.0,60.0,82,0.00,,---,0.84,VWS V14.01,2013-05-18 15:02:00,
2013-05-18 10:03:00,64.8,59.2,29.83,SSW,213,60.0,60.0,82,0.00,,---,0.84,VWS V14.01,2013-05-18 15:03:00,
2013-05-18 10:04:00,64.8,58.8,29.83,South,178,60.0,60.0,81,0.00,,---,0.84,VWS V14.01,2013-05-18 15:04:00,
2013-05-18 10:05:00,65.0,59.4,29.83,SSW,198,60.0,60.0,82,0.00,,---,0.84,VWS V14.01,2013-05-18 15:05:00,
2013-05-18 10:06:00,65.0,59.4,29.83,SW,215,60.0,60.0,82,0.00,,---,0.84,VWS V14.01,2013-05-18 15:06:00,
2013-05-18 10:07:00,65.2,59.6,29.83,South,185,60.0,60.0,82,0.00,,---,0.84,VWS V14.01,2013-05-18 15:07:00,
2013-05-18 10:08:00,65.2,59.2,29.83,SSW,208,60.0,60.0,81,0.00,,---,0.84,VWS V14.01,2013-05-18 15:08:00,
2013-05-18 10:09:00,65.3,59.3,29.83,SSW,202,60.0,60.0,81,0.00,,---,0.84,VWS V14.01,2013-05-18 15:09:00,
2013-05-18 10:10:00,65.3,59.0,29.83,South,189,60.0,60.0,80,0.00,,---,0.84,VWS V14.01,2013-05-18 15:10:00,
2013-05-18 10:11:00,65.3,59.0,29.83,SW,223,60.0,60.0,80,0.00,,---,0.84,VWS V14.01,2013-05-18 15:11:00,
2013-05-18 10:12:00,65.3,59.0,29.83,SSW,203,60.0,60.0,80,0.00,,---,0.84,VWS V14.01,2013-05-18 15:12:00,
2013-05-18 10:13:00,65.5,59.2,29.83,South,174,60.0,60.0,80,0.00,,---,0.84,VWS V14.01,2013-05-18 15:13:00,
2013-05-18 10:14:00,65.6,59.3,29.82,SSE,167,60.0,60.0,80,0.00,,---,0.84,VWS V14.01,2013-05-18 15:14:00,
2013-05-18 10:15:00,65.8,59.5,29.82,SSW,202,60.0,60.0,80,0.00,,---,0.84,VWS V14.01,2013-05-18 15:15:00,
2013-05-18 10:16:00,66.0,59.7,29.82,SSW,196,60.0,60.0,80,0.00,,---,0.84,VWS V14.01,2013-05-18 15:16:00,
2013-05-18 10:17:00,66.0,59.3,29.82,SSW,192,60.0,60.0,79,0.00,,---,0.84,VWS V14.01,2013-05-18 15:17:00,
2013-05-18 10:18:00,66.1,59.4,29.82,South,191,60.0,60.0,79,0.00,,---,0.84,VWS V14.01,2013-05-18 15:18:00,
2013-05-18 10:19:00,66.1,59.0,29.82,South,169,60.0,60.0,78,0.00,,---,0.84,VWS V14.01,2013-05-18 15:19:00,
2013-05-18 10:20:00,66.3,59.2,29.82,South,182,60.0,60.0,78,0.00,,---,0.84,VWS V14.01,2013-05-18 15:20:00,
2013-05-18 10:21:00,66.4,59.3,29.82,South,172,60.0,60.0,78,0.00,,---,0.84,VWS V14.01,2013-05-18 15:21:00,
2013-05-18 10:22:00,66.4,59.3,29.82,South,172,60.0,60.0,78,0.00,,---,0.84,VWS V14.01,2013-05-18 15:22:00,
2013-05-18 10:23:00,66.8,59.7,29.82,South,184,60.0,60.0,78,0.00,,---,0.84,VWS V14.01,2013-05-18 15:23:00,
2013-05-18 10:24:00,66.8,59.4,29.82,SSW,198,60.0,60.0,77,0.00,,---,0.84,VWS V14.01,2013-05-18 15:24:00,
2013-05-18 10:25:00,66.8,59.4,29.82,South,176,60.0,60.0,77,0.00,,---,0.84,VWS V14.01,2013-05-18 15:25:00,
2013-05-18 10:26:00,66.9,59.8,29.82,South,181,60.0,60.0,78,0.00,,---,0.84,VWS V14.01,2013-05-18 15:26:00,
2013-05-18 10:27:00,67.1,59.7,29.82,South,181,60.0,60.0,77,0.00,,---,0.84,VWS V14.01,2013-05-18 15:27:00,
2013-05-18 10:28:00,67.1,59.7,29.82,South,181,60.0,60.0,77,0.00,,---,0.84,VWS V14.01,2013-05-18 15:28:00,
2013-05-18 10:29:00,67.3,59.8,29.82,SSW,206,60.0,60.0,77,0.00,,---,0.84,VWS V14.01,2013-05-18 15:29:00,
2013-05-18 10:30:00,67.4,60.0,29.82,SSW,206,60.0,60.0,77,0.00,,---,0.84,VWS V14.01,2013-05-18 15:30:00,
2013-05-18 10:31:00,67.6,59.8,29.82,SSW,206,60.0,60.0,76,0.00,,---,0.84,VWS V14.01,2013-05-18 15:31:00,
2013-05-18 10:32:00,67.6,59.8,29.82,SSW,193,60.0,60.0,76,0.00,,---,0.84,VWS V14.01,2013-05-18 15:32:00,
2013-05-18 10:33:00,67.8,60.0,29.82,SSW,193,60.0,60.0,76,0.00,,---,0.84,VWS V14.01,2013-05-18 15:33:00,
2013-05-18 10:34:00,67.8,60.0,29.82,SSW,193,60.0,60.0,76,0.00,,---,0.84,VWS V14.01,2013-05-18 15:34:00,
2013-05-18 10:35:00,67.8,60.0,29.82,SSW,195,60.0,60.0,76,0.00,,---,0.84,VWS V14.01,2013-05-18 15:35:00,
2013-05-18 10:36:00,67.9,60.1,29.82,SSW,195,60.0,60.0,76,0.00,,---,0.84,VWS V14.01,2013-05-18 15:36:00,
2013-05-18 10:37:00,67.9,60.1,29.82,SSW,193,60.0,60.0,76,0.00,,---,0.84,VWS V14.01,2013-05-18 15:37:00,
2013-05-18 10:38:00,67.9,59.7,29.82,SSW,192,60.0,60.0,75,0.00,,---,0.84,VWS V14.01,2013-05-18 15:38:00,
2013-05-18 10:39:00,68.1,59.9,29.82,SSW,192,60.0,60.0,75,0.00,,---,0.84,VWS V14.01,2013-05-18 15:39:00,
2013-05-18 10:40:00,68.1,59.9,29.82,South,181,60.0,60.0,75,0.00,,---,0.84,VWS V14.01,2013-05-18 15:40:00,
2013-05-18 10:41:00,68.1,60.3,29.82,South,181,60.0,60.0,76,0.00,,---,0.84,VWS V14.01,2013-05-18 15:41:00,
2013-05-18 10:42:00,68.1,60.3,29.82,South,181,60.0,60.0,76,0.00,,---,0.84,VWS V14.01,2013-05-18 15:42:00,
2013-05-18 10:43:00,68.1,60.3,29.82,SSW,193,60.0,60.0,76,0.00,,---,0.84,VWS V14.01,2013-05-18 15:43:00,
2013-05-18 10:44:00,68.1,59.9,29.82,SW,223,60.0,60.0,75,0.00,,---,0.84,VWS V14.01,2013-05-18 15:44:00,
2013-05-18 10:45:00,67.9,59.7,29.82,SW,226,60.0,60.0,75,0.00,,---,0.84,VWS V14.01,2013-05-18 15:45:00,
2013-05-18 10:46:00,68.1,60.3,29.82,SW,219,60.0,60.0,76,0.00,,---,0.84,VWS V14.01,2013-05-18 15:46:00,
2013-05-18 10:47:00,68.1,60.3,29.82,SW,219,60.0,60.0,76,0.00,,---,0.84,VWS V14.01,2013-05-18 15:47:00,
2013-05-18 10:48:00,68.3,60.8,29.82,SSW,198,60.0,60.0,77,0.00,,---,0.84,VWS V14.01,2013-05-18 15:48:00,
2013-05-18 10:49:00,68.3,60.5,29.82,South,182,60.0,60.0,76,0.00,,---,0.84,VWS V14.01,2013-05-18 15:49:00,
2013-05-18 10:50:00,68.3,60.5,29.82,South,182,60.0,60.0,76,0.00,,---,0.84,VWS V14.01,2013-05-18 15:50:00,
2013-05-18 10:51:00,68.3,60.5,29.82,SSE,168,60.0,60.0,76,0.00,,---,0.84,VWS V14.01,2013-05-18 15:51:00,
2013-05-18 10:52:00,68.3,60.1,29.82,South,171,60.0,60.0,75,0.00,,---,0.84,VWS V14.01,2013-05-18 15:52:00,
2013-05-18 10:53:00,68.4,60.5,29.82,SSE,165,60.0,60.0,76,0.00,,---,0.84,VWS V14.01,2013-05-18 15:53:00,
2013-05-18 10:54:00,68.4,60.5,29.82,SSE,165,60.0,60.0,76,0.00,,---,0.84,VWS V14.01,2013-05-18 15:54:00,
2013-05-18 10:55:00,68.6,60.7,29.82,South,175,60.0,60.0,76,0.00,,---,0.84,VWS V14.01,2013-05-18 15:55:00,
2013-05-18 10:56:00,68.6,60.7,29.82,South,189,60.0,60.0,76,0.00,,---,0.84,VWS V14.01,2013-05-18 15:56:00,
2013-05-18 10:57:00,68.8,60.6,29.82,South,185,60.0,60.0,75,0.00,,---,0.84,VWS V14.01,2013-05-18 15:57:00,
2013-05-18 10:58:00,68.8,60.6,29.82,SSE,167,60.0,60.0,75,0.00,,---,0.84,VWS V14.01,2013-05-18 15:58:00,
2013-05-18 10:59:00,68.8,60.6,29.82,SSE,167,60.0,60.0,75,0.00,,---,0.84,VWS V14.01,2013-05-18 15:59:00,
2013-05-18 11:00:00,68.8,60.6,29.81,South,181,60.0,60.0,75,0.00,,---,0.84,VWS V14.01,2013-05-18 16:00:00,
2013-05-18 11:01:00,68.8,61.3,29.81,South,179,60.0,60.0,77,0.00,,---,0.84,VWS V14.01,2013-05-18 16:01:00,
2013-05-18 11:02:00,68.8,60.9,29.81,SSW,195,60.0,60.0,76,0.00,,---,0.84,VWS V14.01,2013-05-18 16:02:00,
2013-05-18 11:03:00,68.9,61.0,29.81,SSE,161,60.0,60.0,76,0.00,,---,0.84,VWS V14.01,2013-05-18 16:03:00,
2013-05-18 11:04:00,68.9,61.0,29.81,SSE,162,60.0,60.0,76,0.00,,---,0.84,VWS V14.01,2013-05-18 16:04:00,
2013-05-18 11:05:00,68.9,61.0,29.81,SSE,161,60.0,60.0,76,0.00,,---,0.84,VWS V14.01,2013-05-18 16:05:00,
2013-05-18 11:06:00,69.1,61.6,29.81,South,169,60.0,60.0,77,0.00,,---,0.84,VWS V14.01,2013-05-18 16:06:00,
2013-05-18 11:07:00,69.3,61.8,29.81,SSE,162,60.0,60.0,77,0.00,,---,0.84,VWS V14.01,2013-05-18 16:07:00,
2013-05-18 11:08:00,69.3,61.4,29.81,SSE,161,60.0,60.0,76,0.00,,---,0.84,VWS V14.01,2013-05-18 16:08:00,
2013-05-18 11:09:00,69.4,61.5,29.81,South,175,60.0,60.0,76,0.00,,---,0.84,VWS V14.01,2013-05-18 16:09:00,
2013-05-18 11:10:00,69.6,61.3,29.81,South,175,60.0,60.0,75,0.00,,---,0.84,VWS V14.01,2013-05-18 16:10:00,
2013-05-18 11:11:00,69.6,61.3,29.81,SSE,162,60.0,60.0,75,0.00,,---,0.84,VWS V14.01,2013-05-18 16:11:00,
2013-05-18 11:12:00,69.9,62.0,29.81,SSE,164,60.0,60.0,76,0.00,,---,0.84,VWS V14.01,2013-05-18 16:12:00,
2013-05-18 11:13:00,70.1,61.8,29.81,South,179,60.0,60.0,75,0.00,,---,0.84,VWS V14.01,2013-05-18 16:13:00,
2013-05-18 11:14:00,70.3,62.4,29.81,SSE,155,60.0,60.0,76,0.00,,---,0.84,VWS V14.01,2013-05-18 16:14:00,
2013-05-18 11:15:00,70.4,61.7,29.81,SSE,155,60.0,60.0,74,0.00,,---,0.84,VWS V14.01,2013-05-18 16:15:00,
2013-05-18 11:16:00,70.6,62.3,29.81,South,175,60.0,60.0,75,0.00,,---,0.84,VWS V14.01,2013-05-18 16:16:00,
2013-05-18 11:17:00,70.6,61.5,29.81,South,174,60.0,60.0,73,0.00,,---,0.84,VWS V14.01,2013-05-18 16:17:00,
2013-05-18 11:18:00,70.6,61.5,29.81,SSE,167,60.0,60.0,73,0.00,,---,0.84,VWS V14.01,2013-05-18 16:18:00,
2013-05-18 11:19:00,70.8,62.1,29.81,South,171,60.0,60.0,74,0.00,,---,0.84,VWS V14.01,2013-05-18 16:19:00,
2013-05-18 11:20:00,70.8,62.1,29.81,South,169,60.0,60.0,74,0.00,,---,0.84,VWS V14.01,2013-05-18 16:20:00,
2013-05-18 11:21:00,70.9,61.8,29.81,South,171,60.0,60.0,73,0.00,,---,0.84,VWS V14.01,2013-05-18 16:21:00,
2013-05-18 11:22:00,70.9,61.8,29.81,South,169,60.0,60.0,73,0.00,,---,0.84,VWS V14.01,2013-05-18 16:22:00,
2013-05-18 11:23:00,70.9,61.4,29.81,SSE,162,60.0,60.0,72,0.00,,---,0.84,VWS V14.01,2013-05-18 16:23:00,
2013-05-18 11:24:00,70.9,61.8,29.81,SSE,168,60.0,60.0,73,0.00,,---,0.84,VWS V14.01,2013-05-18 16:24:00,
2013-05-18 11:25:00,70.9,61.4,29.81,SSW,198,60.0,60.0,72,0.00,,---,0.84,VWS V14.01,2013-05-18 16:25:00,
2013-05-18 11:26:00,70.8,61.3,29.81,South,189,60.0,60.0,72,0.00,,---,0.84,VWS V14.01,2013-05-18 16:26:00,
2013-05-18 11:27:00,70.8,61.3,29.81,South,189,60.0,60.0,72,0.00,,---,0.84,VWS V14.01,2013-05-18 16:27:00,
2013-05-18 11:28:00,70.9,62.2,29.81,South,175,60.0,60.0,74,0.00,,---,0.84,VWS V14.01,2013-05-18 16:28:00,
2013-05-18 11:29:00,70.9,61.8,29.81,SSE,148,60.0,60.0,73,0.00,,---,0.84,VWS V14.01,2013-05-18 16:29:00,
2013-05-18 11:30:00,71.1,62.0,29.81,SSE,151,60.0,60.0,73,0.00,,---,0.84,VWS V14.01,2013-05-18 16:30:00,
2013-05-18 11:31:00,71.1,62.0,29.81,SSE,151,60.0,60.0,73,0.00,,---,0.84,VWS V14.01,2013-05-18 16:31:00,
2013-05-18 11:32:00,71.3,62.2,29.81,SSE,151,60.0,60.0,73,0.00,,---,0.84,VWS V14.01,2013-05-18 16:32:00,
2013-05-18 11:33:00,71.5,62.0,29.81,SSE,151,60.0,60.0,72,0.00,,---,0.84,VWS V14.01,2013-05-18 16:33:00,
2013-05-18 11:34:00,71.6,62.1,29.81,SSE,148,60.0,60.0,72,0.00,,---,0.84,VWS V14.01,2013-05-18 16:34:00,
2013-05-18 11:35:00,71.8,61.9,29.81,South,189,60.0,60.0,71,0.00,,---,0.84,VWS V14.01,2013-05-18 16:35:00,
2013-05-18 11:36:00,71.8,61.9,29.81,South,178,60.0,60.0,71,0.00,,---,0.84,VWS V14.01,2013-05-18 16:36:00,
2013-05-18 11:37:00,72.0,62.1,29.81,South,171,60.0,60.0,71,0.00,,---,0.84,VWS V14.01,2013-05-18 16:37:00,
2013-05-18 11:38:00,72.0,61.7,29.81,SSW,196,60.0,60.0,70,0.00,,---,0.84,VWS V14.01,2013-05-18 16:38:00,
2013-05-18 11:39:00,72.1,61.8,29.81,SSE,160,60.0,60.0,70,0.00,,---,0.84,VWS V14.01,2013-05-18 16:39:00,
2013-05-18 11:40:00,72.1,61.8,29.81,SSE,167,60.0,60.0,70,0.00,,---,0.84,VWS V14.01,2013-05-18 16:40:00,
2013-05-18 11:41:00,72.0,61.7,29.81,SSE,161,60.0,60.0,70,0.00,,---,0.84,VWS V14.01,2013-05-18 16:41:00,
2013-05-18 11:42:00,72.0,62.1,29.81,SSE,157,60.0,60.0,71,0.00,,---,0.84,VWS V14.01,2013-05-18 16:42:00,
2013-05-18 11:43:00,71.8,61.9,29.81,SSW,196,60.0,60.0,71,0.00,,---,0.84,VWS V14.01,2013-05-18 16:43:00,
2013-05-18 11:44:00,72.0,62.5,29.81,SSW,196,60.0,60.0,72,0.00,,---,0.84,VWS V14.01,2013-05-18 16:44:00,
2013-05-18 11:45:00,72.1,62.2,29.80,SSE,160,60.0,60.0,71,0.00,,---,0.84,VWS V14.01,2013-05-18 16:45:00,
2013-05-18 11:46:00,72.0,61.7,29.80,SSE,158,60.0,60.0,70,0.00,,---,0.84,VWS V14.01,2013-05-18 16:46:00,
2013-05-18 11:47:00,72.0,62.1,29.80,South,175,60.0,60.0,71,0.00,,---,0.84,VWS V14.01,2013-05-18 16:47:00,
2013-05-18 11:48:00,72.0,61.7,29.80,South,176,60.0,60.0,70,0.00,,---,0.84,VWS V14.01,2013-05-18 16:48:00,
2013-05-18 11:49:00,72.1,62.2,29.80,SSW,203,60.0,60.0,71,0.00,,---,0.84,VWS V14.01,2013-05-18 16:49:00,
2013-05-18 11:50:00,72.3,62.4,29.80,SSE,151,60.0,60.0,71,0.00,,---,0.84,VWS V14.01,2013-05-18 16:50:00,
2013-05-18 11:51:00,72.5,62.6,29.80,SSE,152,60.0,60.0,71,0.00,,---,0.84,VWS V14.01,2013-05-18 16:51:00,
2013-05-18 11:52:00,72.5,62.2,29.80,South,182,60.0,60.0,70,0.00,,---,0.84,VWS V14.01,2013-05-18 16:52:00,
2013-05-18 11:53:00,72.5,61.8,29.80,South,174,60.0,60.0,69,0.00,,---,0.84,VWS V14.01,2013-05-18 16:53:00,
2013-05-18 11:54:00,72.5,62.2,29.80,South,182,60.0,60.0,70,0.00,,---,0.84,VWS V14.01,2013-05-18 16:54:00,
2013-05-18 11:55:00,72.3,62.0,29.80,South,191,60.0,60.0,70,0.00,,---,0.84,VWS V14.01,2013-05-18 16:55:00,
2013-05-18 11:56:00,72.3,62.0,29.80,SSW,199,60.0,60.0,70,0.00,,---,0.84,VWS V14.01,2013-05-18 16:56:00,
2013-05-18 11:57:00,72.3,62.0,29.80,SSE,168,60.0,60.0,70,0.00,,---,0.84,VWS V14.01,2013-05-18 16:57:00,
2013-05-18 11:58:00,72.3,62.4,29.80,SSE,154,60.0,60.0,71,0.00,,---,0.84,VWS V14.01,2013-05-18 16:58:00,
2013-05-18 11:59:00,72.3,62.4,29.80,SSE,154,60.0,60.0,71,0.00,,---,0.84,VWS V14.01,2013-05-18 16:59:00,
2013-05-18 12:00:00,72.5,62.6,29.80,SSE,155,60.0,60.0,71,0.00,,---,0.84,VWS V14.01,2013-05-18 17:00:00,
2013-05-18 12:01:00,72.5,61.8,29.80,South,189,60.0,60.0,69,0.00,,---,0.84,VWS V14.01,2013-05-18 17:01:00,
2013-05-18 12:02:00,72.5,62.2,29.80,SSW,198,60.0,60.0,70,0.00,,---,0.84,VWS V14.01,2013-05-18 17:02:00,
2013-05-18 12:03:00,72.7,62.8,29.80,SSW,199,60.0,60.0,71,0.00,,---,0.84,VWS V14.01,2013-05-18 17:03:00,
2013-05-18 12:04:00,73.0,62.7,29.80,South,169,60.0,60.0,70,0.00,,---,0.84,VWS V14.01,2013-05-18 17:04:00,
2013-05-18 12:05:00,73.2,62.8,29.80,South,169,60.0,60.0,70,0.00,,---,0.84,VWS V14.01,2013-05-18 17:05:00,
2013-05-18 12:06:00,73.3,62.5,29.80,South,169,60.0,60.0,69,0.00,,---,0.84,VWS V14.01,2013-05-18 17:06:00,
2013-05-18 12:07:00,73.5,62.7,29.80,ESE,113,60.0,60.0,69,0.00,,---,0.84,VWS V14.01,2013-05-18 17:07:00,
2013-05-18 12:08:00,73.5,62.3,29.80,ESE,110,60.0,60.0,68,0.00,,---,0.84,VWS V14.01,2013-05-18 17:08:00,
2013-05-18 12:09:00,73.7,62.5,29.80,SSE,158,60.0,60.0,68,0.00,,---,0.84,VWS V14.01,2013-05-18 17:09:00,
2013-05-18 12:10:00,73.7,62.5,29.80,SSE,160,60.0,60.0,68,0.00,,---,0.84,VWS V14.01,2013-05-18 17:10:00,
2013-05-18 12:11:00,73.7,62.1,29.80,South,174,60.0,60.0,67,0.00,,---,0.84,VWS V14.01,2013-05-18 17:11:00,
2013-05-18 12:12:00,73.7,62.5,29.80,South,175,60.0,60.0,68,0.00,,---,0.84,VWS V14.01,2013-05-18 17:12:00,
2013-05-18 12:13:00,73.9,62.3,29.80,South,176,60.0,60.0,67,0.00,,---,0.84,VWS V14.01,2013-05-18 17:13:00,
2013-05-18 12:14:00,73.9,62.3,29.80,South,172,60.0,60.0,67,0.00,,---,0.84,VWS V14.01,2013-05-18 17:14:00,
2013-05-18 12:15:00,73.9,62.3,29.79,South,176,60.0,60.0,67,0.00,,---,0.84,VWS V14.01,2013-05-18 17:15:00,
2013-05-18 12:16:00,73.9,62.3,29.79,SSE,158,60.0,60.0,67,0.00,,---,0.84,VWS V14.01,2013-05-18 17:16:00,
2013-05-18 12:17:00,73.9,61.8,29.79,South,175,60.0,60.0,66,0.00,,---,0.84,VWS V14.01,2013-05-18 17:17:00,
2013-05-18 12:18:00,74.0,63.2,29.79,SSE,167,60.0,60.0,69,0.00,,---,0.84,VWS V14.01,2013-05-18 17:18:00,
2013-05-18 12:19:00,74.0,62.8,29.79,South,169,60.0,60.0,68,0.00,,---,0.84,VWS V14.01,2013-05-18 17:19:00,
2013-05-18 12:20:00,73.9,62.7,29.79,South,171,60.0,60.0,68,0.00,,---,0.84,VWS V14.01,2013-05-18 17:20:00,
2013-05-18 12:21:00,73.7,62.5,29.79,SSE,164,60.0,60.0,68,0.00,,---,0.84,VWS V14.01,2013-05-18 17:21:00,
2013-05-18 12:22:00,73.5,61.9,29.79,SSW,195,60.0,60.0,67,0.00,,---,0.84,VWS V14.01,2013-05-18 17:22:00,
2013-05-18 12:23:00,73.5,62.3,29.79,South,178,60.0,60.0,68,0.00,,---,0.84,VWS V14.01,2013-05-18 17:23:00,
2013-05-18 12:24:00,73.5,62.3,29.79,SSE,157,60.0,60.0,68,0.00,,---,0.84,VWS V14.01,2013-05-18 17:24:00,
2013-05-18 12:25:00,73.7,62.5,29.79,SSE,168,60.0,60.0,68,0.00,,---,0.84,VWS V14.01,2013-05-18 17:25:00,
2013-05-18 12:26:00,73.7,62.5,29.79,SSE,168,60.0,60.0,68,0.00,,---,0.84,VWS V14.01,2013-05-18 17:26:00,
2013-05-18 12:27:00,73.9,62.7,29.79,SE,141,60.0,60.0,68,0.00,,---,0.84,VWS V14.01,2013-05-18 17:27:00,
2013-05-18 12:28:00,74.0,62.4,29.79,SE,141,60.0,60.0,67,0.00,,---,0.84,VWS V14.01,2013-05-18 17:28:00,
2013-05-18 12:29:00,74.2,62.1,29.78,SSE,164,60.0,60.0,66,0.00,,---,0.84,VWS V14.01,2013-05-18 17:29:00,
2013-05-18 12:30:00,74.2,62.1,29.78,SW,220,60.0,60.0,66,0.00,,---,0.84,VWS V14.01,2013-05-18 17:30:00,
2013-05-18 12:31:00,74.2,62.1,29.78,South,189,60.0,60.0,66,0.00,,---,0.84,VWS V14.01,2013-05-18 17:31:00,
2013-05-18 12:32:00,74.2,61.7,29.78,SSW,198,60.0,60.0,65,0.00,,---,0.84,VWS V14.01,2013-05-18 17:32:00,
2013-05-18 12:33:00,74.2,61.7,29.78,SSW,195,60.0,60.0,65,0.00,,---,0.84,VWS V14.01,2013-05-18 17:33:00,
2013-05-18 12:34:00,74.0,61.9,29.78,SSW,210,60.0,60.0,66,0.00,,---,0.84,VWS V14.01,2013-05-18 17:34:00,
2013-05-18 12:35:00,74.0,61.9,29.78,SSW,195,60.0,60.0,66,0.00,,---,0.84,VWS V14.01,2013-05-18 17:35:00,
2013-05-18 12:36:00,74.0,61.9,29.78,South,176,60.0,60.0,66,0.00,,---,0.84,VWS V14.01,2013-05-18 17:36:00,
2013-05-18 12:37:00,74.2,62.5,29.78,South,185,60.0,60.0,67,0.00,,---,0.84,VWS V14.01,2013-05-18 17:37:00,
2013-05-18 12:38:00,74.4,62.3,29.78,SSE,155,60.0,60.0,66,0.00,,---,0.84,VWS V14.01,2013-05-18 17:38:00,
2013-05-18 12:39:00,74.4,62.3,29.78,SSE,165,60.0,60.0,66,0.00,,---,0.84,VWS V14.01,2013-05-18 17:39:00,
2013-05-18 12:40:00,74.4,62.3,29.78,SSE,155,60.0,60.0,66,0.00,,---,0.84,VWS V14.01,2013-05-18 17:40:00,
2013-05-18 12:41:00,74.4,62.3,29.78,SSW,209,60.0,60.0,66,0.00,,---,0.84,VWS V14.01,2013-05-18 17:41:00,
2013-05-18 12:42:00,74.4,62.3,29.78,South,188,60.0,60.0,66,0.00,,---,0.84,VWS V14.01,2013-05-18 17:42:00,
2013-05-18 12:43:00,74.6,62.9,29.78,South,188,60.0,60.0,67,0.00,,---,0.84,VWS V14.01,2013-05-18 17:43:00,
2013-05-18 12:44:00,74.7,62.6,29.78,SSW,192,60.0,60.0,66,0.00,,---,0.84,VWS V14.01,2013-05-18 17:44:00,
2013-05-18 12:45:00,74.9,62.3,29.78,South,182,60.0,60.0,65,0.00,,---,0.84,VWS V14.01,2013-05-18 17:45:00,
2013-05-18 12:46:00,74.9,61.9,29.78,South,172,60.0,60.0,64,0.00,,---,0.84,VWS V14.01,2013-05-18 17:46:00,
2013-05-18 12:47:00,75.1,62.5,29.78,SSE,160,60.0,60.0,65,0.00,,---,0.84,VWS V14.01,2013-05-18 17:47:00,
2013-05-18 12:48:00,75.3,62.7,29.78,South,191,60.0,60.0,65,0.00,,---,0.84,VWS V14.01,2013-05-18 17:48:00,
2013-05-18 12:49:00,75.3,62.3,29.78,SSW,209,60.0,60.0,64,0.00,,---,0.84,VWS V14.01,2013-05-18 17:49:00,
2013-05-18 12:50:00,75.3,62.7,29.78,South,184,60.0,60.0,65,0.00,,---,0.84,VWS V14.01,2013-05-18 17:50:00,
2013-05-18 12:51:00,75.4,62.4,29.78,South,191,60.0,60.0,64,0.00,,---,0.84,VWS V14.01,2013-05-18 17:51:00,
2013-05-18 12:52:00,75.4,62.4,29.78,SSE,167,60.0,60.0,64,0.00,,---,0.84,VWS V14.01,2013-05-18 17:52:00,
2013-05-18 12:53:00,75.4,62.4,29.78,South,189,60.0,60.0,64,0.00,,---,0.84,VWS V14.01,2013-05-18 17:53:00,
2013-05-18 12:54:00,75.6,62.6,29.78,SSW,192,60.0,60.0,64,0.00,,---,0.84,VWS V14.01,2013-05-18 17:54:00,
2013-05-18 12:55:00,75.8,62.3,29.78,South,188,60.0,60.0,63,0.00,,---,0.84,VWS V14.01,2013-05-18 17:55:00,
2013-05-18 12:56:00,75.8,62.3,29.78,SSE,167,60.0,60.0,63,0.00,,---,0.84,VWS V14.01,2013-05-18 17:56:00,
2013-05-18 12:57:00,75.6,62.1,29.78,SSE,168,60.0,60.0,63,0.00,,---,0.84,VWS V14.01,2013-05-18 17:57:00,
2013-05-18 12:58:00,75.8,62.3,29.78,SSE,161,60.0,60.0,63,0.00,,---,0.84,VWS V14.01,2013-05-18 17:58:00,
2013-05-18 12:59:00,75.8,62.8,29.78,South,181,60.0,60.0,64,0.00,,---,0.84,VWS V14.01,2013-05-18 17:59:00,
2013-05-18 13:00:00,75.8,63.2,29.78,SSE,168,60.0,60.0,65,0.00,,---,0.84,VWS V14.01,2013-05-18 18:00:00,
2013-05-18 13:01:00,75.8,61.9,29.78,South,189,60.0,60.0,62,0.00,,---,0.84,VWS V14.01,2013-05-18 18:01:00,
2013-05-18 13:02:00,76.0,62.5,29.78,South,182,60.0,60.0,63,0.00,,---,0.84,VWS V14.01,2013-05-18 18:02:00,
2013-05-18 13:03:00,75.8,61.9,29.78,SSE,161,60.0,60.0,62,0.00,,---,0.84,VWS V14.01,2013-05-18 18:03:00,
2013-05-18 13:04:00,75.8,61.9,29.78,SSE,161,60.0,60.0,62,0.00,,---,0.84,VWS V14.01,2013-05-18 18:04:00,
2013-05-18 13:05:00,75.8,61.9,29.78,South,172,60.0,60.0,62,0.00,,---,0.84,VWS V14.01,2013-05-18 18:05:00,
2013-05-18 13:06:00,75.8,61.9,29.78,SSE,168,60.0,60.0,62,0.00,,---,0.84,VWS V14.01,2013-05-18 18:06:00,
2013-05-18 13:07:00,76.0,61.6,29.78,SW,222,60.0,60.0,61,0.00,,---,0.84,VWS V14.01,2013-05-18 18:07:00,
2013-05-18 13:08:00,76.0,61.6,29.78,SSW,198,60.0,60.0,61,0.00,,---,0.84,VWS V14.01,2013-05-18 18:08:00,
2013-05-18 13:09:00,76.0,62.0,29.78,South,182,60.0,60.0,62,0.00,,---,0.84,VWS V14.01,2013-05-18 18:09:00,
2013-05-18 13:10:00,76.0,62.0,29.78,SSE,168,60.0,60.0,62,0.00,,---,0.84,VWS V14.01,2013-05-18 18:10:00,
2013-05-18 13:11:00,76.0,62.0,29.78,South,172,60.0,60.0,62,0.00,,---,0.84,VWS V14.01,2013-05-18 18:11:00,
2013-05-18 13:12:00,76.0,62.0,29.78,South,182,60.0,60.0,62,0.00,,---,0.84,VWS V14.01,2013-05-18 18:12:00,
2013-05-18 13:13:00,76.0,61.6,29.78,SE,136,60.0,60.0,61,0.00,,---,0.84,VWS V14.01,2013-05-18 18:13:00,
2013-05-18 13:14:00,76.1,62.2,29.78,ESE,109,60.0,60.0,62,0.00,,---,0.84,VWS V14.01,2013-05-18 18:14:00,
2013-05-18 13:15:00,76.3,62.3,29.78,SE,133,60.0,60.0,62,0.00,,---,0.84,VWS V14.01,2013-05-18 18:15:00,
2013-05-18 13:16:00,76.5,62.1,29.78,SE,133,60.0,60.0,61,0.00,,---,0.84,VWS V14.01,2013-05-18 18:16:00,
2013-05-18 13:17:00,76.7,62.2,29.78,East,95,60.0,60.0,61,0.00,,---,0.84,VWS V14.01,2013-05-18 18:17:00,
2013-05-18 13:18:00,76.7,61.8,29.78,SSE,165,60.0,60.0,60,0.00,,---,0.84,VWS V14.01,2013-05-18 18:18:00,
2013-05-18 13:19:00,76.7,62.2,29.78,South,189,60.0,60.0,61,0.00,,---,0.84,VWS V14.01,2013-05-18 18:19:00,
2013-05-18 13:20:00,76.8,62.8,29.78,East,79,60.0,60.0,62,0.00,,---,0.84,VWS V14.01,2013-05-18 18:20:00,
2013-05-18 13:21:00,77.0,63.0,29.78,SE,138,60.0,60.0,62,0.00,,---,0.84,VWS V14.01,2013-05-18 18:21:00,
2013-05-18 13:22:00,77.2,63.2,29.78,SE,141,60.0,60.0,62,0.00,,---,0.84,VWS V14.01,2013-05-18 18:22:00,
2013-05-18 13:23:00,77.0,62.1,29.78,SSE,150,60.0,60.0,60,0.00,,---,0.84,VWS V14.01,2013-05-18 18:23:00,
2013-05-18 13:24:00,77.0,62.1,29.78,South,185,60.0,60.0,60,0.00,,---,0.84,VWS V14.01,2013-05-18 18:24:00,
2013-05-18 13:25:00,77.0,62.1,29.78,SSW,200,60.0,60.0,60,0.00,,---,0.84,VWS V14.01,2013-05-18 18:25:00,
2013-05-18 13:26:00,76.8,60.9,29.78,SSW,198,60.0,60.0,58,0.00,,---,0.84,VWS V14.01,2013-05-18 18:26:00,
2013-05-18 13:27:00,77.0,61.6,29.78,SSE,164,60.0,60.0,59,0.00,,---,0.84,VWS V14.01,2013-05-18 18:27:00,
2013-05-18 13:28:00,77.2,61.3,29.78,SSE,168,60.0,60.0,58,0.00,,---,0.84,VWS V14.01,2013-05-18 18:28:00,
2013-05-18 13:29:00,77.2,60.8,29.78,SSE,161,60.0,60.0,57,0.00,,---,0.84,VWS V14.01,2013-05-18 18:29:00,
2013-05-18 13:30:00,77.2,61.3,29.78,SSW,209,60.0,60.0,58,0.00,,---,0.84,VWS V14.01,2013-05-18 18:30:00,
2013-05-18 13:31:00,77.2,61.8,29.78,SSW,206,60.0,60.0,59,0.00,,---,0.84,VWS V14.01,2013-05-18 18:31:00,
2013-05-18 13:32:00,77.4,61.0,29.78,SSW,192,60.0,60.0,57,0.00,,---,0.84,VWS V14.01,2013-05-18 18:32:00,
2013-05-18 13:33:00,77.4,61.5,29.78,SSW,192,60.0,60.0,58,0.00,,---,0.84,VWS V14.01,2013-05-18 18:33:00,
2013-05-18 13:34:00,77.6,61.7,29.78,South,171,60.0,60.0,58,0.00,,---,0.84,VWS V14.01,2013-05-18 18:34:00,
2013-05-18 13:35:00,77.4,61.0,29.78,SSE,168,60.0,60.0,57,0.00,,---,0.84,VWS V14.01,2013-05-18 18:35:00,
2013-05-18 13:36:00,77.4,62.0,29.78,SSE,164,60.0,60.0,59,0.00,,---,0.84,VWS V14.01,2013-05-18 18:36:00,
2013-05-18 13:37:00,77.2,62.2,29.78,SSE,162,60.0,60.0,60,0.00,,---,0.84,VWS V14.01,2013-05-18 18:37:00,
2013-05-18 13:38:00,77.2,62.7,29.78,SSE,162,60.0,60.0,61,0.00,,---,0.84,VWS V14.01,2013-05-18 18:38:00,
2013-05-18 13:39:00,77.2,61.8,29.78,ESE,119,60.0,60.0,59,0.00,,---,0.84,VWS V14.01,2013-05-18 18:39:00,
2013-05-18 13:40:00,77.2,62.2,29.78,SSE,157,60.0,60.0,60,0.00,,---,0.84,VWS V14.01,2013-05-18 18:40:00,
2013-05-18 13:41:00,77.2,61.8,29.78,South,176,60.0,60.0,59,0.00,,---,0.84,VWS V14.01,2013-05-18 18:41:00,
2013-05-18 13:42:00,77.2,61.8,29.78,SSE,165,60.0,60.0,59,0.00,,---,0.84,VWS V14.01,2013-05-18 18:42:00,
2013-05-18 13:43:00,77.2,61.8,29.78,SSE,167,60.0,60.0,59,0.00,,---,0.84,VWS V14.01,2013-05-18 18:43:00,
2013-05-18 13:44:00,77.2,62.2,29.78,SSE,167,60.0,60.0,60,0.00,,---,0.84,VWS V14.01,2013-05-18 18:44:00,
2013-05-18 13:45:00,77.2,61.8,29.78,South,186,60.0,60.0,59,0.00,,---,0.84,VWS V14.01,2013-05-18 18:45:00,
2013-05-18 13:46:00,77.0,61.6,29.78,South,179,60.0,60.0,59,0.00,,---,0.84,VWS V14.01,2013-05-18 18:46:00,
2013-05-18 13:47:00,77.0,61.6,29.78,ESE,103,60.0,60.0,59,0.00,,---,0.84,VWS V14.01,2013-05-18 18:47:00,
2013-05-18 13:48:00,76.8,61.4,29.78,ESE,103,60.0,60.0,59,0.00,,---,0.84,VWS V14.01,2013-05-18 18:48:00,
2013-05-18 13:49:00,77.0,62.1,29.78,South,188,60.0,60.0,60,0.00,,---,0.84,VWS V14.01,2013-05-18 18:49:00,
2013-05-18 13:50:00,77.2,62.2,29.78,East,90,60.0,60.0,60,0.00,,---,0.84,VWS V14.01,2013-05-18 18:50:00,
2013-05-18 13:51:00,77.4,62.0,29.78,East,89,60.0,60.0,59,0.00,,---,0.84,VWS V14.01,2013-05-18 18:51:00,
2013-05-18 13:52:00,77.7,62.2,29.78,SSE,152,60.0,60.0,59,0.00,,---,0.84,VWS V14.01,2013-05-18 18:52:00,
2013-05-18 13:53:00,77.9,62.4,29.78,South,169,60.0,60.0,59,0.00,,---,0.84,VWS V14.01,2013-05-18 18:53:00,
2013-05-18 13:54:00,77.9,61.5,29.78,SSE,164,60.0,60.0,57,0.00,,---,0.84,VWS V14.01,2013-05-18 18:54:00,
2013-05-18 13:55:00,78.1,62.6,29.78,SSE,164,60.0,60.0,59,0.00,,---,0.84,VWS V14.01,2013-05-18 18:55:00,
2013-05-18 13:56:00,78.1,61.6,29.78,South,171,60.0,60.0,57,0.00,,---,0.84,VWS V14.01,2013-05-18 18:56:00,
2013-05-18 13:57:00,78.3,62.3,29.78,South,178,60.0,60.0,58,0.00,,---,0.84,VWS V14.01,2013-05-18 18:57:00,
2013-05-18 13:58:00,78.3,61.3,29.78,SSE,164,60.0,60.0,56,0.00,,---,0.84,VWS V14.01,2013-05-18 18:58:00,
2013-05-18 13:59:00,78.3,61.3,29.78,SSE,164,60.0,60.0,56,0.00,,---,0.84,VWS V14.01,2013-05-18 18:59:00,
2013-05-18 14:00:00,78.3,61.8,29.78,SSE,164,60.0,60.0,57,0.00,,---,0.84,VWS V14.01,2013-05-18 19:00:00,
2013-05-18 14:01:00,78.3,61.8,29.78,SSE,164,60.0,60.0,57,0.00,,---,0.84,VWS V14.01,2013-05-18 19:01:00,
2013-05-18 14:02:00,78.3,61.8,29.78,SSE,164,60.0,60.0,57,0.00,,---,0.84,VWS V14.01,2013-05-18 19:02:00,
2013-05-18 14:03:00,78.5,61.5,29.78,SSE,164,60.0,60.0,56,0.00,,---,0.84,VWS V14.01,2013-05-18 19:03:00,
2013-05-18 14:04:00,78.5,62.0,29.78,SSW,193,60.0,60.0,57,0.00,,---,0.84,VWS V14.01,2013-05-18 19:04:00,
2013-05-18 14:05:00,78.5,61.5,29.78,South,174,60.0,60.0,56,0.00,,---,0.84,VWS V14.01,2013-05-18 19:05:00,
2013-05-18 14:06:00,78.5,61.5,29.78,South,174,60.0,60.0,56,0.00,,---,0.84,VWS V14.01,2013-05-18 19:06:00,
2013-05-18 14:07:00,78.5,61.5,29.78,ESE,104,60.0,60.0,56,0.00,,---,0.84,VWS V14.01,2013-05-18 19:07:00,
2013-05-18 14:08:00,78.5,61.5,29.78,ESE,104,60.0,60.0,56,0.00,,---,0.84,VWS V14.01,2013-05-18 19:08:00,
2013-05-18 14:09:00,78.3,60.8,29.78,ESE,103,60.0,60.0,55,0.00,,---,0.84,VWS V14.01,2013-05-18 19:09:00,
2013-05-18 14:10:00,78.3,61.3,29.78,ESE,103,60.0,60.0,56,0.00,,---,0.84,VWS V14.01,2013-05-18 19:10:00,
2013-05-18 14:11:00,78.3,61.3,29.78,ESE,103,60.0,60.0,56,0.00,,---,0.84,VWS V14.01,2013-05-18 19:11:00,
2013-05-18 14:12:00,78.5,61.5,29.78,ESE,103,60.0,60.0,56,0.00,,---,0.84,VWS V14.01,2013-05-18 19:12:00,
2013-05-18 14:13:00,78.5,61.0,29.78,ESE,103,60.0,60.0,55,0.00,,---,0.84,VWS V14.01,2013-05-18 19:13:00,
2013-05-18 14:14:00,78.5,61.5,29.78,East,99,60.0,60.0,56,0.00,,---,0.84,VWS V14.01,2013-05-18 19:14:00,
2013-05-18 14:15:00,78.5,61.0,29.78,SSE,162,60.0,60.0,55,0.00,,---,0.84,VWS V14.01,2013-05-18 19:15:00,
2013-05-18 14:16:00,78.5,61.5,29.78,SSE,165,60.0,60.0,56,0.00,,---,0.84,VWS V14.01,2013-05-18 19:16:00,
2013-05-18 14:17:00,78.6,61.1,29.78,SE,128,60.0,60.0,55,0.00,,---,0.84,VWS V14.01,2013-05-18 19:17:00,
2013-05-18 14:18:00,78.6,60.6,29.78,ESE,121,60.0,60.0,54,0.00,,---,0.84,VWS V14.01,2013-05-18 19:18:00,
2013-05-18 14:19:00,78.6,60.6,29.78,SE,140,60.0,60.0,54,0.00,,---,0.84,VWS V14.01,2013-05-18 19:19:00,
2013-05-18 14:20:00,78.6,60.1,29.78,South,174,60.0,60.0,53,0.00,,---,0.84,VWS V14.01,2013-05-18 19:20:00,
2013-05-18 14:21:00,78.6,60.1,29.78,South,174,60.0,60.0,53,0.00,,---,0.84,VWS V14.01,2013-05-18 19:21:00,
2013-05-18 14:22:00,78.6,60.1,29.78,SSE,150,60.0,60.0,53,0.00,,---,0.84,VWS V14.01,2013-05-18 19:22:00,
2013-05-18 14:23:00,78.6,59.5,29.78,SSE,150,60.0,60.0,52,0.00,,---,0.84,VWS V14.01,2013-05-18 19:23:00,
2013-05-18 14:24:00,78.6,60.1,29.78,SSW,202,60.0,60.0,53,0.00,,---,0.84,VWS V14.01,2013-05-18 19:24:00,
2013-05-18 14:25:00,78.6,59.5,29.78,South,188,60.0,60.0,52,0.00,,---,0.84,VWS V14.01,2013-05-18 19:25:00,
2013-05-18 14:26:00,78.6,59.5,29.78,South,169,60.0,60.0,52,0.00,,---,0.84,VWS V14.01,2013-05-18 19:26:00,
2013-05-18 14:27:00,78.6,59.0,29.78,South,169,60.0,60.0,51,0.00,,---,0.84,VWS V14.01,2013-05-18 19:27:00,
2013-05-18 14:28:00,78.5,58.9,29.78,SW,219,60.0,60.0,51,0.00,,---,0.84,VWS V14.01,2013-05-18 19:28:00,
2013-05-18 14:29:00,78.5,59.4,29.77,SW,223,60.0,60.0,52,0.00,,---,0.84,VWS V14.01,2013-05-18 19:29:00,
2013-05-18 14:30:00,78.6,60.1,29.77,SW,223,60.0,60.0,53,0.00,,---,0.84,VWS V14.01,2013-05-18 19:30:00,
2013-05-18 14:31:00,78.8,60.2,29.77,ESE,102,60.0,60.0,53,0.00,,---,0.84,VWS V14.01,2013-05-18 19:31:00,
2013-05-18 14:32:00,78.8,60.2,29.77,ESE,102,60.0,60.0,53,0.00,,---,0.84,VWS V14.01,2013-05-18 19:32:00,
2013-05-18 14:33:00,79.0,60.4,29.77,ESE,110,60.0,60.0,53,0.00,,---,0.84,VWS V14.01,2013-05-18 19:33:00,
2013-05-18 14:34:00,79.0,60.4,29.77,SSE,148,60.0,60.0,53,0.00,,---,0.84,VWS V14.01,2013-05-18 19:34:00,
2013-05-18 14:35:00,79.2,60.6,29.77,SSE,148,60.0,60.0,53,0.00,,---,0.84,VWS V14.01,2013-05-18 19:35:00,
2013-05-18 14:36:00,79.2,60.1,29.77,SSE,148,60.0,60.0,52,0.00,,---,0.84,VWS V14.01,2013-05-18 19:36:00,
2013-05-18 14:37:00,79.2,59.5,29.77,SSE,148,60.0,60.0,51,0.00,,---,0.84,VWS V14.01,2013-05-18 19:37:00,
2013-05-18 14:38:00,79.2,60.1,29.77,SE,128,60.0,60.0,52,0.00,,---,0.84,VWS V14.01,2013-05-18 19:38:00,
2013-05-18 14:39:00,79.2,59.5,29.77,East,88,60.0,60.0,51,0.00,,---,0.84,VWS V14.01,2013-05-18 19:39:00,
2013-05-18 14:40:00,79.2,60.1,29.77,East,90,60.0,60.0,52,0.00,,---,0.84,VWS V14.01,2013-05-18 19:40:00,
2013-05-18 14:41:00,79.2,60.1,29.77,East,92,60.0,60.0,52,0.00,,---,0.84,VWS V14.01,2013-05-18 19:41:00,
2013-05-18 14:42:00,79.4,60.3,29.77,East,92,60.0,60.0,52,0.00,,---,0.84,VWS V14.01,2013-05-18 19:42:00,
2013-05-18 14:43:00,79.6,60.4,29.77,East,89,60.0,60.0,52,0.00,,---,0.84,VWS V14.01,2013-05-18 19:43:00,
2013-05-18 14:44:00,79.8,60.1,29.77,East,89,60.0,60.0,51,0.00,,---,0.84,VWS V14.01,2013-05-18 19:44:00,
2013-05-18 14:45:00,79.9,60.2,29.77,East,88,60.0,60.0,51,0.00,,---,0.84,VWS V14.01,2013-05-18 19:45:00,
2013-05-18 14:46:00,79.9,59.6,29.77,East,89,60.0,60.0,50,0.00,,---,0.84,VWS V14.01,2013-05-18 19:46:00,
2013-05-18 14:47:00,79.9,59.0,29.77,East,88,60.0,60.0,49,0.00,,---,0.84,VWS V14.01,2013-05-18 19:47:00,
2013-05-18 14:48:00,79.9,59.0,29.77,East,92,60.0,60.0,49,0.00,,---,0.84,VWS V14.01,2013-05-18 19:48:00,
2013-05-18 14:49:00,80.1,59.8,29.77,East,90,60.0,60.0,50,0.00,,---,0.84,VWS V14.01,2013-05-18 19:49:00,
2013-05-18 14:50:00,80.1,59.2,29.77,East,92,60.0,60.0,49,0.00,,---,0.84,VWS V14.01,2013-05-18 19:50:00,
2013-05-18 14:51:00,80.1,59.2,29.77,East,93,60.0,60.0,49,0.00,,---,0.84,VWS V14.01,2013-05-18 19:51:00,
2013-05-18 14:52:00,79.9,59.6,29.77,East,96,60.0,60.0,50,0.00,,---,0.84,VWS V14.01,2013-05-18 19:52:00,
2013-05-18 14:53:00,79.9,59.0,29.77,East,92,60.0,60.0,49,0.00,,---,0.84,VWS V14.01,2013-05-18 19:53:00,
2013-05-18 14:54:00,79.9,60.2,29.77,ESE,113,60.0,60.0,51,0.00,,---,0.84,VWS V14.01,2013-05-18 19:54:00,
2013-05-18 14:55:00,80.1,59.8,29.77,South,178,60.0,60.0,50,0.00,,---,0.84,VWS V14.01,2013-05-18 19:55:00,
2013-05-18 14:56:00,80.3,60.0,29.77,South,178,60.0,60.0,50,0.00,,---,0.84,VWS V14.01,2013-05-18 19:56:00,
2013-05-18 14:57:00,80.3,58.8,29.77,South,178,60.0,60.0,48,0.00,,---,0.84,VWS V14.01,2013-05-18 19:57:00,
2013-05-18 14:58:00,80.5,59.0,29.77,South,178,60.0,60.0,48,0.00,,---,0.84,VWS V14.01,2013-05-18 19:58:00,
2013-05-18 14:59:00,80.7,59.2,29.77,South,178,60.0,60.0,48,0.00,,---,0.84,VWS V14.01,2013-05-18 19:59:00,
2013-05-18 15:00:00,80.9,58.8,29.77,SSW,213,60.0,60.0,47,0.00,,---,0.84,VWS V14.01,2013-05-18 20:00:00,
2013-05-18 15:01:00,80.9,58.8,29.77,South,191,60.0,60.0,47,0.00,,---,0.84,VWS V14.01,2013-05-18 20:01:00,
2013-05-18 15:02:00,80.9,58.8,29.77,South,191,60.0,60.0,47,0.00,,---,0.84,VWS V14.01,2013-05-18 20:02:00,
2013-05-18 15:03:00,81.1,59.0,29.77,SSW,198,60.0,60.0,47,0.00,,---,0.84,VWS V14.01,2013-05-18 20:03:00,
2013-05-18 15:04:00,81.1,59.0,29.77,SSW,198,60.0,60.0,47,0.00,,---,0.84,VWS V14.01,2013-05-18 20:04:00,
2013-05-18 15:05:00,81.2,59.7,29.77,East,92,60.0,60.0,48,0.00,,---,0.84,VWS V14.01,2013-05-18 20:05:00,
2013-05-18 15:06:00,81.1,59.6,29.77,East,85,60.0,60.0,48,0.00,,---,0.84,VWS V14.01,2013-05-18 20:06:00,
2013-05-18 15:07:00,80.9,60.0,29.77,SSE,165,60.0,60.0,49,0.00,,---,0.84,VWS V14.01,2013-05-18 20:07:00,
2013-05-18 15:08:00,80.9,60.0,29.77,SSE,160,60.0,60.0,49,0.00,,---,0.84,VWS V14.01,2013-05-18 20:08:00,
2013-05-18 15:09:00,80.9,60.5,29.77,SSE,160,60.0,60.0,50,0.00,,---,0.84,VWS V14.01,2013-05-18 20:09:00,
2013-05-18 15:10:00,81.1,60.7,29.77,SSE,160,60.0,60.0,50,0.00,,---,0.84,VWS V14.01,2013-05-18 20:10:00,
2013-05-18 15:11:00,81.1,60.2,29.77,SSE,160,60.0,60.0,49,0.00,,---,0.84,VWS V14.01,2013-05-18 20:11:00,
2013-05-18 15:12:00,81.2,60.2,29.77,SSE,160,60.0,60.0,49,0.00,,---,0.84,VWS V14.01,2013-05-18 20:12:00,
2013-05-18 15:13:00,81.2,60.2,29.77,ESE,119,60.0,60.0,49,0.00,,---,0.84,VWS V14.01,2013-05-18 20:13:00,
2013-05-18 15:14:00,81.1,59.0,29.77,ESE,119,60.0,60.0,47,0.00,,---,0.84,VWS V14.01,2013-05-18 20:14:00,
2013-05-18 15:15:00,81.1,59.6,29.77,ESE,119,60.0,60.0,48,0.00,,---,0.84,VWS V14.01,2013-05-18 20:15:00,
2013-05-18 15:16:00,81.1,59.0,29.77,ESE,119,60.0,60.0,47,0.00,,---,0.84,VWS V14.01,2013-05-18 20:16:00,
2013-05-18 15:17:00,81.1,59.6,29.77,ESE,119,60.0,60.0,48,0.00,,---,0.84,VWS V14.01,2013-05-18 20:17:00,
2013-05-18 15:18:00,81.2,59.1,29.77,ESE,119,60.0,60.0,47,0.00,,---,0.84,VWS V14.01,2013-05-18 20:18:00,
2013-05-18 15:19:00,81.2,59.1,29.77,ESE,120,60.0,60.0,47,0.00,,---,0.84,VWS V14.01,2013-05-18 20:19:00,
2013-05-18 15:20:00,81.4,59.8,29.77,ESE,119,60.0,60.0,48,0.00,,---,0.84,VWS V14.01,2013-05-18 20:20:00,
2013-05-18 15:21:00,81.4,59.3,29.77,ESE,119,60.0,60.0,47,0.00,,---,0.84,VWS V14.01,2013-05-18 20:21:00,
2013-05-18 15:22:00,81.4,58.7,29.77,ESE,119,60.0,60.0,46,0.00,,---,0.84,VWS V14.01,2013-05-18 20:22:00,
2013-05-18 15:23:00,81.4,59.3,29.77,ESE,119,60.0,60.0,47,0.00,,---,0.84,VWS V14.01,2013-05-18 20:23:00,
2013-05-18 15:24:00,81.4,59.8,29.77,ESE,119,60.0,60.0,48,0.00,,---,0.84,VWS V14.01,2013-05-18 20:24:00,
2013-05-18 15:25:00,81.4,58.7,29.77,ESE,119,60.0,60.0,46,0.00,,---,0.84,VWS V14.01,2013-05-18 20:25:00,
2013-05-18 15:26:00,81.6,59.4,29.77,ESE,119,60.0,60.0,47,0.00,,---,0.84,VWS V14.01,2013-05-18 20:26:00,
2013-05-18 15:27:00,81.6,58.8,29.77,ESE,119,60.0,60.0,46,0.00,,---,0.84,VWS V14.01,2013-05-18 20:27:00,
2013-05-18 15:28:00,81.8,58.4,29.77,ESE,119,60.0,60.0,45,0.00,,---,0.84,VWS V14.01,2013-05-18 20:28:00,
2013-05-18 15:29:00,82.0,59.2,29.77,ESE,119,60.0,60.0,46,0.00,,---,0.84,VWS V14.01,2013-05-18 20:29:00,
2013-05-18 15:30:00,82.2,58.8,29.77,SSW,206,60.0,60.0,45,0.00,,---,0.84,VWS V14.01,2013-05-18 20:30:00,
2013-05-18 15:31:00,82.2,59.4,29.77,SSW,206,60.0,60.0,46,0.00,,---,0.84,VWS V14.01,2013-05-18 20:31:00,
2013-05-18 15:32:00,82.4,59.0,29.77,SSW,206,60.0,60.0,45,0.00,,---,0.84,VWS V14.01,2013-05-18 20:32:00,
2013-05-18 15:33:00,82.6,59.1,29.77,SSW,206,60.0,60.0,45,0.00,,---,0.84,VWS V14.01,2013-05-18 20:33:00,
2013-05-18 15:34:00,82.6,58.5,29.77,ESE,106,60.0,60.0,44,0.00,,---,0.84,VWS V14.01,2013-05-18 20:34:00,
2013-05-18 15:35:00,82.4,58.3,29.77,ESE,106,60.0,60.0,44,0.00,,---,0.84,VWS V14.01,2013-05-18 20:35:00,
2013-05-18 15:36:00,82.4,59.0,29.77,ESE,109,60.0,60.0,45,0.00,,---,0.84,VWS V14.01,2013-05-18 20:36:00,
2013-05-18 15:37:00,82.6,58.5,29.77,ESE,109,60.0,60.0,44,0.00,,---,0.84,VWS V14.01,2013-05-18 20:37:00,
2013-05-18 15:38:00,82.6,58.5,29.77,South,184,60.0,60.0,44,0.00,,---,0.84,VWS V14.01,2013-05-18 20:38:00,
2013-05-18 15:39:00,82.8,58.0,29.77,West,278,60.0,60.0,43,0.00,,---,0.84,VWS V14.01,2013-05-18 20:39:00,
2013-05-18 15:40:00,82.8,58.0,29.77,West,272,60.0,60.0,43,0.00,,---,0.84,VWS V14.01,2013-05-18 20:40:00,
2013-05-18 15:41:00,83.0,56.9,29.77,West,272,60.0,60.0,41,0.00,,---,0.84,VWS V14.01,2013-05-18 20:41:00,
2013-05-18 15:42:00,83.0,56.9,29.77,West,272,60.0,60.0,41,0.00,,---,0.84,VWS V14.01,2013-05-18 20:42:00,
2013-05-18 15:43:00,83.0,57.6,29.77,West,274,60.0,60.0,42,0.00,,---,0.84,VWS V14.01,2013-05-18 20:43:00,
2013-05-18 15:44:00,83.0,56.9,29.77,West,274,60.0,60.0,41,0.00,,---,0.84,VWS V14.01,2013-05-18 20:44:00,
2013-05-18 15:45:00,83.0,56.9,29.77,SW,227,60.0,60.0,41,0.00,,---,0.84,VWS V14.01,2013-05-18 20:45:00,
2013-05-18 15:46:00,83.2,57.1,29.77,SW,227,60.0,60.0,41,0.00,,---,0.84,VWS V14.01,2013-05-18 20:46:00,
2013-05-18 15:47:00,83.2,57.8,29.77,SW,227,60.0,60.0,42,0.00,,---,0.84,VWS V14.01,2013-05-18 20:47:00,
2013-05-18 15:48:00,83.4,57.3,29.77,SW,227,60.0,60.0,41,0.00,,---,0.84,VWS V14.01,2013-05-18 20:48:00,
2013-05-18 15:49:00,83.6,58.1,29.77,SW,227,60.0,60.0,42,0.00,,---,0.84,VWS V14.01,2013-05-18 20:49:00,
2013-05-18 15:50:00,83.8,58.3,29.77,SW,227,60.0,60.0,42,0.00,,---,0.84,VWS V14.01,2013-05-18 20:50:00,
2013-05-18 15:51:00,84.0,57.8,29.77,SW,227,60.0,60.0,41,0.00,,---,0.84,VWS V14.01,2013-05-18 20:51:00,
2013-05-18 15:52:00,84.1,57.2,29.77,SW,227,60.0,60.0,40,0.00,,---,0.84,VWS V14.01,2013-05-18 20:52:00,
2013-05-18 15:53:00,84.3,58.1,29.77,SW,227,60.0,60.0,41,0.00,,---,0.84,VWS V14.01,2013-05-18 20:53:00,
2013-05-18 15:54:00,84.3,56.7,29.77,SW,226,60.0,60.0,39,0.00,,---,0.84,VWS V14.01,2013-05-18 20:54:00,
2013-05-18 15:55:00,84.5,57.5,29.77,SW,224,60.0,60.0,40,0.00,,---,0.84,VWS V14.01,2013-05-18 20:55:00,
2013-05-18 15:56:00,84.5,56.8,29.77,SW,224,60.0,60.0,39,0.00,,---,0.84,VWS V14.01,2013-05-18 20:56:00,
2013-05-18 15:58:00,84.5,56.8,29.77,WSW,243,60.0,60.0,39,0.00,,---,0.84,VWS V14.01,2013-05-18 20:58:00,
2013-05-18 15:59:00,84.5,56.8,29.77,WSW,243,60.0,60.0,39,0.00,,---,0.84,VWS V14.01,2013-05-18 20:59:00,
2013-05-18 16:00:00,84.5,57.5,29.76,WSW,243,60.0,60.0,40,0.00,,---,0.84,VWS V14.01,2013-05-18 21:00:00,
2013-05-18 16:01:00,84.5,56.8,29.76,WSW,257,60.0,60.0,39,0.00,,---,0.84,VWS V14.01,2013-05-18 21:01:00,
2013-05-18 16:02:00,84.5,56.1,29.76,West,280,60.0,60.0,38,0.00,,---,0.84,VWS V14.01,2013-05-18 21:02:00,
2013-05-18 16:03:00,84.5,56.1,29.76,West,275,60.0,60.0,38,0.00,,---,0.84,VWS V14.01,2013-05-18 21:03:00,
2013-05-18 16:04:00,84.5,56.1,29.76,West,275,60.0,60.0,38,0.00,,---,0.84,VWS V14.01,2013-05-18 21:04:00,
2013-05-18 16:05:00,84.7,56.3,29.76,West,275,60.0,60.0,38,0.00,,---,0.84,VWS V14.01,2013-05-18 21:05:00,
2013-05-18 16:06:00,84.7,56.3,29.76,West,275,60.0,60.0,38,0.00,,---,0.84,VWS V14.01,2013-05-18 21:06:00,
2013-05-18 16:07:00,84.7,56.3,29.76,West,275,60.0,60.0,38,0.00,,---,0.84,VWS V14.01,2013-05-18 21:07:00,
2013-05-18 16:08:00,84.7,55.6,29.76,West,277,60.0,60.0,37,0.00,,---,0.84,VWS V14.01,2013-05-18 21:08:00,
2013-05-18 16:09:00,84.7,56.3,29.76,West,277,60.0,60.0,38,0.00,,---,0.84,VWS V14.01,2013-05-18 21:09:00,
2013-05-18 16:10:00,84.7,56.3,29.76,West,275,60.0,60.0,38,0.00,,---,0.84,VWS V14.01,2013-05-18 21:10:00,
2013-05-18 16:11:00,84.7,56.3,29.76,West,277,60.0,60.0,38,0.00,,---,0.84,VWS V14.01,2013-05-18 21:11:00,
2013-05-18 16:12:00,84.7,56.3,29.76,West,275,60.0,60.0,38,0.00,,---,0.84,VWS V14.01,2013-05-18 21:12:00,
2013-05-18 16:13:00,84.5,56.1,29.76,West,275,60.0,60.0,38,0.00,,---,0.84,VWS V14.01,2013-05-18 21:13:00,
2013-05-18 16:14:00,84.5,56.8,29.76,West,277,60.0,60.0,39,0.00,,---,0.84,VWS V14.01,2013-05-18 21:14:00,
2013-05-18 16:15:00,84.5,56.8,29.76,West,275,60.0,60.0,39,0.00,,---,0.84,VWS V14.01,2013-05-18 21:15:00,
2013-05-18 16:16:00,84.5,56.8,29.76,West,275,60.0,60.0,39,0.00,,---,0.84,VWS V14.01,2013-05-18 21:16:00,
2013-05-18 16:17:00,84.5,56.1,29.76,West,275,60.0,60.0,38,0.00,,---,0.84,VWS V14.01,2013-05-18 21:17:00,
2013-05-18 16:18:00,84.5,56.1,29.76,West,277,60.0,60.0,38,0.00,,---,0.84,VWS V14.01,2013-05-18 21:18:00,
2013-05-18 16:19:00,84.5,56.1,29.76,West,275,60.0,60.0,38,0.00,,---,0.84,VWS V14.01,2013-05-18 21:19:00,
2013-05-18 16:20:00,84.5,56.8,29.76,West,275,60.0,60.0,39,0.00,,---,0.84,VWS V14.01,2013-05-18 21:20:00,
2013-05-18 16:21:00,84.5,56.8,29.76,West,277,60.0,60.0,39,0.00,,---,0.84,VWS V14.01,2013-05-18 21:21:00,
2013-05-18 16:22:00,84.5,57.5,29.76,West,275,60.0,60.0,40,0.00,,---,0.84,VWS V14.01,2013-05-18 21:22:00,
2013-05-18 16:23:00,84.5,58.2,29.76,West,275,60.0,60.0,41,0.00,,---,0.84,VWS V14.01,2013-05-18 21:23:00,
2013-05-18 16:24:00,84.7,57.7,29.76,West,275,60.0,60.0,40,0.00,,---,0.84,VWS V14.01,2013-05-18 21:24:00,
2013-05-18 16:25:00,84.7,57.7,29.76,West,275,60.0,60.0,40,0.00,,---,0.84,VWS V14.01,2013-05-18 21:25:00,
2013-05-18 16:26:00,84.7,57.7,29.76,West,275,60.0,60.0,40,0.00,,---,0.84,VWS V14.01,2013-05-18 21:26:00,
2013-05-18 16:27:00,84.5,56.1,29.76,West,275,60.0,60.0,38,0.00,,---,0.84,VWS V14.01,2013-05-18 21:27:00,
2013-05-18 16:28:00,84.3,56.0,29.76,West,275,60.0,60.0,38,0.00,,---,0.84,VWS V14.01,2013-05-18 21:28:00,
2013-05-18 16:29:00,84.1,56.5,29.76,West,277,60.0,60.0,39,0.00,,---,0.84,VWS V14.01,2013-05-18 21:29:00,
2013-05-18 16:30:00,84.1,56.5,29.76,West,275,60.0,60.0,39,0.00,,---,0.84,VWS V14.01,2013-05-18 21:30:00,
2013-05-18 16:31:00,84.1,57.2,29.76,West,275,60.0,60.0,40,0.00,,---,0.84,VWS V14.01,2013-05-18 21:31:00,
2013-05-18 16:32:00,84.1,57.9,29.76,West,275,60.0,60.0,41,0.00,,---,0.84,VWS V14.01,2013-05-18 21:32:00,
2013-05-18 16:33:00,84.3,56.7,29.76,West,275,60.0,60.0,39,0.00,,---,0.84,VWS V14.01,2013-05-18 21:33:00,
2013-05-18 16:34:00,84.3,56.7,29.76,West,275,60.0,60.0,39,0.00,,---,0.84,VWS V14.01,2013-05-18 21:34:00,
2013-05-18 16:35:00,84.1,56.5,29.76,West,275,60.0,60.0,39,0.00,,---,0.84,VWS V14.01,2013-05-18 21:35:00,
2013-05-18 16:36:00,84.1,57.2,29.76,West,275,60.0,60.0,40,0.00,,---,0.84,VWS V14.01,2013-05-18 21:36:00,
2013-05-18 16:37:00,84.3,58.1,29.76,West,275,60.0,60.0,41,0.00,,---,0.84,VWS V14.01,2013-05-18 21:37:00,
2013-05-18 16:38:00,84.3,56.0,29.76,West,275,60.0,60.0,38,0.00,,---,0.84,VWS V14.01,2013-05-18 21:38:00,
2013-05-18 16:39:00,84.5,56.8,29.76,West,275,60.0,60.0,39,0.00,,---,0.84,VWS V14.01,2013-05-18 21:39:00,
2013-05-18 16:40:00,84.7,56.3,29.76,West,275,60.0,60.0,38,0.00,,---,0.84,VWS V14.01,2013-05-18 21:40:00,
2013-05-18 16:41:00,84.7,56.3,29.76,West,275,60.0,60.0,38,0.00,,---,0.84,VWS V14.01,2013-05-18 21:41:00,
2013-05-18 16:42:00,84.9,55.8,29.76,West,275,60.0,60.0,37,0.00,,---,0.84,VWS V14.01,2013-05-18 21:42:00,
2013-05-18 16:43:00,84.9,55.8,29.76,West,275,60.0,60.0,37,0.00,,---,0.84,VWS V14.01,2013-05-18 21:43:00,
2013-05-18 16:44:00,85.1,56.7,29.76,West,275,60.0,60.0,38,0.00,,---,0.84,VWS V14.01,2013-05-18 21:44:00,
2013-05-18 16:45:00,85.1,55.2,29.76,West,277,60.0,60.0,36,0.00,,---,0.84,VWS V14.01,2013-05-18 21:45:00,
2013-05-18 16:46:00,85.1,55.2,29.76,West,275,60.0,60.0,36,0.00,,---,0.84,VWS V14.01,2013-05-18 21:46:00,
2013-05-18 16:47:00,85.3,55.3,29.76,West,275,60.0,60.0,36,0.00,,---,0.84,VWS V14.01,2013-05-18 21:47:00,
2013-05-18 16:48:00,85.3,55.3,29.76,West,275,60.0,60.0,36,0.00,,---,0.84,VWS V14.01,2013-05-18 21:48:00,
2013-05-18 16:49:00,85.3,56.1,29.76,West,275,60.0,60.0,37,0.00,,---,0.84,VWS V14.01,2013-05-18 21:49:00,
2013-05-18 16:50:00,85.3,55.3,29.76,West,277,60.0,60.0,36,0.00,,---,0.84,VWS V14.01,2013-05-18 21:50:00,
2013-05-18 16:51:00,85.3,56.1,29.76,West,277,60.0,60.0,37,0.00,,---,0.84,VWS V14.01,2013-05-18 21:51:00,
2013-05-18 16:52:00,85.3,55.3,29.76,West,275,60.0,60.0,36,0.00,,---,0.84,VWS V14.01,2013-05-18 21:52:00,
2013-05-18 16:53:00,85.1,55.9,29.76,West,275,60.0,60.0,37,0.00,,---,0.84,VWS V14.01,2013-05-18 21:53:00,
2013-05-18 16:54:00,85.1,55.9,29.76,West,277,60.0,60.0,37,0.00,,---,0.84,VWS V14.01,2013-05-18 21:54:00,
2013-05-18 16:55:00,84.9,55.8,29.76,West,275,60.0,60.0,37,0.00,,---,0.84,VWS V14.01,2013-05-18 21:55:00,
2013-05-18 16:56:00,84.9,56.5,29.76,West,275,60.0,60.0,38,0.00,,---,0.84,VWS V14.01,2013-05-18 21:56:00,
2013-05-18 16:57:00,84.9,56.5,29.76,West,271,60.0,60.0,38,0.00,,---,0.84,VWS V14.01,2013-05-18 21:57:00,
2013-05-18 16:58:00,84.7,56.3,29.76,West,270,60.0,60.0,38,0.00,,---,0.84,VWS V14.01,2013-05-18 21:58:00,
2013-05-18 16:59:00,84.7,56.3,29.76,West,270,60.0,60.0,38,0.00,,---,0.84,VWS V14.01,2013-05-18 21:59:00,
2013-05-18 17:00:00,84.7,56.3,29.76,West,270,60.0,60.0,38,0.00,,---,0.84,VWS V14.01,2013-05-18 22:00:00,
2013-05-18 17:01:00,84.5,56.1,29.76,West,270,60.0,60.0,38,0.00,,---,0.84,VWS V14.01,2013-05-18 22:01:00,
2013-05-18 17:02:00,84.5,56.8,29.76,West,270,60.0,60.0,39,0.00,,---,0.84,VWS V14.01,2013-05-18 22:02:00,
2013-05-18 17:03:00,84.5,56.1,29.76,West,270,60.0,60.0,38,0.00,,---,0.84,VWS V14.01,2013-05-18 22:03:00,
2013-05-18 17:04:00,84.3,56.7,29.76,West,270,60.0,60.0,39,0.00,,---,0.84,VWS V14.01,2013-05-18 22:04:00,
2013-05-18 17:05:00,84.3,57.4,29.76,West,270,60.0,60.0,40,0.00,,---,0.84,VWS V14.01,2013-05-18 22:05:00,
2013-05-18 17:06:00,84.3,57.4,29.76,West,270,60.0,60.0,40,0.00,,---,0.84,VWS V14.01,2013-05-18 22:06:00,
2013-05-18 17:07:00,84.3,56.7,29.76,West,270,60.0,60.0,39,0.00,,---,0.84,VWS V14.01,2013-05-18 22:07:00,
2013-05-18 17:08:00,84.1,56.5,29.76,West,270,60.0,60.0,39,0.00,,---,0.84,VWS V14.01,2013-05-18 22:08:00,
2013-05-18 17:09:00,84.1,57.9,29.76,West,270,60.0,60.0,41,0.00,,---,0.84,VWS V14.01,2013-05-18 22:09:00,
2013-05-18 17:10:00,84.0,56.4,29.76,West,270,60.0,60.0,39,0.00,,---,0.84,VWS V14.01,2013-05-18 22:10:00,
2013-05-18 17:11:00,84.0,57.8,29.76,West,270,60.0,60.0,41,0.00,,---,0.84,VWS V14.01,2013-05-18 22:11:00,
2013-05-18 17:12:00,83.8,56.9,29.76,West,270,60.0,60.0,40,0.00,,---,0.84,VWS V14.01,2013-05-18 22:12:00,
2013-05-18 17:13:00,84.0,57.1,29.76,West,270,60.0,60.0,40,0.00,,---,0.84,VWS V14.01,2013-05-18 22:13:00,
2013-05-18 17:14:00,84.0,57.1,29.76,West,270,60.0,60.0,40,0.00,,---,0.84,VWS V14.01,2013-05-18 22:14:00,
2013-05-18 17:15:00,84.0,57.8,29.76,West,270,60.0,60.0,41,0.00,,---,0.84,VWS V14.01,2013-05-18 22:15:00,
2013-05-18 17:16:00,84.1,57.9,29.76,West,270,60.0,60.0,41,0.00,,---,0.84,VWS V14.01,2013-05-18 22:16:00,
2013-05-18 17:17:00,84.1,56.5,29.76,West,270,60.0,60.0,39,0.00,,---,0.84,VWS V14.01,2013-05-18 22:17:00,
2013-05-18 17:18:00,84.1,56.5,29.76,West,270,60.0,60.0,39,0.00,,---,0.84,VWS V14.01,2013-05-18 22:18:00,
2013-05-18 17:19:00,84.1,56.5,29.76,West,270,60.0,60.0,39,0.00,,---,0.84,VWS V14.01,2013-05-18 22:19:00,
2013-05-18 17:20:00,84.1,55.8,29.76,West,270,60.0,60.0,38,0.00,,---,0.84,VWS V14.01,2013-05-18 22:20:00,
2013-05-18 17:21:00,84.1,55.8,29.76,West,270,60.0,60.0,38,0.00,,---,0.84,VWS V14.01,2013-05-18 22:21:00,
2013-05-18 17:22:00,84.1,57.2,29.76,West,270,60.0,60.0,40,0.00,,---,0.84,VWS V14.01,2013-05-18 22:22:00,
2013-05-18 17:23:00,84.1,56.5,29.76,West,270,60.0,60.0,39,0.00,,---,0.84,VWS V14.01,2013-05-18 22:23:00,
2013-05-18 17:24:00,84.1,56.5,29.76,West,270,60.0,60.0,39,0.00,,---,0.84,VWS V14.01,2013-05-18 22:24:00,
2013-05-18 17:25:00,84.3,56.7,29.76,West,270,60.0,60.0,39,0.00,,---,0.84,VWS V14.01,2013-05-18 22:25:00,
2013-05-18 17:26:00,84.3,56.7,29.76,West,270,60.0,60.0,39,0.00,,---,0.84,VWS V14.01,2013-05-18 22:26:00,
2013-05-18 17:27:00,84.5,57.5,29.76,West,270,60.0,60.0,40,0.00,,---,0.84,VWS V14.01,2013-05-18 22:27:00,
2013-05-18 17:28:00,84.5,58.2,29.76,West,270,60.0,60.0,41,0.00,,---,0.84,VWS V14.01,2013-05-18 22:28:00,
2013-05-18 17:29:00,84.5,57.5,29.76,West,270,60.0,60.0,40,0.00,,---,0.84,VWS V14.01,2013-05-18 22:29:00,
2013-05-18 17:30:00,84.5,56.8,29.76,WNW,296,60.0,60.0,39,0.00,,---,0.84,VWS V14.01,2013-05-18 22:30:00,
2013-05-18 17:31:00,84.3,57.4,29.76,North,352,60.0,60.0,40,0.00,,---,0.84,VWS V14.01,2013-05-18 22:31:00,
2013-05-18 17:32:00,84.1,56.5,29.76,North,353,60.0,60.0,39,0.00,,---,0.84,VWS V14.01,2013-05-18 22:32:00,
2013-05-18 17:33:00,84.0,56.4,29.76,North,354,60.0,60.0,39,0.00,,---,0.84,VWS V14.01,2013-05-18 22:33:00,
2013-05-18 17:34:00,83.8,56.9,29.76,North,354,60.0,60.0,40,0.00,,---,0.84,VWS V14.01,2013-05-18 22:34:00,
2013-05-18 17:35:00,83.4,56.6,29.76,North,354,60.0,60.0,40,0.00,,---,0.84,VWS V14.01,2013-05-18 22:35:00,
2013-05-18 17:36:00,83.2,56.4,29.76,NNE,17,60.0,60.0,40,0.00,,---,0.84,VWS V14.01,2013-05-18 22:36:00,
2013-05-18 17:37:00,82.8,56.0,29.76,NNE,25,60.0,60.0,40,0.00,,---,0.84,VWS V14.01,2013-05-18 22:37:00,
2013-05-18 17:38:00,82.8,56.7,29.76,NNE,25,60.0,60.0,41,0.00,,---,0.84,VWS V14.01,2013-05-18 22:38:00,
2013-05-18 17:39:00,82.8,56.0,29.76,NNE,25,60.0,60.0,40,0.00,,---,0.84,VWS V14.01,2013-05-18 22:39:00,
2013-05-18 17:40:00,82.6,55.9,29.76,NNE,25,60.0,60.0,40,0.00,,---,0.84,VWS V14.01,2013-05-18 22:40:00,
2013-05-18 17:41:00,82.6,56.5,29.76,NNE,17,60.0,60.0,41,0.00,,---,0.84,VWS V14.01,2013-05-18 22:41:00,
2013-05-18 17:42:00,82.6,56.5,29.76,NNE,17,60.0,60.0,41,0.00,,---,0.84,VWS V14.01,2013-05-18 22:42:00,
2013-05-18 17:43:00,82.6,56.5,29.76,NNE,17,60.0,60.0,41,0.00,,---,0.84,VWS V14.01,2013-05-18 22:43:00,
2013-05-18 17:44:00,82.4,56.4,29.76,NNE,17,60.0,60.0,41,0.00,,---,0.84,VWS V14.01,2013-05-18 22:44:00,
2013-05-18 17:45:00,82.4,56.4,29.76,NNE,17,60.0,60.0,41,0.00,,---,0.84,VWS V14.01,2013-05-18 22:45:00,
2013-05-18 17:46:00,82.4,57.0,29.76,NW,306,60.0,60.0,42,0.00,,---,0.84,VWS V14.01,2013-05-18 22:46:00,
2013-05-18 17:47:00,82.6,56.5,29.76,NW,306,60.0,60.0,41,0.00,,---,0.84,VWS V14.01,2013-05-18 22:47:00,
2013-05-18 17:48:00,82.6,56.5,29.76,NW,306,60.0,60.0,41,0.00,,---,0.84,VWS V14.01,2013-05-18 22:48:00,
2013-05-18 17:49:00,82.8,56.0,29.76,NW,306,60.0,60.0,40,0.00,,---,0.84,VWS V14.01,2013-05-18 22:49:00,
2013-05-18 17:50:00,82.8,56.7,29.76,NW,306,60.0,60.0,41,0.00,,---,0.84,VWS V14.01,2013-05-18 22:50:00,
2013-05-18 17:51:00,82.8,56.7,29.76,NW,306,60.0,60.0,41,0.00,,---,0.84,VWS V14.01,2013-05-18 22:51:00,
2013-05-18 17:52:00,83.0,56.2,29.76,NW,306,60.0,60.0,40,0.00,,---,0.84,VWS V14.01,2013-05-18 22:52:00,
2013-05-18 17:53:00,83.2,57.1,29.76,NW,306,60.0,60.0,41,0.00,,---,0.84,VWS V14.01,2013-05-18 22:53:00,
2013-05-18 17:54:00,83.2,57.1,29.76,NW,306,60.0,60.0,41,0.00,,---,0.84,VWS V14.01,2013-05-18 22:54:00,
2013-05-18 17:55:00,83.2,57.1,29.76,NW,306,60.0,60.0,41,0.00,,---,0.84,VWS V14.01,2013-05-18 22:55:00,
2013-05-18 17:56:00,83.2,56.4,29.76,NW,308,60.0,60.0,40,0.00,,---,0.84,VWS V14.01,2013-05-18 22:56:00,
2013-05-18 17:57:00,83.0,56.2,29.76,NW,319,60.0,60.0,40,0.00,,---,0.84,VWS V14.01,2013-05-18 22:57:00,
2013-05-18 17:58:00,83.0,56.2,29.76,NW,325,60.0,60.0,40,0.00,,---,0.84,VWS V14.01,2013-05-18 22:58:00,
2013-05-18 17:59:00,83.0,56.2,29.76,NE,40,60.0,60.0,40,0.00,,---,0.84,VWS V14.01,2013-05-18 22:59:00,
2013-05-18 18:00:00,82.8,56.7,29.76,NE,51,60.0,60.0,41,0.00,,---,0.84,VWS V14.01,2013-05-18 23:00:00,
2013-05-18 18:01:00,82.6,56.5,29.76,NE,52,60.0,60.0,41,0.00,,---,0.84,VWS V14.01,2013-05-18 23:01:00,
2013-05-18 18:02:00,82.4,56.4,29.76,NE,52,60.0,60.0,41,0.00,,---,0.84,VWS V14.01,2013-05-18 23:02:00,
2013-05-18 18:03:00,82.4,56.4,29.76,NE,52,60.0,60.0,41,0.00,,---,0.84,VWS V14.01,2013-05-18 23:03:00,
2013-05-18 18:04:00,82.4,56.4,29.76,NE,52,60.0,60.0,41,0.00,,---,0.84,VWS V14.01,2013-05-18 23:04:00,
2013-05-18 18:05:00,82.2,56.8,29.76,NE,47,60.0,60.0,42,0.00,,---,0.84,VWS V14.01,2013-05-18 23:05:00,
2013-05-18 18:06:00,82.2,56.8,29.76,NE,55,60.0,60.0,42,0.00,,---,0.84,VWS V14.01,2013-05-18 23:06:00,
2013-05-18 18:07:00,82.2,56.8,29.76,NE,55,60.0,60.0,42,0.00,,---,0.84,VWS V14.01,2013-05-18 23:07:00,
2013-05-18 18:08:00,82.0,56.7,29.76,NE,55,60.0,60.0,42,0.00,,---,0.84,VWS V14.01,2013-05-18 23:08:00,
2013-05-18 18:09:00,82.0,56.7,29.76,NE,37,60.0,60.0,42,0.00,,---,0.84,VWS V14.01,2013-05-18 23:09:00,
2013-05-18 18:10:00,82.0,57.3,29.76,NE,37,60.0,60.0,43,0.00,,---,0.84,VWS V14.01,2013-05-18 23:10:00,
2013-05-18 18:11:00,82.0,57.3,29.76,NNE,31,60.0,60.0,43,0.00,,---,0.84,VWS V14.01,2013-05-18 23:11:00,
2013-05-18 18:12:00,82.0,56.7,29.76,NNE,31,60.0,60.0,42,0.00,,---,0.84,VWS V14.01,2013-05-18 23:12:00,
2013-05-18 18:13:00,82.0,56.7,29.76,NNE,32,60.0,60.0,42,0.00,,---,0.84,VWS V14.01,2013-05-18 23:13:00,
2013-05-18 18:14:00,82.0,56.7,29.76,NNE,31,60.0,60.0,42,0.00,,---,0.84,VWS V14.01,2013-05-18 23:14:00,
2013-05-18 18:15:00,82.0,56.7,29.76,NNE,32,60.0,60.0,42,0.00,,---,0.84,VWS V14.01,2013-05-18 23:15:00,
2013-05-18 18:16:00,81.8,56.5,29.76,NNE,32,60.0,60.0,42,0.00,,---,0.84,VWS V14.01,2013-05-18 23:16:00,
2013-05-18 18:17:00,81.8,56.5,29.76,NNE,32,60.0,60.0,42,0.00,,---,0.84,VWS V14.01,2013-05-18 23:17:00,
2013-05-18 18:18:00,81.8,56.5,29.76,NNE,32,60.0,60.0,42,0.00,,---,0.84,VWS V14.01,2013-05-18 23:18:00,
2013-05-18 18:19:00,81.8,56.5,29.76,NNE,32,60.0,60.0,42,0.00,,---,0.84,VWS V14.01,2013-05-18 23:19:00,
2013-05-18 18:20:00,81.8,56.5,29.76,NNE,32,60.0,60.0,42,0.00,,---,0.84,VWS V14.01,2013-05-18 23:20:00,
2013-05-18 18:21:00,81.8,56.5,29.76,NNE,32,60.0,60.0,42,0.00,,---,0.84,VWS V14.01,2013-05-18 23:21:00,
2013-05-18 18:22:00,81.8,56.5,29.76,NE,40,60.0,60.0,42,0.00,,---,0.84,VWS V14.01,2013-05-18 23:22:00,
2013-05-18 18:23:00,81.6,57.0,29.76,NE,41,60.0,60.0,43,0.00,,---,0.84,VWS V14.01,2013-05-18 23:23:00,
2013-05-18 18:24:00,81.6,58.2,29.76,NE,41,60.0,60.0,45,0.00,,---,0.84,VWS V14.01,2013-05-18 23:24:00,
2013-05-18 18:25:00,81.6,57.0,29.76,NE,41,60.0,60.0,43,0.00,,---,0.84,VWS V14.01,2013-05-18 23:25:00,
2013-05-18 18:26:00,81.6,56.3,29.76,NE,41,60.0,60.0,42,0.00,,---,0.84,VWS V14.01,2013-05-18 23:26:00,
2013-05-18 18:27:00,81.6,57.0,29.76,ENE,58,60.0,60.0,43,0.00,,---,0.84,VWS V14.01,2013-05-18 23:27:00,
2013-05-18 18:28:00,81.4,56.1,29.76,ENE,59,60.0,60.0,42,0.00,,---,0.84,VWS V14.01,2013-05-18 23:28:00,
2013-05-18 18:29:00,81.4,56.8,29.76,ENE,59,60.0,60.0,43,0.00,,---,0.84,VWS V14.01,2013-05-18 23:29:00,
2013-05-18 18:30:00,81.4,56.8,29.75,ENE,59,60.0,60.0,43,0.00,,---,0.84,VWS V14.01,2013-05-18 23:30:00,
2013-05-18 18:31:00,81.4,57.4,29.75,ENE,59,60.0,60.0,44,0.00,,---,0.84,VWS V14.01,2013-05-18 23:31:00,
2013-05-18 18:32:00,81.4,56.8,29.75,ENE,59,60.0,60.0,43,0.00,,---,0.84,VWS V14.01,2013-05-18 23:32:00,
2013-05-18 18:33:00,81.4,56.8,29.75,East,79,60.0,60.0,43,0.00,,---,0.84,VWS V14.01,2013-05-18 23:33:00,
2013-05-18 18:34:00,81.4,57.4,29.75,ENE,65,60.0,60.0,44,0.00,,---,0.84,VWS V14.01,2013-05-18 23:34:00,
2013-05-18 18:35:00,81.4,57.4,29.75,ENE,65,60.0,60.0,44,0.00,,---,0.84,VWS V14.01,2013-05-18 23:35:00,
2013-05-18 18:36:00,81.4,57.4,29.75,ENE,65,60.0,60.0,44,0.00,,---,0.84,VWS V14.01,2013-05-18 23:36:00,
2013-05-18 18:37:00,81.4,56.8,29.75,ENE,73,60.0,60.0,43,0.00,,---,0.84,VWS V14.01,2013-05-18 23:37:00,
2013-05-18 18:38:00,81.4,56.8,29.75,ENE,75,60.0,60.0,43,0.00,,---,0.84,VWS V14.01,2013-05-18 23:38:00,
2013-05-18 18:39:00,81.4,56.8,29.75,ENE,75,60.0,60.0,43,0.00,,---,0.84,VWS V14.01,2013-05-18 23:39:00,
2013-05-18 18:40:00,81.2,56.6,29.75,ENE,75,60.0,60.0,43,0.00,,---,0.84,VWS V14.01,2013-05-18 23:40:00,
2013-05-18 18:41:00,81.2,56.6,29.75,ENE,75,60.0,60.0,43,0.00,,---,0.84,VWS V14.01,2013-05-18 23:41:00,
2013-05-18 18:42:00,81.2,57.2,29.75,ENE,75,60.0,60.0,44,0.00,,---,0.84,VWS V14.01,2013-05-18 23:42:00,
2013-05-18 18:43:00,81.2,56.6,29.75,ENE,75,60.0,60.0,43,0.00,,---,0.84,VWS V14.01,2013-05-18 23:43:00,
2013-05-18 18:44:00,81.2,56.6,29.75,ENE,75,60.0,60.0,43,0.00,,---,0.84,VWS V14.01,2013-05-18 23:44:00,
2013-05-18 18:45:00,81.2,57.2,29.75,ENE,75,60.0,60.0,44,0.00,,---,0.84,VWS V14.01,2013-05-18 23:45:00,
2013-05-18 18:46:00,81.2,57.2,29.75,ENE,75,60.0,60.0,44,0.00,,---,0.84,VWS V14.01,2013-05-18 23:46:00,
2013-05-18 18:47:00,81.2,57.2,29.75,ENE,75,60.0,60.0,44,0.00,,---,0.84,VWS V14.01,2013-05-18 23:47:00,
2013-05-18 18:48:00,81.2,57.2,29.75,ENE,75,60.0,60.0,44,0.00,,---,0.84,VWS V14.01,2013-05-18 23:48:00,
2013-05-18 18:49:00,81.2,57.2,29.75,ENE,62,60.0,60.0,44,0.00,,---,0.84,VWS V14.01,2013-05-18 23:49:00,
2013-05-18 18:50:00,81.2,57.2,29.75,ENE,61,60.0,60.0,44,0.00,,---,0.84,VWS V14.01,2013-05-18 23:50:00,
2013-05-18 18:51:00,81.2,57.2,29.75,ENE,59,60.0,60.0,44,0.00,,---,0.84,VWS V14.01,2013-05-18 23:51:00,
2013-05-18 18:52:00,81.2,56.6,29.75,ENE,59,60.0,60.0,43,0.00,,---,0.84,VWS V14.01,2013-05-18 23:52:00,
2013-05-18 18:53:00,81.2,56.6,29.75,ENE,59,60.0,60.0,43,0.00,,---,0.84,VWS V14.01,2013-05-18 23:53:00,
2013-05-18 18:54:00,81.2,56.6,29.75,ENE,59,60.0,60.0,43,0.00,,---,0.84,VWS V14.01,2013-05-18 23:54:00,
2013-05-18 18:55:00,81.2,57.2,29.75,ENE,59,60.0,60.0,44,0.00,,---,0.84,VWS V14.01,2013-05-18 23:55:00,
2013-05-18 18:56:00,81.2,57.2,29.75,ENE,59,60.0,60.0,44,0.00,,---,0.84,VWS V14.01,2013-05-18 23:56:00,
2013-05-18 18:57:00,81.1,57.2,29.75,ENE,59,60.0,60.0,44,0.00,,---,0.84,VWS V14.01,2013-05-18 23:57:00,
2013-05-18 18:58:00,81.1,57.2,29.75,ENE,59,60.0,60.0,44,0.00,,---,0.84,VWS V14.01,2013-05-18 23:58:00,
2013-05-18 18:59:00,81.1,57.2,29.75,ENE,58,60.0,60.0,44,0.00,,---,0.84,VWS V14.01,2013-05-18 23:59:00,
2013-05-18 19:00:00,81.1,57.2,29.75,ENE,58,60.0,60.0,44,0.00,,---,0.84,VWS V14.01,2013-05-19 00:00:00,
2013-05-18 19:01:00,81.1,57.2,29.75,ENE,58,60.0,60.0,44,0.00,,---,0.84,VWS V14.01,2013-05-19 00:01:00,
2013-05-18 19:02:00,81.1,57.2,29.75,ENE,58,60.0,60.0,44,0.00,,---,0.84,VWS V14.01,2013-05-19 00:02:00,
2013-05-18 19:03:00,81.2,57.2,29.75,ENE,58,60.0,60.0,44,0.00,,---,0.84,VWS V14.01,2013-05-19 00:03:00,
2013-05-18 19:04:00,81.2,57.2,29.75,ENE,68,60.0,60.0,44,0.00,,---,0.84,VWS V14.01,2013-05-19 00:04:00,
2013-05-18 19:05:00,81.2,56.6,29.75,ENE,78,60.0,60.0,43,0.00,,---,0.84,VWS V14.01,2013-05-19 00:05:00,
2013-05-18 19:06:00,81.2,56.6,29.75,ENE,78,60.0,60.0,43,0.00,,---,0.84,VWS V14.01,2013-05-19 00:06:00,
2013-05-18 19:07:00,81.2,56.6,29.75,ENE,78,60.0,60.0,43,0.00,,---,0.84,VWS V14.01,2013-05-19 00:07:00,
2013-05-18 19:08:00,81.2,56.6,29.75,ENE,78,60.0,60.0,43,0.00,,---,0.84,VWS V14.01,2013-05-19 00:08:00,
2013-05-18 19:09:00,81.2,56.6,29.75,ENE,78,60.0,60.0,43,0.00,,---,0.84,VWS V14.01,2013-05-19 00:09:00,
2013-05-18 19:10:00,81.2,56.6,29.75,ENE,78,60.0,60.0,43,0.00,,---,0.84,VWS V14.01,2013-05-19 00:10:00,
2013-05-18 19:11:00,81.2,56.6,29.75,ENE,78,60.0,60.0,43,0.00,,---,0.84,VWS V14.01,2013-05-19 00:11:00,
2013-05-18 19:12:00,81.2,56.6,29.75,ENE,78,60.0,60.0,43,0.00,,---,0.84,VWS V14.01,2013-05-19 00:12:00,
2013-05-18 19:13:00,81.2,56.6,29.75,ENE,78,60.0,60.0,43,0.00,,---,0.84,VWS V14.01,2013-05-19 00:13:00,
2013-05-18 19:14:00,81.2,57.2,29.75,ENE,78,60.0,60.0,44,0.00,,---,0.84,VWS V14.01,2013-05-19 00:14:00,
2013-05-18 19:15:00,81.2,57.2,29.75,ENE,78,60.0,60.0,44,0.00,,---,0.84,VWS V14.01,2013-05-19 00:15:00,
2013-05-18 19:16:00,81.2,57.2,29.75,ENE,78,60.0,60.0,44,0.00,,---,0.84,VWS V14.01,2013-05-19 00:16:00,
2013-05-18 19:17:00,81.2,57.2,29.75,ENE,78,60.0,60.0,44,0.00,,---,0.84,VWS V14.01,2013-05-19 00:17:00,
2013-05-18 19:18:00,81.1,57.2,29.75,ENE,78,60.0,60.0,44,0.00,,---,0.84,VWS V14.01,2013-05-19 00:18:00,
2013-05-18 19:19:00,81.1,57.2,29.75,ENE,78,60.0,60.0,44,0.00,,---,0.84,VWS V14.01,2013-05-19 00:19:00,
2013-05-18 19:20:00,81.1,56.5,29.75,ENE,76,60.0,60.0,43,0.00,,---,0.84,VWS V14.01,2013-05-19 00:20:00,
2013-05-18 19:21:00,81.1,57.2,29.75,ENE,76,60.0,60.0,44,0.00,,---,0.84,VWS V14.01,2013-05-19 00:21:00,
2013-05-18 19:22:00,81.1,57.2,29.75,ENE,76,60.0,60.0,44,0.00,,---,0.84,VWS V14.01,2013-05-19 00:22:00,
2013-05-18 19:23:00,80.9,57.0,29.75,ENE,76,60.0,60.0,44,0.00,,---,0.84,VWS V14.01,2013-05-19 00:23:00,
2013-05-18 19:24:00,80.9,57.0,29.75,ENE,76,60.0,60.0,44,0.00,,---,0.84,VWS V14.01,2013-05-19 00:24:00,
2013-05-18 19:25:00,80.9,57.0,29.75,ENE,76,60.0,60.0,44,0.00,,---,0.84,VWS V14.01,2013-05-19 00:25:00,
2013-05-18 19:26:00,80.9,57.0,29.75,ENE,76,60.0,60.0,44,0.00,,---,0.84,VWS V14.01,2013-05-19 00:26:00,
2013-05-18 19:27:00,80.9,57.0,29.75,ENE,76,60.0,60.0,44,0.00,,---,0.84,VWS V14.01,2013-05-19 00:27:00,
2013-05-18 19:28:00,80.9,57.0,29.75,ENE,78,60.0,60.0,44,0.00,,---,0.84,VWS V14.01,2013-05-19 00:28:00,
2013-05-18 19:29:00,80.9,57.0,29.75,ENE,78,60.0,60.0,44,0.00,,---,0.84,VWS V14.01,2013-05-19 00:29:00,
2013-05-18 19:30:00,80.7,56.8,29.74,ENE,78,60.0,60.0,44,0.00,,---,0.84,VWS V14.01,2013-05-19 00:30:00,
2013-05-18 19:31:00,80.7,56.8,29.74,ENE,78,60.0,60.0,44,0.00,,---,0.84,VWS V14.01,2013-05-19 00:31:00,
2013-05-18 19:32:00,80.7,56.8,29.74,ENE,78,60.0,60.0,44,0.00,,---,0.84,VWS V14.01,2013-05-19 00:32:00,
2013-05-18 19:33:00,80.7,56.8,29.74,ENE,78,60.0,60.0,44,0.00,,---,0.84,VWS V14.01,2013-05-19 00:33:00,
2013-05-18 19:34:00,80.7,57.4,29.74,ENE,78,60.0,60.0,45,0.00,,---,0.84,VWS V14.01,2013-05-19 00:34:00,
2013-05-18 19:35:00,80.7,56.8,29.74,ENE,78,60.0,60.0,44,0.00,,---,0.84,VWS V14.01,2013-05-19 00:35:00,
2013-05-18 19:36:00,80.7,56.8,29.74,ENE,78,60.0,60.0,44,0.00,,---,0.84,VWS V14.01,2013-05-19 00:36:00,
2013-05-18 19:37:00,80.7,57.4,29.74,ENE,78,60.0,60.0,45,0.00,,---,0.84,VWS V14.01,2013-05-19 00:37:00,
2013-05-18 19:38:00,80.7,57.4,29.74,ENE,76,60.0,60.0,45,0.00,,---,0.84,VWS V14.01,2013-05-19 00:38:00,
2013-05-18 19:39:00,80.7,57.4,29.74,NE,37,60.0,60.0,45,0.00,,---,0.84,VWS V14.01,2013-05-19 00:39:00,
2013-05-18 19:40:00,80.5,57.2,29.74,NE,56,60.0,60.0,45,0.00,,---,0.84,VWS V14.01,2013-05-19 00:40:00,
2013-05-18 19:41:00,80.3,59.4,29.74,East,79,60.0,60.0,49,0.00,,---,0.84,VWS V14.01,2013-05-19 00:41:00,
2013-05-18 19:42:00,80.3,59.4,29.74,ENE,72,60.0,60.0,49,0.00,,---,0.84,VWS V14.01,2013-05-19 00:42:00,
2013-05-18 19:43:00,80.1,59.8,29.74,ENE,72,60.0,60.0,50,0.00,,---,0.84,VWS V14.01,2013-05-19 00:43:00,
2013-05-18 19:44:00,79.9,60.2,29.74,East,82,60.0,60.0,51,0.00,,---,0.84,VWS V14.01,2013-05-19 00:44:00,
2013-05-18 19:45:00,79.6,61.0,29.75,ENE,64,60.0,60.0,53,0.00,,---,0.84,VWS V14.01,2013-05-19 00:45:00,
2013-05-18 19:46:00,79.4,61.3,29.75,ENE,64,60.0,60.0,54,0.00,,---,0.84,VWS V14.01,2013-05-19 00:46:00,
2013-05-18 19:47:00,79.0,61.5,29.75,East,88,60.0,60.0,55,0.00,,---,0.84,VWS V14.01,2013-05-19 00:47:00,
2013-05-18 19:48:00,78.8,61.3,29.75,NNE,28,60.0,60.0,55,0.00,,---,0.84,VWS V14.01,2013-05-19 00:48:00,
2013-05-18 19:49:00,78.6,61.6,29.75,North,0,60.0,60.0,56,0.00,,---,0.84,VWS V14.01,2013-05-19 00:49:00,
2013-05-18 19:50:00,78.5,61.5,29.75,North,1,60.0,60.0,56,0.00,,---,0.84,VWS V14.01,2013-05-19 00:50:00,
2013-05-18 19:51:00,78.5,61.5,29.75,East,89,60.0,60.0,56,0.00,,---,0.84,VWS V14.01,2013-05-19 00:51:00,
2013-05-18 19:52:00,78.3,61.8,29.75,NNE,31,60.0,60.0,57,0.00,,---,0.84,VWS V14.01,2013-05-19 00:52:00,
2013-05-18 19:53:00,78.1,61.6,29.75,NNE,21,60.0,60.0,57,0.00,,---,0.84,VWS V14.01,2013-05-19 00:53:00,
2013-05-18 19:54:00,77.9,61.5,29.75,NW,319,60.0,60.0,57,0.00,,---,0.84,VWS V14.01,2013-05-19 00:54:00,
2013-05-18 19:55:00,77.7,61.8,29.75,NNE,13,60.0,60.0,58,0.00,,---,0.84,VWS V14.01,2013-05-19 00:55:00,
2013-05-18 19:56:00,77.7,61.8,29.75,NNE,17,60.0,60.0,58,0.00,,---,0.84,VWS V14.01,2013-05-19 00:56:00,
2013-05-18 19:57:00,77.6,61.7,29.75,NE,37,60.0,60.0,58,0.00,,---,0.84,VWS V14.01,2013-05-19 00:57:00,
2013-05-18 19:58:00,77.4,61.5,29.75,NE,41,60.0,60.0,58,0.00,,---,0.84,VWS V14.01,2013-05-19 00:58:00,
2013-05-18 19:59:00,77.4,61.5,29.75,NE,42,60.0,60.0,58,0.00,,---,0.84,VWS V14.01,2013-05-19 00:59:00,
2013-05-18 20:00:00,77.4,61.5,29.75,NE,51,60.0,60.0,58,0.00,,---,0.84,VWS V14.01,2013-05-19 01:00:00,
2013-05-18 20:01:00,77.2,61.3,29.75,ESE,109,60.0,60.0,58,0.00,,---,0.84,VWS V14.01,2013-05-19 01:01:00,
2013-05-18 20:02:00,77.2,61.3,29.75,ENE,78,60.0,60.0,58,0.00,,---,0.84,VWS V14.01,2013-05-19 01:02:00,
2013-05-18 20:03:00,77.0,61.6,29.75,East,86,60.0,60.0,59,0.00,,---,0.84,VWS V14.01,2013-05-19 01:03:00,
2013-05-18 20:04:00,77.0,61.6,29.75,NNE,24,60.0,60.0,59,0.00,,---,0.84,VWS V14.01,2013-05-19 01:04:00,
2013-05-18 20:05:00,77.0,61.6,29.75,NE,42,60.0,60.0,59,0.00,,---,0.84,VWS V14.01,2013-05-19 01:05:00,
2013-05-18 20:06:00,76.8,61.4,29.75,NE,54,60.0,60.0,59,0.00,,---,0.84,VWS V14.01,2013-05-19 01:06:00,
2013-05-18 20:07:00,76.8,61.4,29.75,East,80,60.0,60.0,59,0.00,,---,0.84,VWS V14.01,2013-05-19 01:07:00,
2013-05-18 20:08:00,76.7,61.3,29.75,ENE,73,60.0,60.0,59,0.00,,---,0.84,VWS V14.01,2013-05-19 01:08:00,
2013-05-18 20:09:00,76.7,61.3,29.75,North,0,60.0,60.0,59,0.00,,---,0.84,VWS V14.01,2013-05-19 01:09:00,
2013-05-18 20:10:00,76.5,61.1,29.75,ENE,66,60.0,60.0,59,0.00,,---,0.84,VWS V14.01,2013-05-19 01:10:00,
2013-05-18 20:11:00,76.5,61.1,29.75,East,80,60.0,60.0,59,0.00,,---,0.84,VWS V14.01,2013-05-19 01:11:00,
2013-05-18 20:12:00,76.3,60.9,29.75,ENE,73,60.0,60.0,59,0.00,,---,0.84,VWS V14.01,2013-05-19 01:12:00,
2013-05-18 20:13:00,76.3,61.4,29.75,ENE,75,60.0,60.0,60,0.00,,---,0.84,VWS V14.01,2013-05-19 01:13:00,
2013-05-18 20:14:00,76.3,61.4,29.75,East,85,60.0,60.0,60,0.00,,---,0.84,VWS V14.01,2013-05-19 01:14:00,
2013-05-18 20:15:00,76.1,61.2,29.75,East,86,60.0,60.0,60,0.00,,---,0.84,VWS V14.01,2013-05-19 01:15:00,
2013-05-18 20:16:00,76.0,61.1,29.75,ENE,59,60.0,60.0,60,0.00,,---,0.84,VWS V14.01,2013-05-19 01:16:00,
2013-05-18 20:17:00,76.0,61.1,29.75,East,96,60.0,60.0,60,0.00,,---,0.84,VWS V14.01,2013-05-19 01:17:00,
2013-05-18 20:18:00,76.0,61.1,29.75,NE,35,60.0,60.0,60,0.00,,---,0.84,VWS V14.01,2013-05-19 01:18:00,
2013-05-18 20:19:00,75.8,61.4,29.75,East,79,60.0,60.0,61,0.00,,---,0.84,VWS V14.01,2013-05-19 01:19:00,
2013-05-18 20:20:00,75.6,61.2,29.75,ENE,73,60.0,60.0,61,0.00,,---,0.84,VWS V14.01,2013-05-19 01:20:00,
2013-05-18 20:21:00,75.6,61.2,29.75,ENE,64,60.0,60.0,61,0.00,,---,0.84,VWS V14.01,2013-05-19 01:21:00,
2013-05-18 20:22:00,75.4,61.0,29.75,ENE,72,60.0,60.0,61,0.00,,---,0.84,VWS V14.01,2013-05-19 01:22:00,
2013-05-18 20:23:00,75.3,60.9,29.75,NE,51,60.0,60.0,61,0.00,,---,0.84,VWS V14.01,2013-05-19 01:23:00,
2013-05-18 20:24:00,75.3,60.9,29.75,East,80,60.0,60.0,61,0.00,,---,0.84,VWS V14.01,2013-05-19 01:24:00,
2013-05-18 20:25:00,75.1,61.2,29.75,East,90,60.0,60.0,62,0.00,,---,0.84,VWS V14.01,2013-05-19 01:25:00,
2013-05-18 20:26:00,75.1,61.2,29.75,East,86,60.0,60.0,62,0.00,,---,0.84,VWS V14.01,2013-05-19 01:26:00,
2013-05-18 20:27:00,74.9,61.0,29.75,ENE,65,60.0,60.0,62,0.00,,---,0.84,VWS V14.01,2013-05-19 01:27:00,
2013-05-18 20:28:00,74.9,61.0,29.75,ENE,64,60.0,60.0,62,0.00,,---,0.84,VWS V14.01,2013-05-19 01:28:00,
2013-05-18 20:29:00,74.7,60.8,29.75,East,89,60.0,60.0,62,0.00,,---,0.84,VWS V14.01,2013-05-19 01:29:00,
2013-05-18 20:30:00,74.7,60.8,29.75,ENE,73,60.0,60.0,62,0.00,,---,0.84,VWS V14.01,2013-05-19 01:30:00,
2013-05-18 20:31:00,74.6,60.7,29.75,NNE,21,60.0,60.0,62,0.00,,---,0.84,VWS V14.01,2013-05-19 01:31:00,
2013-05-18 20:32:00,74.6,60.7,29.75,ENE,66,60.0,60.0,62,0.00,,---,0.84,VWS V14.01,2013-05-19 01:32:00,
2013-05-18 20:33:00,74.6,60.7,29.75,ENE,65,60.0,60.0,62,0.00,,---,0.84,VWS V14.01,2013-05-19 01:33:00,
2013-05-18 20:34:00,74.4,61.0,29.75,NNE,16,60.0,60.0,63,0.00,,---,0.84,VWS V14.01,2013-05-19 01:34:00,
2013-05-18 20:35:00,74.4,61.0,29.75,ENE,71,60.0,60.0,63,0.00,,---,0.84,VWS V14.01,2013-05-19 01:35:00,
2013-05-18 20:36:00,74.2,60.8,29.75,ENE,65,60.0,60.0,63,0.00,,---,0.84,VWS V14.01,2013-05-19 01:36:00,
2013-05-18 20:37:00,74.2,60.8,29.75,East,92,60.0,60.0,63,0.00,,---,0.84,VWS V14.01,2013-05-19 01:37:00,
2013-05-18 20:38:00,74.2,60.8,29.75,ENE,58,60.0,60.0,63,0.00,,---,0.84,VWS V14.01,2013-05-19 01:38:00,
2013-05-18 20:39:00,74.0,61.5,29.75,East,79,60.0,60.0,65,0.00,,---,0.84,VWS V14.01,2013-05-19 01:39:00,
2013-05-18 20:40:00,74.0,61.5,29.75,East,80,60.0,60.0,65,0.00,,---,0.84,VWS V14.01,2013-05-19 01:40:00,
2013-05-18 20:41:00,74.0,60.6,29.75,ENE,66,60.0,60.0,63,0.00,,---,0.84,VWS V14.01,2013-05-19 01:41:00,
2013-05-18 20:42:00,74.0,60.6,29.75,ENE,69,60.0,60.0,63,0.00,,---,0.84,VWS V14.01,2013-05-19 01:42:00,
2013-05-18 20:43:00,73.9,60.5,29.75,NE,34,60.0,60.0,63,0.00,,---,0.84,VWS V14.01,2013-05-19 01:43:00,
2013-05-18 20:44:00,73.9,60.5,29.75,ENE,62,60.0,60.0,63,0.00,,---,0.84,VWS V14.01,2013-05-19 01:44:00,
2013-05-18 20:45:00,73.7,60.8,29.75,East,90,60.0,60.0,64,0.00,,---,0.84,VWS V14.01,2013-05-19 01:45:00,
2013-05-18 20:46:00,73.7,60.8,29.75,NE,51,60.0,60.0,64,0.00,,---,0.84,VWS V14.01,2013-05-19 01:46:00,
2013-05-18 20:47:00,73.5,60.6,29.75,East,92,60.0,60.0,64,0.00,,---,0.84,VWS V14.01,2013-05-19 01:47:00,
2013-05-18 20:48:00,73.5,60.6,29.75,East,82,60.0,60.0,64,0.00,,---,0.84,VWS V14.01,2013-05-19 01:48:00,
2013-05-18 20:49:00,73.3,60.4,29.75,ENE,58,60.0,60.0,64,0.00,,---,0.84,VWS V14.01,2013-05-19 01:49:00,
2013-05-18 20:50:00,73.3,60.8,29.75,NE,45,60.0,60.0,65,0.00,,---,0.84,VWS V14.01,2013-05-19 01:50:00,
2013-05-18 20:51:00,73.2,60.3,29.75,NNE,21,60.0,60.0,64,0.00,,---,0.84,VWS V14.01,2013-05-19 01:51:00,
2013-05-18 20:52:00,73.2,60.7,29.75,NE,49,60.0,60.0,65,0.00,,---,0.84,VWS V14.01,2013-05-19 01:52:00,
2013-05-18 20:53:00,73.0,60.5,29.75,ENE,68,60.0,60.0,65,0.00,,---,0.84,VWS V14.01,2013-05-19 01:53:00,
2013-05-18 20:54:00,73.0,60.5,29.75,NE,56,60.0,60.0,65,0.00,,---,0.84,VWS V14.01,2013-05-19 01:54:00,
2013-05-18 20:55:00,73.0,60.5,29.75,NW,323,60.0,60.0,65,0.00,,---,0.84,VWS V14.01,2013-05-19 01:55:00,
2013-05-18 20:56:00,72.8,60.4,29.75,North,8,60.0,60.0,65,0.00,,---,0.84,VWS V14.01,2013-05-19 01:56:00,
2013-05-18 20:57:00,72.8,60.4,29.75,NNE,31,60.0,60.0,65,0.00,,---,0.84,VWS V14.01,2013-05-19 01:57:00,
2013-05-18 20:58:00,72.8,60.4,29.75,NNE,23,60.0,60.0,65,0.00,,---,0.84,VWS V14.01,2013-05-19 01:58:00,
2013-05-18 20:59:00,72.7,60.3,29.75,ENE,58,60.0,60.0,65,0.00,,---,0.84,VWS V14.01,2013-05-19 01:59:00,
2013-05-18 21:00:00,72.7,60.3,29.75,NE,54,60.0,60.0,65,0.00,,---,0.84,VWS V14.01,2013-05-19 02:00:00,
2013-05-18 21:01:00,72.5,60.1,29.75,ENE,58,60.0,60.0,65,0.00,,---,0.84,VWS V14.01,2013-05-19 02:01:00,
2013-05-18 21:02:00,72.5,60.1,29.75,East,80,60.0,60.0,65,0.00,,---,0.84,VWS V14.01,2013-05-19 02:02:00,
2013-05-18 21:03:00,72.3,59.9,29.75,ENE,64,60.0,60.0,65,0.00,,---,0.84,VWS V14.01,2013-05-19 02:03:00,
2013-05-18 21:04:00,72.3,60.3,29.75,ENE,64,60.0,60.0,66,0.00,,---,0.84,VWS V14.01,2013-05-19 02:04:00,
2013-05-18 21:05:00,72.1,60.1,29.75,NNE,18,60.0,60.0,66,0.00,,---,0.84,VWS V14.01,2013-05-19 02:05:00,
2013-05-18 21:06:00,72.1,60.1,29.75,North,0,60.0,60.0,66,0.00,,---,0.84,VWS V14.01,2013-05-19 02:06:00,
2013-05-18 21:07:00,72.0,60.0,29.75,ENE,69,60.0,60.0,66,0.00,,---,0.84,VWS V14.01,2013-05-19 02:07:00,
2013-05-18 21:08:00,72.0,60.0,29.75,East,82,60.0,60.0,66,0.00,,---,0.84,VWS V14.01,2013-05-19 02:08:00,
2013-05-18 21:09:00,72.0,60.0,29.75,East,83,60.0,60.0,66,0.00,,---,0.84,VWS V14.01,2013-05-19 02:09:00,
2013-05-18 21:10:00,71.8,60.3,29.75,ENE,68,60.0,60.0,67,0.00,,---,0.84,VWS V14.01,2013-05-19 02:10:00,
2013-05-18 21:11:00,71.8,60.3,29.75,ENE,68,60.0,60.0,67,0.00,,---,0.84,VWS V14.01,2013-05-19 02:11:00,
2013-05-18 21:12:00,71.8,60.3,29.75,ENE,62,60.0,60.0,67,0.00,,---,0.84,VWS V14.01,2013-05-19 02:12:00,
2013-05-18 21:13:00,71.6,60.1,29.75,NE,54,60.0,60.0,67,0.00,,---,0.84,VWS V14.01,2013-05-19 02:13:00,
2013-05-18 21:14:00,71.6,60.1,29.76,NE,42,60.0,60.0,67,0.00,,---,0.84,VWS V14.01,2013-05-19 02:14:00,
2013-05-18 21:15:00,71.6,60.1,29.76,NE,48,60.0,60.0,67,0.00,,---,0.84,VWS V14.01,2013-05-19 02:15:00,
2013-05-18 21:16:00,71.5,60.0,29.76,NE,38,60.0,60.0,67,0.00,,---,0.84,VWS V14.01,2013-05-19 02:16:00,
2013-05-18 21:17:00,71.5,60.0,29.76,ENE,59,60.0,60.0,67,0.00,,---,0.84,VWS V14.01,2013-05-19 02:17:00,
2013-05-18 21:18:00,71.5,60.0,29.76,ENE,68,60.0,60.0,67,0.00,,---,0.84,VWS V14.01,2013-05-19 02:18:00,
2013-05-18 21:19:00,71.3,59.8,29.76,NE,35,60.0,60.0,67,0.00,,---,0.84,VWS V14.01,2013-05-19 02:19:00,
2013-05-18 21:20:00,71.3,59.8,29.76,North,10,60.0,60.0,67,0.00,,---,0.84,VWS V14.01,2013-05-19 02:20:00,
2013-05-18 21:21:00,71.3,59.8,29.76,North,0,60.0,60.0,67,0.00,,---,0.84,VWS V14.01,2013-05-19 02:21:00,
2013-05-18 21:22:00,71.1,59.6,29.76,NNE,18,60.0,60.0,67,0.00,,---,0.84,VWS V14.01,2013-05-19 02:22:00,
2013-05-18 21:23:00,71.1,59.6,29.76,NE,34,60.0,60.0,67,0.00,,---,0.84,VWS V14.01,2013-05-19 02:23:00,
2013-05-18 21:24:00,70.9,59.4,29.76,NE,56,60.0,60.0,67,0.00,,---,0.84,VWS V14.01,2013-05-19 02:24:00,
2013-05-18 21:25:00,70.9,59.4,29.76,NNE,20,60.0,60.0,67,0.00,,---,0.84,VWS V14.01,2013-05-19 02:25:00,
2013-05-18 21:26:00,70.8,59.7,29.76,NE,48,60.0,60.0,68,0.00,,---,0.84,VWS V14.01,2013-05-19 02:26:00,
2013-05-18 21:27:00,70.8,59.7,29.76,NNE,24,60.0,60.0,68,0.00,,---,0.84,VWS V14.01,2013-05-19 02:27:00,
2013-05-18 21:28:00,70.8,59.7,29.76,NE,54,60.0,60.0,68,0.00,,---,0.84,VWS V14.01,2013-05-19 02:28:00,
2013-05-18 21:29:00,70.6,59.5,29.76,ENE,66,60.0,60.0,68,0.00,,---,0.84,VWS V14.01,2013-05-19 02:29:00,
2013-05-18 21:30:00,70.6,59.5,29.76,NE,56,60.0,60.0,68,0.00,,---,0.84,VWS V14.01,2013-05-19 02:30:00,
2013-05-18 21:31:00,70.6,59.5,29.76,ENE,58,60.0,60.0,68,0.00,,---,0.84,VWS V14.01,2013-05-19 02:31:00,
2013-05-18 21:32:00,70.4,59.3,29.76,ENE,73,60.0,60.0,68,0.00,,---,0.84,VWS V14.01,2013-05-19 02:32:00,
2013-05-18 21:33:00,70.4,59.3,29.76,North,359,60.0,60.0,68,0.00,,---,0.84,VWS V14.01,2013-05-19 02:33:00,
2013-05-18 21:34:00,70.4,59.3,29.76,NNE,17,60.0,60.0,68,0.00,,---,0.84,VWS V14.01,2013-05-19 02:34:00,
2013-05-18 21:35:00,70.4,59.3,29.76,NNE,17,60.0,60.0,68,0.00,,---,0.84,VWS V14.01,2013-05-19 02:35:00,
2013-05-18 21:36:00,70.4,59.3,29.76,NNE,14,60.0,60.0,68,0.00,,---,0.84,VWS V14.01,2013-05-19 02:36:00,
2013-05-18 21:37:00,70.4,59.3,29.76,NNE,20,60.0,60.0,68,0.00,,---,0.84,VWS V14.01,2013-05-19 02:37:00,
2013-05-18 21:38:00,70.3,59.2,29.76,NNE,20,60.0,60.0,68,0.00,,---,0.84,VWS V14.01,2013-05-19 02:38:00,
2013-05-18 21:39:00,70.3,59.2,29.76,NE,47,60.0,60.0,68,0.00,,---,0.84,VWS V14.01,2013-05-19 02:39:00,
2013-05-18 21:40:00,70.3,60.9,29.76,NNE,20,60.0,60.0,72,0.00,,---,0.84,VWS V14.01,2013-05-19 02:40:00,
2013-05-18 21:41:00,70.3,59.2,29.76,NE,45,60.0,60.0,68,0.00,,---,0.84,VWS V14.01,2013-05-19 02:41:00,
2013-05-18 21:42:00,70.3,59.2,29.76,NE,38,60.0,60.0,68,0.00,,---,0.84,VWS V14.01,2013-05-19 02:42:00,
2013-05-18 21:43:00,70.1,59.1,29.76,North,1,60.0,60.0,68,0.00,,---,0.84,VWS V14.01,2013-05-19 02:43:00,
2013-05-18 21:44:00,70.1,59.1,29.76,North,1,60.0,60.0,68,0.00,,---,0.84,VWS V14.01,2013-05-19 02:44:00,
2013-05-18 21:45:00,70.1,59.5,29.75,North,3,60.0,60.0,69,0.00,,---,0.84,VWS V14.01,2013-05-19 02:45:00,
2013-05-18 21:46:00,70.1,59.1,29.75,NE,41,60.0,60.0,68,0.00,,---,0.84,VWS V14.01,2013-05-19 02:46:00,
2013-05-18 21:47:00,70.1,59.5,29.75,North,7,60.0,60.0,69,0.00,,---,0.84,VWS V14.01,2013-05-19 02:47:00,
2013-05-18 21:48:00,70.1,59.5,29.75,North,7,60.0,60.0,69,0.00,,---,0.84,VWS V14.01,2013-05-19 02:48:00,
2013-05-18 21:49:00,69.9,59.3,29.75,ENE,58,60.0,60.0,69,0.00,,---,0.84,VWS V14.01,2013-05-19 02:49:00,
2013-05-18 21:50:00,69.9,59.3,29.75,ENE,58,60.0,60.0,69,0.00,,---,0.84,VWS V14.01,2013-05-19 02:50:00,
2013-05-18 21:51:00,69.9,59.3,29.75,NE,52,60.0,60.0,69,0.00,,---,0.84,VWS V14.01,2013-05-19 02:51:00,
2013-05-18 21:52:00,69.9,59.3,29.75,ENE,65,60.0,60.0,69,0.00,,---,0.84,VWS V14.01,2013-05-19 02:52:00,
2013-05-18 21:53:00,69.9,59.3,29.75,ENE,66,60.0,60.0,69,0.00,,---,0.84,VWS V14.01,2013-05-19 02:53:00,
2013-05-18 21:54:00,69.9,59.3,29.75,ENE,66,60.0,60.0,69,0.00,,---,0.84,VWS V14.01,2013-05-19 02:54:00,
2013-05-18 21:55:00,69.9,59.3,29.75,NNE,14,60.0,60.0,69,0.00,,---,0.84,VWS V14.01,2013-05-19 02:55:00,
2013-05-18 21:56:00,69.9,59.3,29.75,NNE,16,60.0,60.0,69,0.00,,---,0.84,VWS V14.01,2013-05-19 02:56:00,
2013-05-18 21:57:00,69.8,59.2,29.75,NNE,16,60.0,60.0,69,0.00,,---,0.84,VWS V14.01,2013-05-19 02:57:00,
2013-05-18 21:58:00,69.8,59.2,29.75,NNE,28,60.0,60.0,69,0.00,,---,0.84,VWS V14.01,2013-05-19 02:58:00,
2013-05-18 21:59:00,69.8,59.2,29.75,NE,41,60.0,60.0,69,0.00,,---,0.84,VWS V14.01,2013-05-19 02:59:00,
2013-05-18 22:00:00,69.8,59.2,29.75,North,6,60.0,60.0,69,0.00,,---,0.84,VWS V14.01,2013-05-19 03:00:00,
2013-05-18 22:01:00,69.8,59.6,29.75,NNE,32,60.0,60.0,70,0.00,,---,0.84,VWS V14.01,2013-05-19 03:01:00,
2013-05-18 22:02:00,69.8,59.6,29.75,NNE,32,60.0,60.0,70,0.00,,---,0.84,VWS V14.01,2013-05-19 03:02:00,
2013-05-18 22:03:00,69.6,59.4,29.75,NNE,32,60.0,60.0,70,0.00,,---,0.84,VWS V14.01,2013-05-19 03:03:00,
2013-05-18 22:04:00,69.6,59.4,29.75,NNE,32,60.0,60.0,70,0.00,,---,0.84,VWS V14.01,2013-05-19 03:04:00,
2013-05-18 22:05:00,69.6,59.4,29.75,NNE,32,60.0,60.0,70,0.00,,---,0.84,VWS V14.01,2013-05-19 03:05:00,
2013-05-18 22:06:00,69.6,59.4,29.75,NNE,30,60.0,60.0,70,0.00,,---,0.84,VWS V14.01,2013-05-19 03:06:00,
2013-05-18 22:07:00,69.6,59.4,29.75,NNE,30,60.0,60.0,70,0.00,,---,0.84,VWS V14.01,2013-05-19 03:07:00,
2013-05-18 22:08:00,69.6,59.4,29.75,NNE,24,60.0,60.0,70,0.00,,---,0.84,VWS V14.01,2013-05-19 03:08:00,
2013-05-18 22:09:00,69.4,59.2,29.75,NNE,24,60.0,60.0,70,0.00,,---,0.84,VWS V14.01,2013-05-19 03:09:00,
2013-05-18 22:10:00,69.4,59.2,29.75,NNE,24,60.0,60.0,70,0.00,,---,0.84,VWS V14.01,2013-05-19 03:10:00,
2013-05-18 22:11:00,69.4,59.2,29.75,North,7,60.0,60.0,70,0.00,,---,0.84,VWS V14.01,2013-05-19 03:11:00,
2013-05-18 22:12:00,69.3,59.1,29.75,North,0,60.0,60.0,70,0.00,,---,0.84,VWS V14.01,2013-05-19 03:12:00,
2013-05-18 22:13:00,69.3,59.1,29.75,North,359,60.0,60.0,70,0.00,,---,0.84,VWS V14.01,2013-05-19 03:13:00,
2013-05-18 22:14:00,69.1,58.9,29.75,North,1,60.0,60.0,70,0.00,,---,0.84,VWS V14.01,2013-05-19 03:14:00,
2013-05-18 22:15:00,69.1,58.9,29.76,NNE,16,60.0,60.0,70,0.00,,---,0.84,VWS V14.01,2013-05-19 03:15:00,
2013-05-18 22:16:00,69.1,59.3,29.76,NNE,13,60.0,60.0,71,0.00,,---,0.84,VWS V14.01,2013-05-19 03:16:00,
2013-05-18 22:17:00,68.9,59.1,29.76,NNE,13,60.0,60.0,71,0.00,,---,0.84,VWS V14.01,2013-05-19 03:17:00,
2013-05-18 22:18:00,68.9,59.1,29.76,NNE,13,60.0,60.0,71,0.00,,---,0.84,VWS V14.01,2013-05-19 03:18:00,
2013-05-18 22:19:00,68.8,59.0,29.76,NNE,28,60.0,60.0,71,0.00,,---,0.84,VWS V14.01,2013-05-19 03:19:00,
2013-05-18 22:20:00,68.6,58.8,29.76,NNE,28,60.0,60.0,71,0.00,,---,0.84,VWS V14.01,2013-05-19 03:20:00,
2013-05-18 22:21:00,68.6,58.8,29.76,North,359,60.0,60.0,71,0.00,,---,0.84,VWS V14.01,2013-05-19 03:21:00,
2013-05-18 22:22:00,68.4,58.6,29.76,NNE,13,60.0,60.0,71,0.00,,---,0.84,VWS V14.01,2013-05-19 03:22:00,
2013-05-18 22:23:00,68.3,58.5,29.76,North,11,60.0,60.0,71,0.00,,---,0.84,VWS V14.01,2013-05-19 03:23:00,
2013-05-18 22:24:00,68.3,58.5,29.76,NNE,23,60.0,60.0,71,0.00,,---,0.84,VWS V14.01,2013-05-19 03:24:00,
2013-05-18 22:25:00,68.1,58.3,29.76,NNE,18,60.0,60.0,71,0.00,,---,0.84,VWS V14.01,2013-05-19 03:25:00,
2013-05-18 22:26:00,67.9,58.2,29.76,NNE,27,60.0,60.0,71,0.00,,---,0.84,VWS V14.01,2013-05-19 03:26:00,
2013-05-18 22:27:00,67.9,58.2,29.76,NW,312,60.0,60.0,71,0.00,,---,0.84,VWS V14.01,2013-05-19 03:27:00,
2013-05-18 22:28:00,67.8,58.1,29.76,North,8,60.0,60.0,71,0.00,,---,0.84,VWS V14.01,2013-05-19 03:28:00,
2013-05-18 22:29:00,67.8,58.1,29.76,NNE,17,60.0,60.0,71,0.00,,---,0.84,VWS V14.01,2013-05-19 03:29:00,
2013-05-18 22:30:00,67.6,58.3,29.76,ENE,58,60.0,60.0,72,0.00,,---,0.84,VWS V14.01,2013-05-19 03:30:00,
2013-05-18 22:31:00,67.6,58.3,29.76,North,0,60.0,60.0,72,0.00,,---,0.84,VWS V14.01,2013-05-19 03:31:00,
2013-05-18 22:32:00,67.4,58.1,29.76,North,0,60.0,60.0,72,0.00,,---,0.84,VWS V14.01,2013-05-19 03:32:00,
2013-05-18 22:33:00,67.4,58.1,29.76,NE,52,60.0,60.0,72,0.00,,---,0.84,VWS V14.01,2013-05-19 03:33:00,
2013-05-18 22:34:00,67.4,58.1,29.76,NNE,21,60.0,60.0,72,0.00,,---,0.84,VWS V14.01,2013-05-19 03:34:00,
2013-05-18 22:35:00,67.3,58.0,29.76,NNE,27,60.0,60.0,72,0.00,,---,0.84,VWS V14.01,2013-05-19 03:35:00,
2013-05-18 22:36:00,67.3,58.0,29.76,NNE,30,60.0,60.0,72,0.00,,---,0.84,VWS V14.01,2013-05-19 03:36:00,
2013-05-18 22:37:00,67.3,58.0,29.76,North,10,60.0,60.0,72,0.00,,---,0.84,VWS V14.01,2013-05-19 03:37:00,
2013-05-18 22:38:00,67.1,57.8,29.76,NNE,17,60.0,60.0,72,0.00,,---,0.84,VWS V14.01,2013-05-19 03:38:00,
2013-05-18 22:39:00,67.1,57.8,29.76,North,7,60.0,60.0,72,0.00,,---,0.84,VWS V14.01,2013-05-19 03:39:00,
2013-05-18 22:40:00,67.1,57.8,29.76,NE,42,60.0,60.0,72,0.00,,---,0.84,VWS V14.01,2013-05-19 03:40:00,
2013-05-18 22:41:00,66.9,57.6,29.76,NE,49,60.0,60.0,72,0.00,,---,0.84,VWS V14.01,2013-05-19 03:41:00,
2013-05-18 22:42:00,66.9,58.0,29.76,NE,35,60.0,60.0,73,0.00,,---,0.84,VWS V14.01,2013-05-19 03:42:00,
2013-05-18 22:43:00,66.9,58.0,29.76,NNE,27,60.0,60.0,73,0.00,,---,0.84,VWS V14.01,2013-05-19 03:43:00,
2013-05-18 22:44:00,66.9,58.0,29.76,North,7,60.0,60.0,73,0.00,,---,0.84,VWS V14.01,2013-05-19 03:44:00,
2013-05-18 22:45:00,66.8,57.9,29.76,North,11,60.0,60.0,73,0.00,,---,0.84,VWS V14.01,2013-05-19 03:45:00,
2013-05-18 22:46:00,66.8,57.9,29.76,NE,44,60.0,60.0,73,0.00,,---,0.84,VWS V14.01,2013-05-19 03:46:00,
2013-05-18 22:47:00,66.8,57.9,29.76,NNE,32,60.0,60.0,73,0.00,,---,0.84,VWS V14.01,2013-05-19 03:47:00,
2013-05-18 22:48:00,66.8,57.9,29.76,NNE,27,60.0,60.0,73,0.00,,---,0.84,VWS V14.01,2013-05-19 03:48:00,
2013-05-18 22:49:00,66.6,57.7,29.76,ENE,64,60.0,60.0,73,0.00,,---,0.84,VWS V14.01,2013-05-19 03:49:00,
2013-05-18 22:50:00,66.6,57.7,29.76,NE,41,60.0,60.0,73,0.00,,---,0.84,VWS V14.01,2013-05-19 03:50:00,
2013-05-18 22:51:00,66.6,57.7,29.76,ENE,71,60.0,60.0,73,0.00,,---,0.84,VWS V14.01,2013-05-19 03:51:00,
2013-05-18 22:52:00,66.6,57.7,29.76,NE,45,60.0,60.0,73,0.00,,---,0.84,VWS V14.01,2013-05-19 03:52:00,
2013-05-18 22:53:00,66.4,57.5,29.76,ENE,59,60.0,60.0,73,0.00,,---,0.84,VWS V14.01,2013-05-19 03:53:00,
2013-05-18 22:54:00,66.4,57.5,29.76,ENE,58,60.0,60.0,73,0.00,,---,0.84,VWS V14.01,2013-05-19 03:54:00,
2013-05-18 22:55:00,66.4,57.5,29.76,NE,49,60.0,60.0,73,0.00,,---,0.84,VWS V14.01,2013-05-19 03:55:00,
2013-05-18 22:56:00,66.3,57.4,29.76,NE,55,60.0,60.0,73,0.00,,---,0.84,VWS V14.01,2013-05-19 03:56:00,
2013-05-18 22:57:00,66.3,57.8,29.76,NE,40,60.0,60.0,74,0.00,,---,0.84,VWS V14.01,2013-05-19 03:57:00,
2013-05-18 22:58:00,66.3,57.8,29.76,North,1,60.0,60.0,74,0.00,,---,0.84,VWS V14.01,2013-05-19 03:58:00,
2013-05-18 22:59:00,66.1,57.6,29.75,North,359,60.0,60.0,74,0.00,,---,0.84,VWS V14.01,2013-05-19 03:59:00,
2013-05-18 23:00:00,66.1,57.6,29.75,NNE,17,60.0,60.0,74,0.00,,---,0.84,VWS V14.01,2013-05-19 04:00:00,
2013-05-18 23:01:00,66.1,57.6,29.75,NE,38,60.0,60.0,74,0.00,,---,0.84,VWS V14.01,2013-05-19 04:01:00,
2013-05-18 23:02:00,66.0,57.5,29.75,ENE,71,60.0,60.0,74,0.00,,---,0.84,VWS V14.01,2013-05-19 04:02:00,
2013-05-18 23:03:00,66.0,57.5,29.75,ENE,78,60.0,60.0,74,0.00,,---,0.84,VWS V14.01,2013-05-19 04:03:00,
2013-05-18 23:04:00,66.0,57.5,29.75,ENE,71,60.0,60.0,74,0.00,,---,0.84,VWS V14.01,2013-05-19 04:04:00,
2013-05-18 23:05:00,65.8,57.3,29.75,NE,41,60.0,60.0,74,0.00,,---,0.84,VWS V14.01,2013-05-19 04:05:00,
2013-05-18 23:06:00,65.8,57.3,29.75,ENE,64,60.0,60.0,74,0.00,,---,0.84,VWS V14.01,2013-05-19 04:06:00,
2013-05-18 23:07:00,65.8,57.3,29.75,ENE,58,60.0,60.0,74,0.00,,---,0.84,VWS V14.01,2013-05-19 04:07:00,
2013-05-18 23:08:00,65.6,57.1,29.75,NE,35,60.0,60.0,74,0.00,,---,0.84,VWS V14.01,2013-05-19 04:08:00,
2013-05-18 23:09:00,65.6,57.5,29.75,NNE,28,60.0,60.0,75,0.00,,---,0.84,VWS V14.01,2013-05-19 04:09:00,
2013-05-18 23:10:00,65.6,57.5,29.75,NE,42,60.0,60.0,75,0.00,,---,0.84,VWS V14.01,2013-05-19 04:10:00,
2013-05-18 23:11:00,65.5,57.4,29.75,ENE,62,60.0,60.0,75,0.00,,---,0.84,VWS V14.01,2013-05-19 04:11:00,
2013-05-18 23:12:00,65.5,57.4,29.75,ENE,58,60.0,60.0,75,0.00,,---,0.84,VWS V14.01,2013-05-19 04:12:00,
2013-05-18 23:13:00,65.5,57.4,29.75,ENE,59,60.0,60.0,75,0.00,,---,0.84,VWS V14.01,2013-05-19 04:13:00,
2013-05-18 23:14:00,65.3,57.2,29.76,ENE,58,60.0,60.0,75,0.00,,---,0.84,VWS V14.01,2013-05-19 04:14:00,
2013-05-18 23:15:00,65.3,57.2,29.76,ENE,59,60.0,60.0,75,0.00,,---,0.84,VWS V14.01,2013-05-19 04:15:00,
2013-05-18 23:16:00,65.3,57.2,29.76,East,93,60.0,60.0,75,0.00,,---,0.84,VWS V14.01,2013-05-19 04:16:00,
2013-05-18 23:17:00,65.2,57.5,29.76,ENE,78,60.0,60.0,76,0.00,,---,0.84,VWS V14.01,2013-05-19 04:17:00,
2013-05-18 23:18:00,65.2,57.5,29.76,ENE,76,60.0,60.0,76,0.00,,---,0.84,VWS V14.01,2013-05-19 04:18:00,
2013-05-18 23:19:00,65.0,57.3,29.76,ENE,76,60.0,60.0,76,0.00,,---,0.84,VWS V14.01,2013-05-19 04:19:00,
2013-05-18 23:20:00,65.0,57.3,29.76,North,3,60.0,60.0,76,0.00,,---,0.84,VWS V14.01,2013-05-19 04:20:00,
2013-05-18 23:21:00,65.0,57.3,29.76,NE,42,60.0,60.0,76,0.00,,---,0.84,VWS V14.01,2013-05-19 04:21:00,
2013-05-18 23:22:00,64.8,57.4,29.76,NE,41,60.0,60.0,77,0.00,,---,0.84,VWS V14.01,2013-05-19 04:22:00,
2013-05-18 23:23:00,64.8,57.4,29.76,NE,48,60.0,60.0,77,0.00,,---,0.84,VWS V14.01,2013-05-19 04:23:00,
2013-05-18 23:24:00,64.8,57.4,29.76,NE,40,60.0,60.0,77,0.00,,---,0.84,VWS V14.01,2013-05-19 04:24:00,
2013-05-18 23:25:00,64.8,57.4,29.76,ENE,61,60.0,60.0,77,0.00,,---,0.84,VWS V14.01,2013-05-19 04:25:00,
2013-05-18 23:26:00,64.8,57.4,29.76,NE,40,60.0,60.0,77,0.00,,---,0.84,VWS V14.01,2013-05-19 04:26:00,
2013-05-18 23:27:00,64.8,57.4,29.76,ENE,65,60.0,60.0,77,0.00,,---,0.84,VWS V14.01,2013-05-19 04:27:00,
2013-05-18 23:28:00,64.7,57.3,29.76,ENE,66,60.0,60.0,77,0.00,,---,0.84,VWS V14.01,2013-05-19 04:28:00,
2013-05-18 23:29:00,64.7,57.3,29.75,NE,48,60.0,60.0,77,0.00,,---,0.84,VWS V14.01,2013-05-19 04:29:00,
2013-05-18 23:30:00,64.7,57.3,29.75,ENE,65,60.0,60.0,77,0.00,,---,0.84,VWS V14.01,2013-05-19 04:30:00,
2013-05-18 23:31:00,64.7,57.3,29.75,NE,40,60.0,60.0,77,0.00,,---,0.84,VWS V14.01,2013-05-19 04:31:00,
2013-05-18 23:32:00,64.7,57.3,29.75,East,80,60.0,60.0,77,0.00,,---,0.84,VWS V14.01,2013-05-19 04:32:00,
2013-05-18 23:33:00,64.7,57.3,29.75,NE,49,60.0,60.0,77,0.00,,---,0.84,VWS V14.01,2013-05-19 04:33:00,
2013-05-18 23:34:00,64.7,57.3,29.75,ENE,72,60.0,60.0,77,0.00,,---,0.84,VWS V14.01,2013-05-19 04:34:00,
2013-05-18 23:35:00,64.5,57.1,29.75,ENE,71,60.0,60.0,77,0.00,,---,0.84,VWS V14.01,2013-05-19 04:35:00,
2013-05-18 23:36:00,64.5,57.1,29.75,NNE,17,60.0,60.0,77,0.00,,---,0.84,VWS V14.01,2013-05-19 04:36:00,
2013-05-18 23:37:00,64.5,57.1,29.75,East,95,60.0,60.0,77,0.00,,---,0.84,VWS V14.01,2013-05-19 04:37:00,
2013-05-18 23:38:00,64.5,57.5,29.75,East,95,60.0,60.0,78,0.00,,---,0.84,VWS V14.01,2013-05-19 04:38:00,
2013-05-18 23:39:00,64.5,57.5,29.75,ENE,62,60.0,60.0,78,0.00,,---,0.84,VWS V14.01,2013-05-19 04:39:00,
2013-05-18 23:40:00,64.5,57.5,29.75,ENE,66,60.0,60.0,78,0.00,,---,0.84,VWS V14.01,2013-05-19 04:40:00,
2013-05-18 23:41:00,64.5,57.5,29.75,ENE,71,60.0,60.0,78,0.00,,---,0.84,VWS V14.01,2013-05-19 04:41:00,
2013-05-18 23:42:00,64.5,57.5,29.75,East,79,60.0,60.0,78,0.00,,---,0.84,VWS V14.01,2013-05-19 04:42:00,
2013-05-18 23:43:00,64.3,57.3,29.75,ENE,71,60.0,60.0,78,0.00,,---,0.84,VWS V14.01,2013-05-19 04:43:00,
2013-05-18 23:44:00,64.3,57.3,29.75,ENE,66,60.0,60.0,78,0.00,,---,0.84,VWS V14.01,2013-05-19 04:44:00,
2013-05-18 23:45:00,64.3,57.3,29.74,East,85,60.0,60.0,78,0.00,,---,0.84,VWS V14.01,2013-05-19 04:45:00,
2013-05-18 23:46:00,64.3,57.3,29.74,ENE,61,60.0,60.0,78,0.00,,---,0.84,VWS V14.01,2013-05-19 04:46:00,
2013-05-18 23:47:00,64.3,57.3,29.74,ENE,61,60.0,60.0,78,0.00,,---,0.84,VWS V14.01,2013-05-19 04:47:00,
2013-05-18 23:48:00,64.3,57.3,29.74,ENE,64,60.0,60.0,78,0.00,,---,0.84,VWS V14.01,2013-05-19 04:48:00,
2013-05-18 23:49:00,64.3,57.3,29.74,ENE,76,60.0,60.0,78,0.00,,---,0.84,VWS V14.01,2013-05-19 04:49:00,
2013-05-18 23:50:00,64.3,57.3,29.74,East,93,60.0,60.0,78,0.00,,---,0.84,VWS V14.01,2013-05-19 04:50:00,
2013-05-18 23:51:00,64.3,57.3,29.74,East,93,60.0,60.0,78,0.00,,---,0.84,VWS V14.01,2013-05-19 04:51:00,
2013-05-18 23:52:00,64.3,57.3,29.74,ENE,64,60.0,60.0,78,0.00,,---,0.84,VWS V14.01,2013-05-19 04:52:00,
2013-05-18 23:53:00,64.2,57.2,29.74,East,85,60.0,60.0,78,0.00,,---,0.84,VWS V14.01,2013-05-19 04:53:00,
2013-05-18 23:54:00,64.2,57.2,29.74,East,83,60.0,60.0,78,0.00,,---,0.84,VWS V14.01,2013-05-19 04:54:00,
2013-05-18 23:55:00,64.2,57.2,29.74,ESE,104,60.0,60.0,78,0.00,,---,0.84,VWS V14.01,2013-05-19 04:55:00,
2013-05-18 23:56:00,64.2,57.2,29.74,East,88,60.0,60.0,78,0.00,,---,0.84,VWS V14.01,2013-05-19 04:56:00,
2013-05-18 23:57:00,64.2,57.6,29.74,East,90,60.0,60.0,79,0.00,,---,0.84,VWS V14.01,2013-05-19 04:57:00,
2013-05-18 23:58:00,64.2,57.6,29.74,NE,56,60.0,60.0,79,0.00,,---,0.84,VWS V14.01,2013-05-19 04:58:00,
2013-05-18 23:59:00,64.2,57.6,29.74,ENE,61,60.0,60.0,79,0.00,,---,0.84,VWS V14.01,2013-05-19 04:59:00,